     2              OBSERVATION DATA    G (GPS)             RINEX VERSION / TYPE
ASRINEXO V2.9.7 UX USGS/MENLO_PARK 23-JUL-01 17:13          PGM / RUN BY / DATE
                                                            COMMENT
National Earthquake Hazard Reduction Program                COMMENT
Crustal Strain Project                                      COMMENT
345 Middlefield Road, MS/977                                COMMENT
U.S. Geological Survey, Menlo Park, California 94025        COMMENT
Contact: kwendt@usgs.gov (Ph: 650-329-4866)                 COMMENT
HI's are vertical to base of antenna                        COMMENT
BIT 2 OF LLI (+4) FLAGS DATA COLLECTED UNDER "AS" CONDITION COMMENT
knee Kneeland_1932_2672_USGS                                MARKER NAME
JMS                                                         OBSERVER / AGENCY
lp019992804 ASHTECH Z-XII3 CD00                             REC # / TYPE / VERS
CR14329 ASH700936D_M NONE                                   ANT # / TYPE
 -2705316.0000 -4014599.0000  4139977.0000                  APPROX POSITION XYZ
        1.3217        0.0000        0.0000                  ANTENNA: DELTA H/E/N
     1     1                                                WAVELENGTH FACT L1/2
     5    C1    L1    L2    P1    P2                        # / TYPES OF OBSERV
    30                                                      INTERVAL
  2001     7    19     0     1    0.000000                  TIME OF FIRST OBS
                                                            END OF HEADER
 01  7 19  0  1  0.0000000  0  6 11 22 29 01 20 25
  22420002.202   -10837489.283 8  -8418776.07146  22420001.745    22420006.0274
  23170247.469    -6642380.838 7  -5138940.46845  23170246.533    23170253.6054
  23370249.708    -2914887.497 7  -2243752.81245  23370249.433    23370253.7384
  21704413.394   -12620769.449 8  -9817706.60947  21704412.828    21704416.9684
  20408851.594   -23079469.015 9 -17961980.65547  20408850.847    20408853.6504
  21523100.905   -19072394.398 9 -14836720.67147  21523100.697    21523103.4854
 01  7 19  0  1 30.0000000  0  6 11 22 29 01 20 25
  22435541.989   -10755827.618 8  -8355143.69146  22435541.557    22435545.8024
  23152003.538    -6738251.275 7  -5213644.56345  23152002.782    23152009.7584
  23384482.269    -2840093.757 8  -2185472.00145  23384482.090    23384486.5754
  21694465.361   -12673045.721 8  -9858441.33747  21694464.894    21694468.9374
  20402405.350   -23113343.923 9 -17988376.66747  20402404.639    20402407.4474
  21533878.333   -19015759.295 9 -14792589.44347  21533878.076    21533880.8404
 01  7 19  0  2  0.0000000  0  6 11 22 29 01 20 25
  22451139.762   -10673861.818 8  -8291274.31346  22451139.239    22451143.4114
  23133793.836    -6833943.071 8  -5288209.45345  23133793.099    23133800.1544
  23398726.618    -2765239.771 7  -2127144.29645  23398726.419    23398730.7094
  21684556.243   -12725118.338 8  -9899017.37247  21684555.754    21684559.9614
  20396039.697   -23146795.363 9 -18014442.71248  20396039.016    20396041.8684
  21544726.723   -18958751.280 9 -14748167.63947  21544726.386    21544729.1834
 01  7 19  0  2 30.0000000  0  6 11 22 29 01 20 25
  22466794.718   -10591594.430 8  -8227169.91946  22466794.262    22466798.5274
  23115619.008    -6929452.825 8  -5362632.50545  23115618.140    23115625.1554
  23412982.299    -2690325.959 8  -2068769.95145  23412982.040    23412986.2824
  21674686.062   -12776986.980 8  -9939434.45447  21674685.478    21674689.6764
  20389755.032   -23179821.476 9 -18040177.32748  20389754.387    20389757.2194
  21555645.612   -18901371.884 9 -14703456.45547  21555645.297    21555648.1134
 01  7 19  0  3  0.0000000  0  6 11 22 29 01 20 25
  22482506.614   -10509028.605 8  -8162832.98646  22482506.095    22482510.3094
  23097479.248    -7024777.815 7  -5436911.57845  23097478.329    23097485.3744
  23427249.184    -2615352.616 7  -2010349.23345  23427248.973    23427253.4044
  21664854.643   -12828651.535 8  -9979692.53047  21664854.093    21664858.2834
  20383551.685   -23212420.723 9 -18065579.31548  20383551.021    20383553.8084
  21566634.822   -18843623.286 9 -14658457.57147  21566634.529    21566637.3284
 01  7 19  0  3 30.0000000  0  6 11 22 29 01 20 25
  22498274.856   -10426166.923 8  -8098265.50946  22498274.229    22498278.5004
  23079375.110    -7119913.969 7  -5511043.54645  23079374.492    23079381.6594
  23441527.442    -2540320.012 8  -1951882.36245  23441527.278    23441531.6654
  21655061.998   -12880112.075 8 -10019791.63147  21655061.433    21655065.5694
  20377429.852   -23244591.128 9 -18090647.15348  20377429.159    20377431.9364
  21577693.884   -18785507.458 8 -14613172.52747  21577693.603    21577696.3894
 01  7 19  0  4  0.0000000  0  6 11 22 29 01 20 25
  22514098.443   -10343013.333 8  -8033470.57946  22514097.904    22514102.0784
  23061307.665    -7214858.688 8  -5585026.28145  23061306.879    23061314.3014
  23455816.793    -2465229.450 8  -1893370.28545  23455816.586    23455821.1124
  21645308.112   -12931369.502 8 -10059732.46447  21645307.466    21645311.5434
  20371389.622   -23276332.045 9 -18115380.32447  20371388.971    20371391.7584
  21588822.273   -18727027.291 9 -14567603.57547  21588822.039    21588824.8604
 01  7 19  0  4 30.0000000  0  6 11 22 29 01 20 25
  22529977.366   -10259569.923 8  -7968449.84146  22529976.742    22529980.8004
  23043277.670    -7309608.053 8  -5658856.87145  23043276.641    23043283.7794
  23470117.264    -2390080.683 8  -1834812.87045  23470116.956    23470121.4244
  21635592.824   -12982423.111 8 -10099514.45947  21635592.231    21635596.4654
  20365431.677   -23307641.249 9 -18139777.09547  20365431.045    20365433.7814
  21600019.761   -18668184.534 9 -14521752.09147  21600019.498    21600022.2724
 01  7 19  0  5  0.0000000  0  6 11 22 29 01 20 25
  22545910.831   -10175839.344 8  -7903205.34046  22545910.251    22545914.1374
  23025285.121    -7404158.935 8  -5732532.73745  23025284.248    23025291.1604
  23484428.917    -2314873.513 8  -1776209.95345  23484428.678    23484433.0304
  21625916.572   -13033272.711 8 -10139137.51147  21625915.930    21625920.0574
  20359556.324   -23338516.865 9 -18163836.00148  20359555.673    20359558.3264
  21611285.836   -18608980.843 9 -14475619.36847  21611285.588    21611288.3334
 01  7 19  0  5 30.0000000  0  6 11 22 29 01 20 25
  22561898.437   -10091824.285 8  -7837739.12246  22561897.793    22561901.8004
  23007331.321    -7498507.753 8  -5806051.18145  23007330.256    23007336.9704
  23498751.241    -2239608.408 7  -1717561.85445  23498751.113    23498755.6234
  21616278.846   -13083918.194 8 -10178601.49447  21616278.242    21616282.4194
  20353763.831   -23368956.955 9 -18187555.53748  20353763.123    20353765.7494
  21622620.220   -18549418.074 8 -14429206.84347  21622620.012    21622622.6824
 01  7 19  0  6  0.0000000  0  6 11 22 29 01 20 25
  22577939.738   -10007526.679 8  -7772052.75746  22577939.078    22577943.1804
  22989416.702    -7592649.875 7  -5879408.54145  22989415.529    22989422.1164
  23513085.041    -2164284.581 8  -1658868.04445  23513084.909    23513089.3804
  21606680.409   -13134358.610 8 -10217905.70447  21606679.797    21606683.8164
  20348054.564   -23398959.069 9 -18210933.79648  20348053.856    20348056.5324
  21634022.811   -18489497.282 8 -14382515.32747  21634022.598    21634025.2504
 01  7 19  0  6 30.0000000  0  7 13 11 22 29 01 20 25
  24648290.543    -2328322.00317  -1802088.11455  24648290.455    24648297.9024
  22594032.893    -9922955.341 8  -7706153.06746  22594032.347    22594036.8264
  22971540.398    -7686587.485 7  -5952606.57645  22971539.605    22971546.2304
  23527428.967    -2088908.337 8  -1600133.36745  23527428.540    23527433.0104
  21597119.858   -13184599.623 8 -10257054.52947  21597119.315    21597123.3374
  20342427.842   -23428527.203 9 -18233973.89148  20342427.191    20342429.8824
  21645492.010   -18429226.288 8 -14335550.93147  21645491.788    21645494.4604
 01  7 19  0  7  0.0000000  0  7 13 11 22 29 01 20 25
  24632284.889    -2412432.055 7  -1867628.26945  24632284.844    24632291.9844
  22610178.103    -9838112.298 8  -7640041.68846  22610177.470    22610181.9154
  22953704.298    -7780316.733 8  -6025642.21245  22953703.452    22953709.7754
  23541782.252    -2013478.965 7  -1541357.26545  23541782.144    23541786.7264
  21587597.363   -13234640.535 8 -10296047.40347  21587596.788    21587600.8694
  20336884.316   -23457658.996 9 -18256673.98147  20336883.598    20336886.2674
  21657027.670   -18368606.030 8 -14288314.39147  21657027.432    21657030.1284
 01  7 19  0  7 30.0000000  0  7 13 11 22 29 01 20 25
  24616293.772    -2496465.411 7  -1933108.61745  24616293.825    24616300.6424
  22626375.711    -9752993.205 8  -7573715.21346  22626375.176    22626379.6614
  22935910.048    -7873827.169 8  -6098507.33445  22935908.851    22935915.0854
  23556147.346    -1937989.411 7  -1482534.31245  23556147.279    23556152.1344
  21578114.399   -13284473.734 8 -10334878.43347  21578113.753    21578117.9324
  20331425.498   -23486345.369 9 -18279026.98847  20331424.758    20331427.4014
  21668630.828   -18307631.580 9 -14240801.86047  21668630.529    21668633.1844
 01  7 19  0  8  0.0000000  0  7 13 11 22 29 01 20 25
  24600317.089    -2580422.989 7  -1998529.89645  24600316.995    24600324.0144
  22642625.341    -9667601.851 8  -7507176.58646  22642624.796    22642629.1574
  22918157.842    -7967116.212 8  -6171199.99145  22918156.750    22918162.6314
  23570523.866    -1862441.144 7  -1423665.61445  23570523.726    23570528.5924
  21568670.711   -13334100.284 9 -10373548.46847  21568670.170    21568674.0524
  20326051.530   -23514585.859 9 -18301032.55247  20326050.778    20326053.3374
  21680300.538   -18246306.155 8 -14193015.82847  21680300.341    21680303.0834
 01  7 19  0  8 30.0000000  0  7 13 11 22 29 01 20 25
  24584354.198    -2664306.703 7  -2063893.72245  24584354.256    24584361.4634
  22658925.648    -9581943.382 8  -7440429.81746  22658925.063    22658929.3894
  22900447.477    -8060182.320 8  -6243718.90145  22900446.561    22900452.8004
  23584911.381    -1786836.647 7  -1364753.11345  23584910.935    23584915.5944
  21559266.143   -13383522.433 8 -10412059.19447  21559265.462    21559269.4794
  20320762.283   -23542381.223 9 -18322691.26248  20320761.549    20320764.0574
  21692036.358   -18184633.740 8 -14144959.40047  21692036.156    21692038.9794
 01  7 19  0  9  0.0000000  0  7 13 11 22 29 01 20 25
  24568405.996    -2748116.129 7  -2129199.64945  24568406.146    24568412.8024
  22675276.207    -9496020.775 8  -7373477.20846  22675275.653    22675280.1554
  22882780.061    -8153022.132 8  -6316061.50145  22882779.442    22882786.0674
  23599309.206    -1711176.127 7  -1305796.88745  23599308.709    23599313.4134
  21549900.076   -13432740.091 9 -10450410.55847  21549899.525    21549903.6734
  20315557.974   -23569729.697 9 -18344001.74948  20315557.252    20315559.8494
  21703837.895   -18122616.474 8 -14096634.28047  21703837.646    21703840.4614
 01  7 19  0  9 30.0000000  0  7 13 11 22 29 01 20 25
  24552471.440    -2831851.540 7  -2194447.86945  24552471.509    24552478.3114
  22691676.652    -9409836.610 8  -7306320.81746  22691676.080    22691680.5534
  22865156.987    -8245632.690 8  -6388225.47245  22865156.212    22865162.6774
  23613717.365    -1635459.711 7  -1246797.15745  23613717.144    23613721.7844
  21540573.365   -13481753.053 8 -10488602.46047  21540572.682    21540576.8624
  20310439.101   -23596629.367 9 -18364962.52248  20310438.366    20310441.0864
  21715704.536   -18060256.646 9 -14048042.24247  21715704.341    21715707.2014
 01  7 19  0 10  0.0000000  0  7 13 11 22 29 01 20 25
  24536551.174    -2915512.067 7  -2259637.77145  24536551.329    24536558.0724
  22708126.089    -9323393.984 8  -7238963.01246  22708125.522    22708130.1934
  22847577.531    -8338010.769 8  -6460208.23445  22847576.952    22847583.6744
  23628136.468    -1559687.601 8  -1187754.07345  23628136.132    23628140.9654
  21531285.377   -13530561.527 9 -10526634.99447  21531284.792    21531288.7484
  20305405.895   -23623078.916 9 -18385572.54948  20305405.200    20305407.9424
  21727636.033   -17997556.196 8 -13999184.77647  21727635.850    21727638.6894
 01  7 19  0 10 30.0000000  0  7 13 11 22 29 01 20 25
  24520645.561    -2999098.424 7  -2324769.89445  24520645.410    24520652.0314
  22724624.251    -9236696.551 8  -7171406.66446  22724623.651    22724628.1094
  22830043.035    -8430152.988 7  -6532007.27445  22830042.601    22830049.3514
  23642565.715    -1483861.055 8  -1128668.52545  23642565.592    23642570.1574
  21522036.184   -13579165.871 8 -10564508.48747  21522035.555    21522039.6164
  20300458.648   -23649077.388 9 -18405831.08548  20300457.845    20300460.5564
  21739631.925   -17934517.593 8 -13950063.80847  21739631.766    21739634.6184
 01  7 19  0 11  0.0000000  0  7 13 11 22 29 01 20 25
  24504753.657    -3082609.473 7  -2389843.34345  24504753.493    24504760.3654
  22741170.367    -9149746.070 8  -7103653.12746  22741169.815    22741174.3604
  22812554.521    -8522054.982 8  -6603619.07445  22812554.217    22812560.9234
  23657005.383    -1407979.245 7  -1069539.91845  23657005.427    23657010.0234
  21512825.956   -13627565.332 9 -10602222.28747  21512825.361    21512829.5314
  20295597.657   -23674622.142 9 -18425736.08048  20295596.831    20295599.5594
  21751691.885   -17871142.134 8 -13900680.34147  21751691.667    21751694.6204
 01  7 19  0 11 30.0000000  0  7 13 11 22 29 01 20 25
  24488876.015    -3166045.192 7  -2454858.17845  24488876.213    24488882.8594
  22757764.168    -9062545.648 8  -7035704.84246  22757763.678    22757768.1444
  22795112.881    -8613713.466 8  -6675041.19145  22795112.362    22795118.7244
  23671455.665    -1332042.193 7  -1010368.30145  23671455.711    23671460.4784
  21503654.965   -13675759.754 9 -10639776.34347  21503654.410    21503658.5174
  20290823.218   -23699711.758 9 -18445286.42648  20290822.436    20290825.1464
  21763815.503   -17807431.992 8 -13851036.09847  21763815.264    21763818.2534
 01  7 19  0 12  0.0000000  0  7 13 11 22 29 01 20 25
  24473013.214    -3249406.958 7  -2519815.35145  24473012.956    24473019.6274
  22774404.531    -8975100.068 8  -6967565.51646  22774404.187    22774408.6634
  22777717.312    -8705127.670 8  -6746272.88445  22777716.595    22777722.9914
  23685916.342    -1256052.343 8   -951155.49345  23685916.091    23685920.8454
  21494522.551   -13723751.086 8 -10677172.15747  21494521.893    21494525.8794
  20286135.263   -23724346.841 9 -18464482.58048  20286134.491    20286137.1974
  21776002.156   -17743390.986 9 -13801134.03147  21776001.927    21776004.9594
 01  7 19  0 12 30.0000000  0  7 13 11 22 29 01 20 25
  24457164.063    -3332694.241 7  -2584714.39845  24457163.938    24457170.3864
  22791091.218    -8887412.066 8  -6899237.29646  22791090.746    22791095.2754
  22760369.217    -8796293.360 8  -6817310.95645  22760368.285    22760374.5794
  23700387.080    -1180009.690 7   -891901.52545  23700386.764    23700391.6594
  21485428.597   -13771538.976 9 -10714409.43247  21485427.998    21485432.0924
  20281534.223   -23748525.078 9 -18483322.75548  20281533.487    20281536.2044
  21788251.482   -17679020.786 8 -13750975.47447  21788251.228    21788254.2224
 01  7 19  0 13  0.0000000  0  7 13 11 22 29 01 20 25
  24441329.277    -3415905.232 7  -2649553.99645  24441329.011    24441335.8714
  22807823.631    -8799482.531 8  -6830720.88346  22807823.203    22807827.7704
  22743069.264    -8887205.197 8  -6888151.25046  22743068.392    22743074.4944
  23714867.886    -1103912.634 7   -832605.23045  23714867.609    23714872.3624
  21476373.942   -13819121.580 9 -10751486.73747  21476373.376    21476377.4714
  20277020.646   -23772243.493 9 -18501804.62848  20277019.961    20277022.7174
  21800563.180   -17614322.214 8 -13700561.04147  21800562.964    21800565.9804
 01  7 19  0 13 30.0000000  0  7 13 11 22 29 01 20 25
  24425509.096    -3499040.308 7  -2714334.48145  24425508.951    24425515.3614
  22824601.258    -8711315.110 8  -6762019.07146  22824600.709    22824605.4654
  22725818.223    -8977860.511 8  -6958791.62646  22725817.254    22725823.3534
  23729358.358    -1027762.209 7   -773267.26245  23729358.358    23729363.5684
  21467358.347   -13866499.518 9 -10788404.57847  21467357.757    21467361.7074
  20272594.791   -23795501.322 9 -18519927.60948  20272594.185    20272596.8904
  21812936.957   -17549297.498 8 -13649892.45747  21812936.728    21812939.7804
 01  7 19  0 14  0.0000000  0  7 13 11 22 29 01 20 25
  24409703.738    -3582099.137 7  -2779055.47845  24409703.225    24409709.5764
  22841423.865    -8622912.562 8  -6693134.08846  22841423.272    22841427.8574
  22708616.780    -9068255.985 8  -7029229.54046  22708615.412    22708621.5844
  23743859.619     -951558.284 7   -713887.71545  23743859.477    23743864.7744
  21458381.358   -13913672.635 8 -10825162.80347  21458380.822    21458384.8704
  20268257.096   -23818296.635 9 -18537690.18848  20268256.468    20268259.0614
  21825372.280   -17483948.826 8 -13598971.43647  21825372.119    21825375.2464
 01  7 19  0 14 30.0000000  0  7 13 11 22 29 01 20 25
  24393911.966    -3665081.886 7  -2843717.19745  24393911.946    24393918.5814
  22858290.387    -8534278.413 8  -6624068.61646  22858289.855    22858294.5134
  22691465.361    -9158389.035 8  -7099462.93346  22691463.587    22691469.8624
  23758371.223     -875301.609 7   -654467.00045  23758370.842    23758376.1984
  21449443.548   -13960641.211 9 -10861761.65947  21449442.980    21449446.9624
  20264007.588   -23840628.429 9 -18555091.57848  20264006.920    20264009.4214
  21837868.898   -17418278.885 8 -13547800.06747  21837868.708    21837871.8964
 01  7 19  0 15  0.0000000  0  7 13 11 22 29 01 20 25
  24378135.828    -3747987.848 7  -2908319.08645  24378135.718    24378142.1274
  22875200.541    -8445415.331 8  -6554824.70846  22875199.948    22875204.8014
  22674363.962    -9248255.366 7  -7169488.51146  22674362.496    22674368.8194
  23772892.480     -798992.174 8   -595005.14445  23772892.209    23772897.2974
  21440544.862   -14007405.089 9 -10898201.01747  21440544.250    21440548.0064
  20259846.534   -23862494.937 9 -18572130.40848  20259845.831    20259848.3034
  21850426.433   -17352289.338 8 -13496379.67247  21850426.165    21850429.2644
 01  7 19  0 15 30.0000000  0  7 13 11 22 29 01 20 25
  24362373.925    -3830817.527 7  -2972861.50445  24362373.521    24362379.5904
  22892153.675    -8356326.547 8  -6485404.98846  22892153.162    22892157.9044
  22657313.880    -9337851.901 8  -7239303.85546  22657312.780    22657318.9544
  23787423.686     -722630.562 7   -535502.65745  23787423.449    23787428.5664
  21431684.790   -14053964.534 8 -10934481.05747  21431684.174    21431688.1654
  20255774.224   -23883895.150 9 -18588805.88948  20255773.500    20255775.9654
  21863044.265   -17285982.556 8 -13444712.05947  21863043.970    21863047.0244
 01  7 19  0 16  0.0000000  0  7 13 11 22 29 01 20 25
  24346625.904    -3913570.428 7  -3037344.11045  24346625.882    24346631.9134
  22909149.303    -8267014.641 8  -6415811.43146  22909148.876    22909153.3434
  22640315.874    -9427175.105 8  -7308906.23046  22640314.876    22640321.2064
  23801964.547     -646216.748 7   -475959.53345  23801964.314    23801969.2874
  21422863.617   -14100319.141 9 -10970601.48447  21422863.001    21422867.1144
  20251790.897   -23904827.204 9 -18605116.57748  20251790.198    20251792.7214
  21875722.074   -17219360.328 8 -13392798.65947  21875721.803    21875724.7514
 01  7 19  0 16 30.0000000  0  7 13 11 22 29 01 20 25
  24330893.302    -3996245.830 7  -3101766.26245  24330893.433    24330899.1654
  22926186.830    -8177482.502 8  -6346046.21646  22926186.331    22926190.8774
  22623371.029    -9516221.831 8  -7378293.17446  22623369.797    22623375.8264
  23816515.844     -569750.621 7   -416375.68345  23816515.659    23816520.6504
  21414081.747   -14146468.597 9 -11006562.08047  21414081.219    21414085.0494
  20247897.057   -23925289.330 9 -18621061.08048  20247896.343    20247898.9734
  21888459.546   -17152424.411 8 -13340640.83047  21888459.215    21888462.1974
 01  7 19  0 17  0.0000000  0  7 13 11 22 29 01 20 25
  24315175.529    -4078844.532 7  -3166128.66545  24315175.474    24315181.3504
  22943265.359    -8087733.769 8  -6276112.23446  22943264.898    22943269.7404
  22606479.000    -9604989.494 8  -7447462.66446  22606477.701    22606483.7014
  23831076.843     -493233.465 7   -356751.98045  23831076.648    23831081.4334
  21405338.661   -14192413.977 9 -11042363.64347  21405338.023    21405341.7444
  20244092.621   -23945281.256 9 -18636639.18848  20244091.957    20244094.6614
  21901256.027   -17085178.046 8 -13288241.09147  21901255.766    21901258.8564
 01  7 19  0 17 30.0000000  0  7 13 11 22 29 01 20 25
  24299471.934    -4161365.011 7  -3230430.18945  24299472.056    24299478.3524
  22960384.770    -7997770.343 8  -6206010.91846  22960384.327    22960389.4354
  22589641.332    -9693473.032 8  -7516410.73146  22589639.878    22589645.9284
  23845647.511     -416664.044 7   -297087.54845  23845647.432    23845652.0284
  21396634.439   -14238154.043 8 -11078005.20447  21396633.829    21396637.7534
  20240378.325   -23964800.286 9 -18651848.81348  20240377.648    20240380.3764
  21914111.581   -17017621.929 8 -13235599.99347  21914111.296    21914114.3804
 01  7 19  0 18  0.0000000  0  7 13 11 22 29 01 20 25
  24283783.463    -4243808.039 7  -3294671.33645  24283783.487    24283789.8894
  22977544.674    -7907595.524 8  -6135744.93046  22977544.167    22977549.2844
  22572858.175    -9781669.502 8  -7585135.16646  22572856.697    22572862.5474
  23860228.154     -340043.307 7   -237383.17545  23860227.788    23860232.7584
  21387969.311   -14283689.029 9 -11113486.97447  21387968.837    21387972.7384
  20236754.200   -23983845.512 9 -18666689.23748  20236753.517    20236756.1674
  21927025.398   -16949758.805 8 -13182719.64647  21927025.176    21927028.3404
 01  7 19  0 18 30.0000000  0  7 13 11 22 29 01 20 25
  24268109.688    -4326173.323 7  -3358851.92245  24268109.767    24268116.1514
  22994744.030    -7817212.760 8  -6065316.94546  22994743.560    22994748.5884
  22556129.966    -9869576.604 8  -7653634.09446  22556128.418    22556134.2484
  23874818.354     -263372.010 7   -177639.33745  23874817.818    23874822.7694
  21379343.358   -14329019.322 9 -11148809.24847  21379342.759    21379346.7004
  20233220.457   -24002416.028 9 -18681159.75448  20233219.733    20233222.2664
  21939997.308   -16881591.306 8 -13129602.13947  21939997.056    21940000.2624
 01  7 19  0 19  0.0000000  0  7 13 11 22 29 01 20 25
  24252451.209    -4408459.758 7  -3422971.08445  24252451.396    24252457.1664
  23011982.585    -7726623.991 8  -5994728.42445  23011982.126    23011987.0054
  22539457.119    -9957189.998 8  -7721904.16846  22539455.989    22539461.8244
  23889418.085     -186649.109 7   -117855.37445  23889417.580    23889422.2134
  21370756.417   -14374144.003 8 -11183971.31547  21370755.814    21370759.4754
  20229777.433   -24020509.270 8 -18695258.37447  20229776.677    20229779.1284
  21953027.069   -16813120.426 8 -13076248.23647  21953026.746    21953029.8564
 01  7 19  0 19 30.0000000  0  7 13 11 22 29 01 20 25
  24236807.645    -4490668.480 7  -3487029.69745  24236807.668    24236812.9534
  23029259.688    -7635833.396 8  -5923982.62646  23029259.195    23029264.1054
  22522840.900   -10044507.209 8  -7789943.42146  22522839.783    22522845.7214
  23904027.701     -109876.166 7    -58032.34045  23904027.056    23904031.9844
  21362208.194   -14419064.174 9 -11218974.01447  21362207.651    21362211.4674
  20226425.151   -24038125.167 8 -18708985.03447  20226424.378    20226426.8384
  21966113.787   -16744349.406 8 -13022660.44047  21966113.446    21966116.5814
 01  7 19  0 20  0.0000000  0  7 13 11 22 29 01 20 25
  24221178.295    -4572799.277 7  -3551027.56445  24221178.398    24221183.9924
  23046574.449    -7544843.989 8  -5853081.86946  23046573.989    23046579.0474
  22506282.136   -10131524.576 8  -7857749.06146  22506280.776    22506286.7864
  23918646.649      -33053.268 8      1829.52345  23918646.125    23918651.2074
  21353699.293   -14463779.712 9 -11253817.26747  21353698.722    21353702.3864
  20223163.989   -24055262.271 8 -18722338.60348  20223163.245    20223165.7744
  21979257.209   -16675280.433 8 -12968840.49147  21979256.907    21979260.0034
 01  7 19  0 20 30.0000000  0  7 13 11 22 29 01 20 25
  24205564.174    -4654850.502 7  -3614963.42545  24205564.377    24205570.0344
  23063926.867    -7453657.486 8  -5782027.58646  23063926.376    23063931.3814
  22489781.460   -10218237.797 8  -7925317.69446  22489779.790    22489785.6804
  23933275.634       43820.448 7     61730.99545  23933274.988    23933279.8234
  21345229.253   -14508289.464 9 -11288500.14847  21345228.686    21345232.5354
  20219994.507   -24071918.163 9 -18735317.20948  20219993.769    20219996.3044
  21992457.222   -16605914.201 8 -12914788.89447  21992456.889    21992460.0054
 01  7 19  0 21  0.0000000  0  7 13 11 22 29 01 20 25
  24189965.162    -4736822.595 7  -3678837.61845  24189965.356    24189971.2724
  23081316.059    -7362277.414 8  -5710822.44945  23081315.457    23081320.3424
  22473338.706   -10304644.393 8  -7992647.42146  22473337.232    22473342.9324
  23947913.313      120744.384 7    121671.68145  23947912.936    23947918.0374
  21336798.498   -14552593.824 8 -11323023.00247  21336797.853    21336801.5754
  20216916.869   -24088091.872 9 -18747920.08548  20216916.090    20216918.6084
  22005713.206   -16536253.482 8 -12860507.82947  22005712.892    22005716.0014
 01  7 19  0 21 30.0000000  0  7 13 11 22 29 01 20 25
  24174381.399    -4818713.956 7  -3742648.94545  24174381.584    24174387.6794
  23098741.458    -7270705.344 8  -5639467.69845  23098741.055    23098745.9504
  22456955.051   -10390739.774 8  -8059734.62346  22456953.635    22456959.3754
  23962561.250      197719.566 7    181652.17245  23962560.923    23962566.1714
  21328406.796   -14596691.503 9 -11357384.80047  21328406.231    21328409.9314
  20213931.372   -24103781.034 8 -18760145.38548  20213930.517    20213933.0464
  22019025.060   -16466299.485 8 -12805998.25047  22019024.746    22019027.7184
 01  7 19  0 22  0.0000000  0  7 13 11 22 29 01 20 25
  24158813.232    -4900526.032 7  -3806398.48945  24158813.033    24158819.0144
  23116202.943    -7178945.899 8  -5567966.96245  23116202.346    23116207.3674
  22440631.071   -10476521.599 8  -8126577.48046  22440629.875    22440635.5694
  23977218.496      274744.083 7    241671.28645  23977218.337    23977223.2174
  21320054.493   -14640583.980 9 -11391586.71547  21320053.873    21320057.5284
  20211037.930   -24118985.635 9 -18771993.11448  20211037.120    20211039.6304
  22032392.050   -16396055.302 8 -12751262.54447  22032391.703    22032394.7884
 01  7 19  0 22 30.0000000  0  7 13 11 22 29 01 20 25
  24143259.472    -4982259.463 7  -3870086.73845  24143259.399    24143265.2724
  23133698.897    -7087002.647 8  -5496322.93945  23133698.364    23133703.8544
  22424367.089   -10561987.100 8  -8193173.86046  22424366.085    22424372.0144
  23991885.193      351817.343 7    301728.26445  23991884.914    23991890.0004
  21311740.953   -14684271.797 8 -11425629.11247  21311740.290    21311744.0644
  20208236.883   -24133705.203 8 -18783462.89148  20208236.069    20208238.5444
  22045813.693   -16325523.755 8 -12696302.92547  22045813.431    22045816.5134
 01  7 19  0 23  0.0000000  0  7 13 11 22 29 01 20 25
  24127721.422    -5063912.806 7  -3933712.56645  24127721.266    24127726.9954
  23151229.663    -6994877.462 8  -5424537.18845  23151229.188    23151234.8864
  22408164.118   -10647132.396 8  -8259520.73646  22408163.361    22408169.2784
  24006561.241      428939.895 7    361823.69245  24006561.064    24006566.0604
  21303466.373   -14727753.755 9 -11459511.12847  21303465.807    21303469.7164
  20205528.525   -24147937.333 9 -18794552.85448  20205527.754    20205530.2564
  22059289.972   -16254706.032 8 -12641120.31747  22059289.691    22059292.6364
 01  7 19  0 23 30.0000000  0  7 13 11 22 29 01 20 25
  24112198.722    -5145485.312 7  -3997275.37445  24112198.473    24112204.2244
  23168794.697    -6902573.080 8  -5352611.82845  23168794.217    23168799.8484
  22392023.215   -10731954.232 8  -8325615.57646  22392022.325    22392028.1624
  24021246.794      506112.121 7    421957.80245  24021246.517    24021251.3774
  21295231.329   -14771029.703 9 -11493232.62547  21295230.689    21295234.4094
  20202913.193   -24161680.677 8 -18805261.94748  20202912.435    20202915.0024
  22072820.187   -16183604.414 8 -12585716.48647  22072819.855    22072822.8844
 01  7 19  0 24  0.0000000  0  7 13 11 22 29 01 20 25
  24096690.711    -5226978.146 7  -4060776.18345  24096690.747    24096696.4424
  23186393.032    -6810093.428 8  -5280549.85445  23186392.624    23186398.2264
  22375944.534   -10816449.727 8  -8391456.10246  22375943.467    22375949.1444
  24035941.535      583332.738 7    482129.61645  24035941.193    24035946.3494
  21287035.275   -14814100.440 9 -11526794.21247  21287034.653    21287038.2194
  20200390.980   -24174934.824 8 -18815589.84348  20200390.231    20200392.8444
  22086403.759   -16112221.685 8 -12530093.61047  22086403.521    22086406.6064
 01  7 19  0 24 30.0000000  0  7 13 11 22 29 01 20 25
  24081198.493    -5308390.543 7  -4124214.26045  24081198.534    24081203.7894
  23204024.635    -6717441.098 8  -5208353.37845  23204024.098    23204029.5204
  22359927.973   -10900614.984 8  -8457039.30746  22359927.105    22359932.9484
  24050645.729      660601.939 7    542339.28045  24050645.095    24050650.2704
  21278878.081   -14856965.719 9 -11560195.67147  21278877.550    21278881.3184
  20197962.218   -24187698.160 9 -18825535.29048  20197961.482    20197964.0224
  22100040.562   -16040559.571 8 -12474253.01647  22100040.350    22100043.5194
 01  7 19  0 25  0.0000000  0  7 13 11 22 29 01 20 25
  24065721.111    -5389721.718 7  -4187589.02545  24065721.348    24065726.8194
  23221688.287    -6624618.331 8  -5136024.04146  23221687.850    23221693.3984
  22343975.274   -10984446.101 8  -8522362.16346  22343974.499    22343980.3914
  24065358.980      737920.353 7    602587.23045  24065358.150    24065363.7564
  21270760.354   -14899624.567 9 -11593436.30247  21270759.849    21270763.6894
  20195627.282   -24199968.891 9 -18835096.89948  20195626.529    20195628.9754
  22113730.467   -15968619.429 8 -12418195.79747  22113730.193    22113733.3254
 01  7 19  0 25 30.0000000  0  7 13 11 22 29 01 20 25
  24050260.043    -5470971.519 8  -4250900.39545  24050260.130    24050265.4104
  23239383.553    -6531628.391 8  -5063564.41545  23239383.021    23239388.6464
  22328087.007   -11067940.515 8  -8587422.67446  22328086.018    22328091.6374
  24080081.384      815287.308 8    662873.05445  24080080.706    24080086.1784
  21262682.009   -14942077.162 9 -11626516.21347  21262681.462    21262685.1204
  20193386.201   -24211745.845 9 -18844273.74048  20193385.430    20193387.8404
  22127472.657   -15896403.574 8 -12361923.71747  22127472.389    22127475.5104
 01  7 19  0 26  0.0000000  0  7 13 11 22 29 01 20 25
  24034814.355    -5552140.649 7  -4314148.92345  24034814.265    24034819.2464
  23257110.118    -6438474.929 8  -4990977.44845  23257109.718    23257115.2874
  22312263.452   -11151095.697 8  -8652218.81146  22312262.143    22312267.5354
  24094813.068      892702.069 8    723196.26745  24094812.418    24094817.4064
  21254642.635   -14984324.334 9 -11659436.06547  21254642.018    21254645.6414
  20191239.011   -24223028.804 8 -18853065.65448  20191238.297    20191240.7774
  22141266.953   -15823914.877 8 -12305439.05947  22141266.610    22141269.5534
 01  7 19  0 26 30.0000000  0  7 13 11 22 29 01 20 25
  24019383.636    -5633228.417 8  -4377334.03145  24019383.577    24019388.1964
  23274867.265    -6345160.504 8  -4918265.03345  23274866.844    23274872.3874
  22296504.473   -11233907.466 8  -8716747.35446  22296503.362    22296508.8164
  24109553.630      970164.747 7    783556.80845  24109553.125    24109558.3774
  21246642.392   -15026365.610 9 -11692195.44447  21246641.776    21246645.4434
  20189186.273   -24233815.891 8 -18861471.16248  20189185.558    20189188.0744
  22155112.615   -15751154.830 8 -12248742.93547  22155112.335    22155115.4044
 01  7 19  0 27  0.0000000  0  7 13 11 22 29 01 20 25
  24003968.961    -5714233.289 8  -4440454.50845  24003968.699    24003973.4114
  23292655.047    -6251687.085 8  -4845428.75245  23292654.501    23292659.8864
  22280811.865   -11316371.188 8  -8781004.70046  22280810.886    22280816.4684
  24124303.402     1047676.399 7    843955.30445  24124302.613    24124308.5374
  21238681.619   -15068199.592 9 -11724793.32947  21238681.027    21238684.7484
  20187228.290   -24244104.968 9 -18869488.62048  20187227.563    20187230.1384
  22169009.733   -15678124.730 8 -12191836.38947  22169009.514    22169012.5994
 01  7 19  0 27 30.0000000  0  7 13 11 22 29 01 20 25
  23988569.353    -5795156.520 7  -4503511.45845  23988569.439    23988574.4194
  23310471.671    -6158059.160 7  -4772471.99545  23310471.307    23310476.9084
  22265185.686   -11398485.531 8  -8844989.81846  22265184.943    22265190.5744
  24139062.703     1125235.299 7    904390.69645  24139061.824    24139067.5184
  21230760.162   -15109827.680 9 -11757230.77447  21230759.511    21230763.0494
  20185364.965   -24253896.492 8 -18877118.37248  20185364.273    20185366.8304
  22182957.858   -15604827.917 8 -12134722.03347  22182957.618    22182960.4544
 01  7 19  0 28  0.0000000  0  7 13 11 22 29 01 20 25
  23973185.825    -5875997.833 7  -4566504.53845  23973185.670    23973190.6424
  23328317.356    -6064278.973 8  -4699396.60745  23328317.071    23328322.8624
  22249626.739   -11480247.096 8  -8908700.03346  22249626.174    22249631.6944
  24153830.843     1202841.767 7    964863.13345  24153830.211    24153835.6854
  21222877.706   -15151249.484 9 -11789507.45847  21222877.098    21222880.7104
  20183596.689   -24263188.637 8 -18884359.00148  20183596.007    20183598.5534
  22196956.169   -15531266.230 8 -12077401.24847  22196955.927    22196958.9444
 01  7 19  0 28 30.0000000  0  7 13 11 22 29 01 20 25
  23957817.454    -5956756.134 7  -4629432.95945  23957817.429    23957822.7974
  23346192.065    -5970349.277 8  -4626204.76845  23346191.517    23346197.1514
  22234136.056   -11561651.715 8  -8972132.13646  22234135.398    22234140.8164
  24168608.184     1280496.096 7   1025372.92245  24168607.541    24168613.1024
  21215034.663   -15192464.467 9 -11821623.00947  21215034.107    21215037.6664
  20181923.810   -24271979.870 8 -18891209.30348  20181923.105    20181925.6674
  22211004.571   -15457441.183 8 -12019875.27247  22211004.431    22211007.5204
 01  7 19  0 29  0.0000000  0  7 13 11 22 29 01 20 25
  23942465.456    -6037431.410 8  -4692296.71845  23942465.655    23942470.6784
  23364094.372    -5876272.662 8  -4552898.43945  23364093.814    23364099.5654
  22218713.809   -11642695.749 8  -9035283.24546  22218713.065    22218718.4374
  24183393.954     1358198.393 7   1085920.03245  24183393.685    24183399.2284
  21207231.216   -15233472.302 9 -11853577.13647  21207230.640    21207234.1884
  20180346.432   -24280268.984 8 -18897668.34348  20180345.757    20180348.3594
  22225102.860   -15383354.887 8 -11962145.73346  22225102.651    22225105.6164
 01  7 19  0 29 30.0000000  0  7 13 11 22 29 01 20 25
  23927129.059    -6118023.584 7  -4755095.65245  23927129.095    23927134.3034
  23382024.254    -5782052.668 8  -4479480.41445  23382023.622    23382029.1374
  22203360.824   -11723376.498 8  -9098151.28046  22203360.133    22203365.3234
  24198189.088     1435947.694 7   1146503.86245  24198188.942    24198193.7604
  21199466.934   -15274273.417 9 -11885370.18247  21199466.365    21199469.9124
  20178864.696   -24288055.455 8 -18903735.70748  20178864.003    20178866.6264
  22239250.056   -15309010.026 8 -11904214.68746  22239249.848    22239253.0104
 01  7 19  0 30  0.0000000  0  7 13 11 22 29 01 20 25
  23911808.155    -6198532.376 8  -4817829.69945  23911808.438    23911813.7774
  23399980.517    -5687692.056 8  -4405952.79845  23399979.960    23399985.4174
  22188077.291   -11803691.008 8  -9160733.91846  22188076.675    22188081.8874
  24212993.551     1513744.159 8   1207124.48245  24212993.453    24212998.4054
  21191742.046   -15314867.535 9 -11917001.92547  21191741.493    21191745.1144
  20177478.860   -24295337.982 8 -18909410.39848  20177478.212    20177480.7894
  22253446.509   -15234408.085 8 -11846083.32847  22253446.249    22253449.4414
 01  7 19  0 30 30.0000000  0  7 13 11 22 29 01 20 25
  23896504.179    -6278957.987 7  -4880498.88745  23896504.174    23896509.0574
  23417962.652    -5593194.040 8  -4332318.05245  23417962.182    23417967.9774
  22172863.934   -11883636.317 8  -9223028.88146  22172863.516    22172868.8244
  24227806.663     1591587.339 8   1267781.42045  24227806.668    24227811.8814
  21184056.606   -15355254.788 9 -11948472.49847  21184056.073    21184059.6134
  20176189.146   -24302115.797 9 -18914691.79948  20176188.425    20176190.9394
  22267691.074   -15159551.949 8 -11787753.88546  22267690.828    22267694.0684
 01  7 19  0 31  0.0000000  0  7 13 11 22 29 01 20 25
  23881215.475    -6359300.034 8  -4943102.97545  23881215.738    23881220.4214
  23435970.885    -5498561.502 8  -4258578.51445  23435970.435    23435976.1634
  22157721.812   -11963208.662 8  -9285033.22646  22157721.339    22157726.6324
  24242628.537     1669477.467 7   1328474.92445  24242628.648    24242634.1744
  21176410.401   -15395435.110 9 -11979781.80247  21176409.857    21176413.5924
  20174995.589   -24308387.685 9 -18919578.97348  20174994.971    20174997.4424
  22281983.650   -15084443.281 8 -11729227.68146  22281983.533    22281986.6734
 01  7 19  0 31 30.0000000  0  7 13 11 22 29 01 20 25
  23865943.135    -6439558.491 8  -5005641.88845  23865943.161    23865947.5934
  23454003.935    -5403797.493 8  -4184736.57245  23454003.560    23454009.1854
  22142651.472   -12042404.961 8  -9346744.53346  22142650.682    22142656.0164
  24257459.350     1747413.887 7   1389204.48944  24257459.359    24257464.8894
  21168803.778   -15435408.620 9 -12010929.97347  21168803.262    21168806.8474
  20173898.634   -24314152.755 8 -18924071.21848  20173897.931    20173900.3514
  22296324.264   -15009084.743 8 -11670506.77146  22296323.946    22296326.9874
 01  7 19  0 32  0.0000000  0  7 13 11 22 29 01 20 25
  23850686.521    -6519733.017 8  -5068115.47245  23850686.583    23850690.8984
  23472061.699    -5308905.056 8  -4110794.56445  23472061.209    23472066.5744
  22127652.838   -12121222.146 8  -9408160.43346  22127652.135    22127657.4124
  24272299.113     1825396.546 7   1449970.15045  24272299.306    24272304.1254
  21161236.336   -15475175.295 9 -12041916.95647  21161235.771    21161239.4904
  20172898.142   -24319410.082 8 -18928167.81948  20172897.434    20172899.9214
  22310711.688   -14933478.147 8 -11611592.56046  22310711.366    22310714.5764
 01  7 19  0 32 30.0000000  0  7 13 11 22 29 01 20 25
  23835445.999    -6599823.398 8  -5130523.44645  23835445.995    23835450.3114
  23490143.089    -5213887.054 8  -4036754.71045  23490142.623    23490147.9594
  22112726.934   -12199657.659 8  -9469278.92746  22112726.199    22112731.5304
  24287147.645     1903425.150 7   1510771.58245  24287147.867    24287152.8474
  21153708.403   -15514735.125 9 -12072742.76847  21153707.803    21153711.5034
  20171994.346   -24324158.806 8 -18931868.11448  20171993.709    20171996.2754
  22325145.925   -14857625.388 8 -11552486.53746  22325145.623    22325148.8084
 01  7 19  0 33  0.0000000  0  7 13 11 22 29 01 20 25
  23820221.426    -6679828.366 8  -5192864.86145  23820221.324    23820225.8474
  23508247.581    -5118745.458 7  -3962618.55445  23508247.240    23508252.5744
  22097874.887   -12277706.744 8  -9530096.33146  22097873.970    22097879.2184
  24302004.188     1981500.783 7   1571609.63745  24302004.833    24302010.3674
  21146219.992   -15554086.871 9 -12103406.44447  21146219.447    21146223.0724
  20171187.903   -24328396.782 8 -18935170.41848  20171187.198    20171189.8034
  22339626.941   -14781527.685 8 -11493189.65846  22339626.628    22339629.7154
 01  7 19  0 33 30.0000000  0  7 13 11 22 29 01 20 25
  23805013.037    -6759747.730 8  -5255139.63745  23805013.262    23805017.5854
  23526375.115    -5023483.040 8  -3888388.17745  23526375.088    23526380.6654
  22083097.158   -12355365.844 8  -9590609.84346  22083096.041    22083101.0884
  24316871.060     2059623.086 7   1632483.84945  24316871.050    24316876.8204
  21138771.128   -15593230.232 9 -12133907.73547  21138770.564    21138774.2354
  20170478.832   -24332122.995 8 -18938073.96048  20170478.148    20170480.7514
  22354154.063   -14705187.013 8 -11433703.42747  22354153.732    22354157.0504
 01  7 19  0 34  0.0000000  0  7 13 11 22 29 01 20 25
  23789820.675    -6839582.603 7  -5317348.52445  23789820.751    23789825.2694
  23544525.404    -4928104.215 8  -3814067.15245  23544525.255    23544530.6814
  22068393.861   -12432633.224 8  -9650818.12346  22068392.590    22068397.6014
  24331746.278     2137790.712 7   1693393.63545  24331745.903    24331751.0784
  21131361.863   -15632166.657 9 -12164247.76747  21131361.293    21131364.9064
  20169867.170   -24335337.843 8 -18940579.03648  20169866.412    20169869.0114
  22368726.788   -14628607.145 8 -11374030.84146  22368726.483    22368729.7974
 01  7 19  0 34 30.0000000  0  7 13 11 22 29 01 20 25
  23774644.224    -6919331.177 7  -5379490.14145  23774644.486    23774649.4074
  23562697.224    -4832610.590 7  -3739656.67945  23562697.154    23562702.6124
  22053765.659   -12509504.624 8  -9710717.82146  22053764.367    22053769.3444
  24346630.067     2216005.042 7   1754339.84445  24346629.699    24346634.9704
  21123992.249   -15670894.377 9 -12194425.19147  21123991.655    21123995.2214
  20169353.200   -24338038.927 8 -18942683.78248  20169352.448    20169354.9664
  22383345.054   -14551788.326 8 -11314172.06346  22383344.713    22383347.8314
 01  7 19  0 35  0.0000000  0  7 13 11 22 29 01 20 25
  23759485.034    -6998993.337 8  -5441564.45645  23759485.270    23759490.1994
  23580890.522    -4737005.187 8  -3665159.05945  23580890.259    23580896.0424
  22039212.925   -12585977.405 8  -9770306.91846  22039211.922    22039217.0104
  24361522.624     2294265.572 7   1815321.96245  24361522.299    24361527.7864
  21116662.232   -15709413.343 9 -12224439.92047  21116661.669    21116665.2704
  20168937.067   -24340225.608 8 -18944387.69048  20168936.336    20168938.8714
  22398008.051   -14474732.970 8 -11254128.95346  22398007.752    22398010.9014
 01  7 19  0 35 30.0000000  0  7 13 11 22 29 01 20 25
  23744341.986    -7078569.981 8  -5503572.15645  23744342.363    23744346.9984
  23599104.495    -4641291.589 8  -3590577.16745  23599104.078    23599110.0544
  22024736.696   -12662048.643 8  -9829583.12446  22024735.833    22024741.0194
  24376423.735     2372571.565 7   1876339.46345  24376423.423    24376429.2274
  21109371.805   -15747724.494 9 -12254292.73447  21109371.276    21109374.8484
  20168618.864   -24341897.727 8 -18945690.63947  20168618.086    20168620.6684
  22412715.725   -14397444.049 8 -11193903.85446  22412715.400    22412718.5714
 01  7 19  0 36  0.0000000  0  7 13 11 22 29 01 20 25
  23729215.838    -7158061.648 8  -5565513.60745  23729215.906    23729220.0514
  23617338.231    -4545473.992 8  -3515914.26945  23617337.767    23617343.5294
  22010337.633   -12737715.910 8  -9888544.54646  22010336.741    22010341.9534
  24391333.129     2450921.685 7   1937391.40045  24391332.932    24391338.8034
  21102120.800   -15785828.660 9 -12283984.25647  21102120.266    21102123.8564
  20168398.460   -24343055.608 8 -18946592.88547  20168397.729    20168400.2734
  22427467.152   -14319924.640 8 -11133499.16046  22427466.848    22427470.1654
 01  7 19  0 36 30.0000000  0  7 13 11 22 29 01 20 25
  23714105.746    -7237467.107 8  -5627387.91645  23714105.775    23714109.6904
  23635591.531    -4449554.163 7  -3441171.70345  23635590.981    23635596.5894
  21996016.220   -12812975.300 8  -9947188.13646  21996015.255    21996020.4714
  24406251.240     2529317.113 7   1998478.63745  24406251.164    24406257.0184
  21094909.488   -15823724.617 9 -12313513.53247  21094908.929    21094912.4694
  20168276.425   -24343696.935 8 -18947092.61847  20168275.723    20168278.1594
  22442262.126   -14242175.745 8 -11072915.60946  22442261.846    22442265.2924
 01  7 19  0 37  0.0000000  0  7 13 11 22 29 01 20 25
  23699012.088    -7316785.464 8  -5689194.30145  23699011.856    23699015.7444
  23653863.653    -4353534.465 8  -3366351.28345  23653862.942    23653868.8834
  21981772.972   -12887823.688 8 -10005511.47146  21981772.056    21981777.1314
  24421177.971     2607758.060 7   2059601.38445  24421178.149    24421183.9454
  21087737.747   -15861411.780 9 -12342880.11947  21087737.213    21087740.8424
  20168252.995   -24343820.486 8 -18947188.88548  20168252.240    20168254.6764
  22457100.863   -14164198.646 8 -11012154.26646  22457100.592    22457103.8474
 01  7 19  0 37 30.0000000  0  8 13 11 22 29 01 20 04 25
  23683934.473    -7396016.943 8  -5750933.03845  23683934.413    23683938.3714
  23672154.090    -4257418.175 8  -3291455.60145  23672153.438    23672159.3744
  21967608.433   -12962258.205 8 -10063512.31746  21967607.712    21967612.6284
  24436114.001     2686244.029 7   2120759.16545  24436113.701    24436119.3554
  21080605.829   -15898890.546 9 -12372084.32547  21080605.291    21080608.8034
  20168328.008   -24343426.030 8 -18946881.51648  20168327.288    20168329.7904
  24414400.705     -461359.84017   -345245.22944  24414397.494    24414403.8764
  22471982.533   -14085995.606 8 -10951216.87846  22471982.270    22471985.3384
 01  7 19  0 38  0.0000000  0  8 13 11 22 29 01 20 04 25
  23668873.552    -7475160.991 8  -5812603.60745  23668873.531    23668877.8214
  23690462.436    -4161207.967 7  -3216486.73545  23690461.676    23690467.2494
  21953523.492   -13036274.844 8 -10121187.53846  21953522.743    21953527.6784
  24451057.994     2764775.115 7   2181952.14645  24451057.692    24451063.5374
  21073513.508   -15936160.258 9 -12401125.62347  21073513.011    21073516.5704
  20168501.919   -24342512.159 8 -18946169.40748  20168501.167    20168503.6774
  24402394.705     -524435.176 7   -394394.76445  24402395.933    24402402.5004
  22486906.548   -14007569.208 8 -10890105.42546  22486906.329    22486909.3874
 01  7 19  0 38 30.0000000  0  8 13 11 22 29 01 20 04 25
  23653829.268    -7554216.791 8  -5874205.43545  23653829.365    23653833.9784
  23708788.010    -4064906.342 7  -3141446.65245  23708787.358    23708793.1314
  21939518.803   -13109870.015 8 -10178534.36146  21939518.008    21939523.0254
  24466010.457     2843351.877 7   2243180.74944  24466010.632    24466016.1854
  21066461.292   -15973220.330 9 -12430003.57847  21066460.743    21066464.2964
  20168774.916   -24341077.632 8 -18945051.59948  20168774.168    20168776.6304
  24390475.911     -587068.409 7   -443199.84945  24390479.243    24390485.3314
  22501872.800   -13928920.347 8 -10828820.60546  22501872.608    22501875.8744
 01  7 19  0 39  0.0000000  0  8 13 11 22 29 01 20 04 25
  23638802.019    -7633184.280 8  -5935738.41045  23638802.138    23638806.7754
  23727130.199    -3968516.172 7  -3066337.58145  23727129.789    23727135.3614
  21925594.790   -13183041.226 8 -10235550.79646  21925593.987    21925598.9194
  24480971.774     2921973.920 7   2304444.60544  24480972.276    24480977.3674
  21059448.728   -16010070.710 9 -12458718.12447  21059448.267    21059451.8434
  20169147.028   -24339121.954 8 -18943527.69248  20169146.341    20169148.8134
  24378642.111     -649258.190 7   -491659.35645  24378644.136    24378650.6864
  22516881.122   -13850051.180 8 -10767364.15546  22516880.907    22516884.1344
 01  7 19  0 39 30.0000000  0  8 13 11 22 29 01 20 04 25
  23623791.329    -7712065.013 8  -5997203.78945  23623791.459    23623796.0754
  23745488.867    -3872042.309 8  -2991163.28145  23745488.400    23745493.8644
  21911751.671   -13255787.618 8 -10292236.21946  21911750.781    21911755.6094
  24495942.044     3000639.274 7   2365742.20644  24495941.733    24495946.9054
  21052475.982   -16046713.338 9 -12487270.79647  21052475.425    21052478.9104
  20169618.165   -24336646.197 8 -18941598.52348  20169617.474    20169619.9234
  24366892.927     -711004.613 7   -539773.39845  24366894.191    24366900.3624
  22531930.531   -13770966.146 8 -10705739.50846  22531930.299    22531933.4774
 01  7 19  0 40  0.0000000  0  8 13 11 22 29 01 20 04 25
  23608797.740    -7790858.149 8  -6058600.89545  23608797.859    23608802.2344
  23763862.941    -3775487.243 7  -2915925.68445  23763862.351    23763867.9834
  21897990.029   -13328104.971 8 -10348587.31246  21897989.158    21897993.9444
  24510920.109     3079348.413 7   2427073.91844  24510919.473    24510924.8794
  21045542.715   -16083147.400 9 -12515660.95747  21045542.234    21045545.7514
  20170188.564   -24333648.911 8 -18939262.97848  20170187.860    20170190.2454
  24355228.236     -772304.846 7   -587539.77845  24355229.005    24355235.2354
  22547020.659   -13691666.493 8 -10643947.59246  22547020.483    22547023.7274
 01  7 19  0 40 30.0000000  0  8 13 11 22 29 01 20 04 25
  23593820.944    -7869561.879 8  -6119928.30045  23593820.948    23593825.6584
  23782251.968    -3678851.826 8  -2840625.51845  23782251.320    23782257.2264
  21884311.048   -13399988.304 8 -10404600.22246  21884310.108    21884314.9684
  24525906.975     3158102.947 7   2488440.95444  24525905.629    24525911.3574
  21038649.518   -16119371.083 9 -12543887.17347  21038649.026    21038652.5464
  20170858.562   -24330127.691 8 -18936519.16848  20170857.856    20170860.2984
  24343649.198     -833155.237 7   -634955.60145  24343649.332    24343655.4894
  22562151.793   -13612152.374 8 -10581988.56046  22562151.528    22562154.8564
 01  7 19  0 41  0.0000000  0  8 13 11 22 29 01 20 04 25
  23578860.825    -7948177.399 8  -6181187.00645  23578860.875    23578865.4584
  23800655.905    -3582140.632 7  -2765266.32045  23800655.028    23800660.8644
  21870714.710   -13471436.333 8 -10460273.92346  21870713.920    21870718.7634
  24540902.141     3236901.271 7   2549842.05344  24540900.437    24540906.1464
  21031796.285   -16155385.639 9 -12571950.43547  21031795.701    21031799.2174
  20171628.014   -24326083.295 8 -18933367.68148  20171627.393    20171629.9714
  24332155.914     -893555.753 7   -682020.87345  24332155.769    24332161.5714
  22577322.939   -13532427.482 8 -10519865.28246  22577322.765    22577326.2134
 01  7 19  0 41 30.0000000  0  7 13 11 22 01 20 04 25
  23563917.682    -8026702.284 8  -6242375.09445  23563917.610    23563922.1084
  23819073.698    -3485354.665 7  -2689848.77145  23819072.929    23819079.0934
  21857202.291   -13542444.558 8 -10515604.93546  21857201.494    21857206.3444
  21024983.065   -16191188.982 9 -12599849.13447  21024982.527    21024985.9854
  20172497.678   -24321513.111 8 -18929806.51148  20172497.101    20172499.6634
  24320748.705     -953502.408 7   -728732.49445  24320748.575    24320753.9904
  22592534.407   -13452491.590 8 -10457577.61546  22592534.144    22592537.6244
 01  7 19  0 42  0.0000000  0  7 13 11 22 01 20 04 25
  23548992.091    -8105136.404 8  -6303492.43645  23548992.123    23548996.3684
  23837505.233    -3388496.777 7  -2614375.29545  23837504.339    23837510.3914
  21843774.010   -13613009.642 8 -10570590.61746  21843773.340    21843778.1664
  21018210.164   -16226780.784 9 -12627582.98147  21018209.596    21018213.0794
  20173467.651   -24316416.284 8 -18925834.95348  20173466.989    20173469.5454
  24309428.238    -1012993.080 7   -775088.80945  24309428.113    24309433.1784
  22607785.287   -13372346.976 8 -10395127.30346  22607785.096    22607788.5984
 01  7 19  0 42 30.0000000  0  7 13 11 22 01 20 04 25
  23534083.498    -8183481.008 8  -6364540.05245  23534083.453    23534087.8154
  23855949.501    -3291571.340 8  -2538849.11845  23855948.779    23855955.0464
  21830430.366   -13683129.947 8 -10625229.73446  21830429.718    21830434.5504
  21011477.150   -16262162.602 9 -12655153.19947  21011476.617    21011480.1404
  20174537.509   -24310794.065 9 -18921453.99948  20174536.889    20174539.4314
  24298194.058    -1072027.971 7   -821089.95145  24298194.011    24298198.9904
  22623075.188   -13291997.331 8 -10332517.20446  22623074.981    22623078.5344
 01  7 19  0 43  0.0000000  0  7 13 11 22 01 20 04 25
  23519192.108    -8261736.025 8  -6425517.85545  23519192.132    23519196.2334
  23874406.421    -3194581.411 7  -2463272.74045  23874405.462    23874411.6274
  21817172.289   -13752802.254 8 -10679519.77346  21817171.497    21817176.2654
  21004784.274   -16297334.295 9 -12682559.70847  21004783.721    21004787.1274
  20175707.516   -24304645.775 8 -18916663.12648  20175706.879    20175709.3994
  24287047.546    -1130604.937 7   -866734.27245  24287047.158    24287052.3664
  22638403.891   -13211444.422 8 -10269748.72146  22638403.749    22638407.3114
 01  7 19  0 43 30.0000000  0  7 13 11 22 01 20 04 25
  23504317.639    -8339901.185 8  -6486425.62845  23504317.599    23504321.8884
  23892874.859    -3097530.059 7  -2387648.45345  23892874.028    23892880.1134
  21803999.909   -13822024.442 8 -10733459.05446  21803998.935    21804003.7424
  20998131.096   -16332296.138 9 -12709802.67347  20998130.587    20998134.2204
  20176977.733   -24297970.868 9 -18911461.89848  20176977.089    20176979.5574
  24275988.020    -1188722.500 7   -912020.62245  24275987.843    24275992.9794
  22653771.147   -13130690.626 8 -10206823.74046  22653770.841    22653774.2814
 01  7 19  0 44  0.0000000  0  7 13 11 22 01 20 04 25
  23489460.606    -8417974.590 8  -6547261.94145  23489460.655    23489464.8764
  23911354.232    -3000418.524 7  -2311977.23245  23911353.554    23911360.3144
  21790913.807   -13890792.000 8 -10787044.08046  21790912.736    21790917.5864
  20991518.411   -16367046.063 9 -12736880.52347  20991517.925    20991521.4134
  20178348.538   -24290767.108 8 -18905848.57248  20178347.911    20178350.4144
  24265016.220    -1246377.200 7   -956946.31845  24265016.448    24265021.6774
  22669176.152   -13049736.287 8 -10143742.47146  22669175.936    22669179.3774
 01  7 19  0 44 30.0000000  0  7 13 11 22 01 20 04 25
  23474621.059    -8495957.319 8  -6608027.57745  23474620.909    23474625.1444
  23929844.750    -2903250.899 8  -2236262.41745  23929844.253    23929850.8244
  21777914.534   -13959102.896 8 -10840273.25746  21777913.554    21777918.3794
  20984945.736   -16401585.356 9 -12763794.23747  20984945.225    20984948.7694
  20179819.828   -24283035.174 8 -18899823.67448  20179819.192    20179821.7894
  24254133.072    -1303568.381 7  -1001510.82345  24254133.173    24254138.3994
  22684618.671   -12968584.946 8 -10080507.69246  22684618.425    22684621.9804
 01  7 19  0 45  0.0000000  0  7 13 11 22 01 20 04 25
  23459798.574    -8573849.106 8  -6668722.39145  23459798.669    23459802.7324
  23948345.542    -2806029.843 7  -2160505.92545  23948345.024    23948351.5254
  21765002.791   -14026953.675 8 -10893143.91746  21765001.893    21765006.6934
  20978413.278   -16435913.665 9 -12790543.55147  20978412.767    20978416.3254
  20181391.819   -24274774.214 8 -18893386.55848  20181391.184    20181393.7874
  24243338.270    -1360294.427 7  -1045712.88045  24243338.515    24243343.7634
  22700098.475   -12887238.237 8 -10017120.68846  22700098.199    22700101.6234
 01  7 19  0 45 30.0000000  0  7 13 11 22 01 20 04 25
  23444993.664    -8651649.300 8  -6729345.82645  23444993.669    23444997.5164
  23966855.801    -2708758.258 7  -2084710.03145  23966855.132    23966861.7204
  21752179.048   -14094341.614 8 -10945653.90946  21752178.320    21752183.0494
  20971920.946   -16470030.741 9 -12817128.26647  20971920.491    20971923.9944
  20183064.566   -24265983.864 8 -18886536.92748  20183063.886    20183066.5434
  24232632.750    -1416553.144 7  -1089550.78645  24232632.817    24232638.1964
  22715615.020   -12805698.045 8  -9953582.91546  22715614.837    22715618.1344
 01  7 19  0 46  0.0000000  0  7 13 11 22 01 20 04 25
  23430206.113    -8729356.837 8  -6789897.05345  23430206.156    23430209.9524
  23985374.966    -2611437.952 7  -2008876.26245  23985374.661    23985381.2844
  21739444.288   -14161263.430 8 -10997800.70246  21739443.537    21739448.2894
  20965468.998   -16503935.595 9 -12843547.61447  20965468.538    20965472.0804
  20184838.341   -24256662.722 9 -18879273.68848  20184837.668    20184840.3004
  24222016.039    -1472342.431 7  -1133022.88345  24222016.108    24222021.7624
  22731168.308   -12723965.568 8  -9889895.28746  22731168.070    22731171.3464
 01  7 19  0 46 30.0000000  0  7 13 11 22 01 20 04 25
  23415436.109    -8806972.336 8  -6850376.56745  23415436.241    23415440.1544
  24003903.107    -2514072.495 7  -1933007.21545  24003902.664    24003909.5724
  21726798.464   -14227716.771 8 -11049582.45546  21726797.741    21726802.5464
  20959057.482   -16537628.606 9 -12869801.88547  20959056.977    20959060.5134
  20186713.016   -24246810.990 9 -18871597.02148  20186712.390    20186714.9654
  24211488.773    -1527660.850 7  -1176128.07045  24211489.065    24211495.1824
  22746757.804   -12642043.255 8  -9826059.77046  22746757.507    22746760.7014
 01  7 19  0 47  0.0000000  0  7 13 11 22 01 20 04 25
  23400683.779    -8884495.861 8  -6910784.40445  23400683.883    23400687.8204
  24022438.970    -2416665.484 7  -1857105.80745  24022438.632    24022445.6734
  21714242.465   -14293698.947 8 -11100997.05546  21714241.743    21714246.4774
  20952686.081   -16571110.141 9 -12895891.38047  20952685.608    20952689.1834
  20188688.864   -24236428.324 9 -18863506.62548  20188688.192    20188690.7434
  24201051.820    -1582507.455 7  -1218865.64745  24201052.050    24201058.1804
  22762382.672   -12559934.363 8  -9762078.83846  22762382.440    22762385.6644
 01  7 19  0 47 30.0000000  0  7 13 11 22 01 20 04 25
  23385949.208    -8961926.382 8  -6971119.77245  23385949.235    23385953.0614
  24040982.623    -2319219.126 7  -1781173.80945  24040982.283    24040989.0054
  21701776.729   -14359206.283 8 -11152041.64646  21701776.083    21701780.7664
  20946355.285   -16604379.393 9 -12921815.44347  20946354.720    20946358.2174
  20190765.795   -24225513.846 9 -18855001.84248  20190765.174    20190767.7214
  24190705.389    -1636879.870 7  -1261233.71945  24190705.572    24190711.2474
  22778042.981   -12477639.729 8  -9697953.20346  22778042.659    22778045.8384
 01  7 19  0 48  0.0000000  0  7 13 11 22 01 20 04 25
  23371232.231    -9039264.363 8  -7031383.05645  23371232.362    23371236.0974
  24059533.089    -2221736.855 7  -1705213.77245  24059532.693    24059539.4044
  21689401.814   -14424237.022 8 -11202714.87946  21689401.061    21689405.7464
  20940064.607   -16637436.990 9 -12947574.57947  20940064.075    20940067.5304
  20192943.911   -24214067.871 8 -18846082.89248  20192943.216    20192945.7674
  24180449.348    -1690777.086 7  -1303231.50545  24180449.273    24180454.9274
  22793737.893   -12395161.786 8  -9633684.72446  22793737.534    22793740.7364
 01  7 19  0 48 30.0000000  0  7 13 11 22 01 20 04 25
  23356533.031    -9116508.740 8  -7091573.37645  23356533.129    23356536.8534
  24078089.870    -2124220.514 7  -1629227.17345  24078089.336    24078096.5184
  21677118.072   -14488787.750 8 -11253014.07946  21677117.424    21677122.0894
  20933814.493   -16670281.640 9 -12973167.78747  20933813.952    20933817.3514
  20195223.385   -24202089.071 8 -18836748.76848  20195222.688    20195225.2584
  24170284.252    -1744196.485 7  -1344856.93445  24170283.911    24170289.4744
  22809467.421   -12312501.789 8  -9569274.37846  22809467.235    22809470.4304
 01  7 19  0 49  0.0000000  0  7 13 11 22 01 20 04 25
  23341851.395    -9193659.567 8  -7151690.78745  23341851.633    23341855.6284
  24096653.048    -2026673.394 7  -1553216.62645  24096652.374    24096659.4574
  21664926.260   -14552855.780 8 -11302937.13346  21664925.594    21664930.3474
  20927604.745   -16702913.855 9 -12998595.45447  20927604.211    20927607.6644
  20197604.160   -24189577.587 8 -18826999.56648  20197603.490    20197606.1704
  24160209.968    -1797136.958 7  -1386109.19945  24160209.754    24160215.2434
  22825231.329   -12229661.993 8  -9504723.93746  22825231.131    22825234.3494
 01  7 19  0 49 30.0000000  0  7 13 11 22 01 20 04 25
  23327187.947    -9270716.893 8  -7211735.38545  23327188.183    23327192.1084
  24115221.074    -1929098.822 7  -1477184.70045  24115220.189    24115227.3164
  21652826.947   -14616438.284 8 -11352481.86846  21652826.151    21652830.9774
  20921435.447   -16735333.647 9 -13023857.61547  20921434.912    20921438.3204
  20200086.369   -24176533.212 8 -18816835.12448  20200085.742    20200088.3614
  24150227.046    -1849597.333 7  -1426987.37345  24150226.757    24150232.1644
  22841028.992   -12146645.098 8  -9440035.49746  22841028.845    22841032.0274
 01  7 19  0 50  0.0000000  0  7 13 11 22 01 20 04 25
  23312542.341    -9347679.711 8  -7271706.33145  23312542.444    23312546.3894
  24133794.048    -1831498.794 7  -1401132.98145  24133793.241    24133800.1274
  21640820.787   -14679531.640 8 -11401645.46746  21640819.822    21640824.5354
  20915306.737   -16767539.871 9 -13048953.33947  20915306.255    20915309.6474
  20202670.386   -24162954.653 8 -18806254.43848  20202669.693    20202672.2954
  24140336.111    -1901574.890 7  -1467489.30645  24140335.793    24140341.0004
  22856860.138   -12063451.990 8  -9375209.73946  22856859.965    22856863.3764
 01  7 19  0 50 30.0000000  0  7 13 11 22 01 20 04 25
  23297914.375    -9424547.864 8  -7331603.50045  23297914.520    23297918.7834
  24152370.932    -1733876.402 7  -1325063.73945  24152370.392    24152377.4304
  21628907.985   -14742134.125 8 -11450426.55646  21628906.999    21628911.5674
  20909218.702   -16799532.876 9 -13073882.93047  20909218.160    20909221.6244
  20205355.976   -24148841.942 8 -18795257.51947  20205355.254    20205357.9034
  24130536.831    -1953068.917 7  -1507614.46945  24130536.766    24130542.1024
  22872724.350   -11980085.257 8  -9310248.69746  22872724.083    22872727.5484
 01  7 19  0 51  0.0000000  0  7 13 11 22 01 20 04 25
  23283305.190    -9501320.054 8  -7391425.89445  23283305.423    23283309.4974
  24170951.640    -1636233.526 7  -1248978.61845  24170951.130    24170958.7914
  21617089.244   -14804241.901 8 -11498822.13846  21617088.211    21617092.5934
  20903171.485   -16831311.222 9 -13098645.24847  20903170.966    20903174.3164
  20208143.435   -24134193.679 9 -18783843.30448  20208142.764    20208145.2794
  24120830.481    -2004076.205 7  -1547360.33045  24120830.427    24120835.5684
  22888621.228   -11896545.789 8  -9245153.04646  22888621.107    22888624.5274
 01  7 19  0 51 30.0000000  0  7 13 11 22 01 20 04 25
  23268714.025    -9577996.409 8  -7451173.62145  23268714.155    23268718.4844
  24189535.844    -1538573.633 7  -1172880.16045  24189535.273    24189543.2424
  21605365.023   -14865852.270 8 -11546830.15046  21605364.038    21605368.5324
  20897164.860   -16862875.339 9 -13123240.63747  20897164.384    20897167.7914
  20211032.654   -24119010.286 8 -18772012.09348  20211032.014    20211034.5334
  24111216.992    -2054596.072 7  -1586726.39045  24111216.792    24111221.9104
  22904550.815   -11812836.023 8  -9179924.68846  22904550.619    22904554.0074
 01  7 19  0 52  0.0000000  0  7 13 11 22 01 20 04 25
  23254140.616    -9654578.078 8  -7510847.57245  23254140.904    23254145.4884
  24208122.999    -1440900.427 8  -1096771.42445  24208122.214    24208129.8504
  21593735.841   -14926963.621 8 -11594449.30046  21593734.869    21593739.2704
  20891199.125   -16894226.323 9 -13147669.94047  20891198.574    20891201.9414
  20214023.632   -24103292.473 9 -18759764.45048  20214023.033    20214025.5394
  24101696.009    -2104628.184 7  -1625712.35645  24101695.774    24101700.9424
  22920512.216   -11728959.025 8  -9114566.03746  22920511.980    22920515.3534
 01  7 19  0 52 30.0000000  0  7 13 11 22 01 20 04 25
  23239585.871    -9731063.727 8  -7570446.72945  23239586.219    23239590.6464
  24226712.118    -1343215.801 7  -1020653.77245  24226711.347    24226718.7974
  21582202.224   -14987572.522 8 -11641676.94646  21582201.303    21582205.8304
  20885273.893   -16925363.081 9 -13171932.33547  20885273.376    20885276.7684
  20217116.578   -24087039.087 8 -18747099.48548  20217115.982    20217118.3864
  24092268.346    -2154170.188 7  -1664316.45845  24092268.150    24092273.3304
  22936505.251   -11644915.593 8  -9049077.70346  22936504.998    22936508.3454
 01  7 19  0 53  0.0000000  0  7 13 11 22 01 20 04 25
  23225049.690    -9807452.903 8  -7629970.67745  23225049.874    23225054.3274
  24245302.628    -1245522.504 7   -944529.33345  24245301.668    24245309.1264
  21570764.841   -15047676.858 8 -11688511.41046  21570763.851    21570768.1694
  20879389.634   -16956285.230 9 -13196027.48347  20879389.070    20879392.5184
  20220311.495   -24070250.030 8 -18734017.09548  20220310.830    20220313.3224
  24082934.112    -2203220.453 7  -1702537.38745  24082934.071    24082939.6474
  22952529.625   -11560707.616 8  -8983461.12546  22952529.344    22952532.6524
 01  7 19  0 53 30.0000000  0  7 13 11 22 01 20 04 25
  23210531.243    -9883745.060 8  -7689419.03245  23210531.633    23210536.2884
  24263894.271    -1147823.208 7   -868400.24845  24263893.316    24263900.9914
  21559423.872   -15107273.182 8 -11734950.05046  21559422.902    21559427.4314
  20873546.291   -16986992.147 9 -13219954.93547  20873545.775    20873549.1754
  20223608.495   -24052924.375 8 -18720516.59548  20223607.837    20223610.3024
  24073693.837    -2251777.110 7  -1740373.66445  24073693.829    24073699.4984
  22968584.766   -11476336.907 8  -8917717.76846  22968584.540    22968587.8694
 01  7 19  0 54  0.0000000  0  7 13 11 22 01 20 04 25
  23196032.355    -9959939.822 8  -7748791.54345  23196032.640    23196036.5004
  24282486.615    -1050120.590 7   -792268.52245  24282486.044    24282493.4994
  21548180.150   -15166358.545 8 -11780990.50146  21548179.297    21548183.7604
  20867743.876   -17017483.692 9 -13243714.55447  20867743.302    20867746.7244
  20227007.639   -24035062.106 8 -18706597.93848  20227006.895    20227009.3734
  24064547.765    -2299838.848 7  -1777824.29345  24064547.831    24064553.5744
  22984670.593   -11391805.471 8  -8851849.17246  22984670.383    22984673.5494
 01  7 19  0 54 30.0000000  0  7 13 11 22 01 20 04 25
  23181551.478   -10036037.431 8  -7808088.28445  23181551.796    23181555.6374
  24301078.965     -952417.708 7   -716136.68845  24301078.343    24301085.9314
  21537034.101   -15224930.545 8 -11826630.96246  21537033.332    21537037.8014
  20861982.498   -17047759.947 9 -13267306.42147  20861982.000    20861985.3844
  20230508.713   -24016663.292 9 -18692261.20548  20230508.090    20230510.6384
  24055496.480    -2347404.368 7  -1814888.29945  24055496.596    24055502.0794
  23000786.672   -11307115.542 8  -8785857.05346  23000786.357    23000789.5264
 01  7 19  0 55  0.0000000  0  7 13 11 22 01 20 04 25
  23167088.974   -10112037.741 8  -7867309.22945  23167089.268    23167093.1244
  24319670.649     -854718.128 7   -640007.35045  24319669.924    24319677.7624
  21525986.205   -15282987.944 8 -11871870.42046  21525985.320    21525989.7404
  20856261.960   -17077821.446 9 -13290730.93647  20856261.381    20856264.7974
  20234111.971   -23997728.389 8 -18677506.74648  20234111.296    20234113.8304
  24046539.544    -2394473.137 7  -1851565.22545  24046539.697    24046545.1244
  23016932.363   -11222269.555 8  -8719743.34846  23016932.010    23016935.2584
 01  7 19  0 55 30.0000000  0  7 13 11 22 01 20 04 25
  23152645.460   -10187939.500 8  -7926453.40046  23152645.857    23152649.4634
  24338261.394     -757023.298 7   -563881.75545  24338260.912    24338268.7134
  21515037.115   -15340526.878 8 -11916705.88846  21515036.050    21515040.4374
  20850582.558   -17107666.699 9 -13313986.96247  20850582.072    20850585.3654
  20237817.430   -23978256.034 8 -18662333.48548  20237816.741    20237819.3254
  24037677.595    -2441042.419 7  -1887852.92345  24037677.562    24037683.2884
  23033107.573   -11137268.233 8  -8653508.60546  23033107.281    23033110.6394
 01  7 19  0 56  0.0000000  0  7 13 11 22 01 20 04 25
  23138220.561   -10263742.595 8  -7985520.67146  23138220.823    23138224.6244
  24356850.403     -659336.434 7   -487762.37245  24356849.983    24356858.2404
  21504187.100   -15397544.704 8 -11961135.31246  21504185.862    21504190.1694
  20844944.377   -17137295.769 9 -13337074.52747  20844943.806    20844947.1894
  20241625.097   -23958246.657 8 -18646741.78047  20241624.375    20241626.9574
  24028910.924    -2487111.176 7  -1923750.62145  24028911.121    24028916.2204
  23049311.926   -11052113.939 8  -8587154.61546  23049311.604    23049315.1034
 01  7 19  0 56 30.0000000  0  7 13 11 22 01 20 04 25
  23123814.302   -10339447.390 8  -8044511.33746  23123814.567    23123818.6254
  24375437.789     -561660.690 7   -411651.64545  24375437.506    24375445.4774
  21493436.612   -15454039.147 8 -12005156.89046  21493435.275    21493439.5124
  20839347.113   -17166708.912 9 -13359993.84047  20839346.660    20839349.9914
  20245534.791   -23937700.512 8 -18630731.79847  20245534.099    20245536.7614
  24020239.928    -2532678.515 7  -1959257.61045  24020240.045    24020244.8034
  23065544.816   -10966809.188 8  -8520683.43546  23065544.446    23065548.0594
 01  7 19  0 57  0.0000000  0  7 13 11 22 01 20 04 25
  23109427.219   -10415052.445 8  -8103424.30646  23109427.486    23109430.9674
  24394022.627     -463997.839 7   -335550.94545  24394022.159    24394030.2714
  21482786.203   -15510006.906 8 -12048768.08947  21482784.947    21482789.1624
  20833791.336   -17195904.957 9 -13382744.00247  20833790.827    20833794.1284
  20249546.955   -23916616.389 9 -18614302.62448  20249546.281    20249548.9144
  24011664.535    -2577742.162 7  -1994372.08645  24011664.520    24011669.4854
  23081806.027   -10881354.570 8  -8454095.46746  23081805.798    23081809.5954
 01  7 19  0 57 30.0000000  0  7 13 11 22 01 20 04 25
  23095058.737   -10490558.034 8  -8162259.75346  23095059.004    23095062.5894
  24412604.021     -366351.450 7   -259463.12045  24412603.656    24412611.4664
  21472236.095   -15565446.810 8 -12091967.94047  21472235.041    21472239.1274
  20828276.716   -17224884.523 9 -13405325.45447  20828276.204    20828279.4894
  20253661.440   -23894995.089 9 -18597454.86748  20253660.692    20253663.3294
  24003185.371    -2622301.641 8  -2029093.71545  24003185.230    24003190.1444
  23098095.779   -10795752.466 8  -8387392.58346  23098095.411    23098099.1464
 01  7 19  0 58  0.0000000  0  7 13 11 22 01 20 04 25
  23080709.471   -10565963.564 8  -8221017.22846  23080709.717    23080713.5264
  24431182.028     -268723.769 7   -183389.87045  24431181.734    24431189.9074
  21461787.070   -15620355.573 8 -12134753.92247  21461786.175    21461790.2924
  20822803.365   -17253646.681 9 -13427737.51947  20822802.903    20822806.2044
  20257878.121   -23872835.923 9 -18580187.98848  20257877.433    20257880.0734
  23994802.513    -2666354.888 7  -2063420.88145  23994802.304    23994806.9744
  23114412.949   -10710004.613 8  -8320576.11946  23114412.795    23114416.4284
 01  7 19  0 58 30.0000000  0  7 13 11 22 01 20 04 25
  23066379.405   -10641268.725 8  -8279696.48346  23066379.558    23066383.4524
  24449756.125     -171117.489 7   -107333.25545  24449756.146    24449763.9234
  21451439.761   -15674730.270 8 -12177123.74547  21451438.898    21451443.0654
  20817371.578   -17282191.375 9 -13449980.11247  20817371.034    20817374.2984
  20262197.289   -23850139.009 9 -18562502.09048  20262196.603    20262199.1864
  23986515.952    -2709900.965 8  -2097352.81945  23986515.751    23986520.4574
  23130757.583   -10624113.060 8  -8253647.67246  23130757.389    23130761.2164
 01  7 19  0 59  0.0000000  0  7 13 11 22 01 20 04 25
  23052068.295   -10716473.015 8  -8338297.15646  23052068.466    23052072.3614
  24468325.556      -73535.648 7    -31295.71445  24468325.600    24468333.6434
  21441194.784   -15728568.534 8 -12219075.57047  21441193.851    21441198.0224
  20811980.975   -17310518.474 9 -13472053.15947  20811980.456    20811983.7944
  20266618.703   -23826904.245 9 -18544397.08048  20266618.062    20266620.6294
  23978326.140    -2752938.489 8  -2130888.52145  23978325.961    23978330.5444
  23147129.365   -10538079.445 8  -8186608.53446  23147129.096    23147132.9044
 01  7 19  0 59 30.0000000  0  7 13 11 22 01 20 04 25
  23037776.199   -10791576.746 8  -8396819.45545  23037776.469    23037780.3234
  24486889.889       24018.542 7     44720.24345  24486889.637    24486897.9784
  21431052.329   -15781869.123 8 -12260608.45847  21431051.132    21431055.1854
  20806631.884   -17338628.323 9 -13493956.92247  20806631.329    20806634.6454
  20271142.426   -23803132.488 9 -18525873.64248  20271141.731    20271144.2854
  23970233.454    -2795466.967 7  -2164027.54145  23970233.233    23970237.6694
  23163527.674   -10451906.601 8  -8119460.89146  23163527.304    23163531.1954
 01  7 19  1  0  0.0000000  0  7 13 11 22 01 20 04 25
  23023503.903   -10866578.989 8  -8455262.68446  23023504.049    23023508.0854
  24505448.221      121542.958 7    120713.09545  24505448.072    24505456.4354
  21421012.485   -15834629.093 8 -12301720.06947  21421011.193    21421015.3334
  20801324.202   -17366519.845 9 -13515690.54947  20801323.683    20801327.1494
  20275768.348   -23778822.919 8 -18506931.12347  20275767.668    20275770.2444
  23962237.860    -2837484.413 7  -2196768.35745  23962237.579    23962241.7214
  23179952.058   -10365595.577 8  -8052205.59946  23179951.892    23179955.6824
 01  7 19  1  0 30.0000000  0  7 13 11 22 01 20 04 25
  23009251.085   -10941479.191 8  -8513626.37546  23009251.197    23009255.2734
  24524000.328      219035.130 7    196680.76445  24524000.118    24524008.9194
  21411075.831   -15886845.373 8 -12342408.02046  21411074.632    21411078.7954
  20796058.310   -17394192.606 9 -13537253.72347  20796057.779    20796061.1384
  20280496.595   -23753975.408 9 -18487569.43547  20280495.955    20280498.5384
  23954338.998    -2878989.550 7  -2229109.98445  23954339.146    23954343.7024
  23196402.742   -10279147.887 8  -7984843.78746  23196402.484    23196406.3044
 01  7 19  1  1  0.0000000  0  7 13 11 22 01 20 04 25
  22995017.252   -11016277.386 8  -8571910.60646  22995017.401    22995021.5994
  24542546.010      316492.123 7    272621.00445  24542545.728    24542554.2924
  21401242.978   -15938515.646 8 -12382670.52947  21401241.938    21401246.2214
  20790833.945   -17421646.783 9 -13558646.57347  20790833.386    20790836.7644
  20285327.128   -23728590.486 8 -18467788.98347  20285326.501    20285329.1144
  23946538.304    -2919981.388 7  -2261051.60645  23946538.377    23946543.0644
  23212878.929   -10192565.773 8  -7917377.25546  23212878.679    23212882.4224
 01  7 19  1  1 30.0000000  0  7 13 11 22 01 20 04 25
  22980802.991   -11090972.870 8  -8630114.81346  22980803.191    22980807.0874
  24561084.722      413911.438 7    348531.75644  24561084.404    24561093.3054
  21391514.630   -15989637.575 8 -12422505.73647  21391513.723    21391518.0034
  20785651.256   -17448881.825 9 -13579868.64947  20785650.724    20785654.0814
  20290260.090   -23702667.825 9 -18447589.51647  20290259.426    20290262.0444
  23938835.526    -2960458.533 7  -2292592.20545  23938835.769    23938840.4364
  23229380.232   -10105851.124 8  -7849807.46946  23229379.975    23229383.7444
 01  7 19  1  2  0.0000000  0  7 13 11 22 01 20 04 25
  22966608.962   -11165564.375 8  -8688237.98746  22966609.098    22966612.8504
  24579614.913      511290.944 7    424411.70244  24579614.897    24579623.9094
  21381891.374   -16040208.443 8 -12461911.55747  21381890.455    21381894.5404
  20780510.478   -17475896.689 9 -13600919.18847  20780509.972    20780513.2804
  20295295.548   -23676206.916 9 -18426970.63247  20295294.790    20295297.4224
  23931230.861    -3000419.037 7  -2323730.19445  23931231.244    23931236.2924
  23245906.395   -10019004.884 8  -7782135.11046  23245906.114    23245909.9634
 01  7 19  1  2 30.0000000  0  7 13 11 22 01 20 04 25
  22952434.364   -11240051.883 8  -8746280.12746  22952434.490    22952438.4644
  24598138.177      608627.894 7    500258.43245  24598138.012    24598147.3704
  21372373.250   -16090226.317 8 -12500886.45847  21372372.305    21372376.3774
  20775411.625   -17502691.481 9 -13621798.20047  20775411.083    20775414.3584
  20300433.161   -23649208.253 9 -18405932.72348  20300432.453    20300435.0554
  23923725.385    -3039862.479 7  -2354465.30845  23923725.639    23923730.4854
  23262457.326    -9932029.328 8  -7714362.00146  23262456.956    23262460.8534
 01  7 19  1  3  0.0000000  0  7 13 11 22 01 20 04 25
  22938279.513   -11314435.899 8  -8804241.58846  22938279.679    22938283.6814
  24616651.829      705918.806 7    576069.25544  24616651.766    24616661.2314
  21362960.465   -16139688.944 8 -12539428.69247  21362959.781    21362963.9214
  20770354.393   -17529266.590 9 -13642506.06747  20770353.923    20770357.3074
  20305673.060   -23621672.565 8 -18384476.34747  20305672.336    20305674.9294
  23916318.059    -3078788.155 7  -2384796.96645  23916318.228    23916323.0584
  23279032.262    -9844926.853 8  -7646490.00846  23279031.982    23279035.9254
 01  7 19  1  3 30.0000000  0  7 13 11 22 01 20 04 25
  22924144.725   -11388715.305 8  -8862121.59446  22924144.924    22924148.3774
  24635157.343      803161.590 7    651842.57345  24635157.224    24635166.4404
  21353654.107   -16188593.246 8 -12577535.88847  21353653.463    21353657.6564
  20765339.464   -17555620.933 9 -13663041.90047  20765338.935    20765342.1534
  20311015.218   -23593599.332 8 -18362601.11547  20311014.487    20311017.1114
  23909009.423    -3117194.167 7  -2414723.69345  23909009.727    23909014.5564
  23295631.281    -9757698.234 8  -7578519.69846  23295631.000    23295635.0584
 01  7 19  1  4  0.0000000  0  7 13 11 22 01 20 04 25
  22910029.885   -11462890.777 8  -8919920.57046  22910029.927    22910033.1074
  24653651.687      900352.680 7    727575.57244  24653651.654    24653661.1094
  21344454.399   -16236938.792 8 -12615207.69647  21344453.633    21344457.7324
  20760366.073   -17581755.380 9 -13683406.39547  20760365.638    20760368.9644
  20316459.455   -23564989.843 8 -18340308.01447  20316458.718    20316461.3424
  23901799.959    -3155080.740 8  -2444245.67445  23901800.318    23901804.8774
  23312253.784    -9670346.672 8  -7510453.61146  23312253.502    23312257.4564
 01  7 19  1  4 30.0000000  0  7 13 11 22 01 20 04 25
  22895934.636   -11536960.673 8  -8977637.28846  22895934.754    22895938.0484
  24672137.168      997490.816 7    803267.38545  24672136.963    24672145.9944
  21335361.467   -16284722.269 8 -12652441.52547  21335360.748    21335364.8354
  20755435.143   -17607668.427 9 -13703598.36048  20755434.642    20755437.8454
  20322005.874   -23535842.944 9 -18317596.15647  20322005.179    20322007.8244
  23894689.418    -3192445.594 7  -2473361.12245  23894689.701    23894694.6914
  23328899.712    -9582872.591 8  -7442292.03146  23328899.329    23328903.3784
 01  7 19  1  5  0.0000000  0  6 13 22 01 20 04 25
  22881861.956   -11610913.779 8  -9035262.99746  22881861.967    22881865.2024
  21326377.825   -16331930.134 8 -12689226.83747  21326377.316    21326381.5424
  20750548.159   -17633349.049 9 -13723609.20547  20750547.635    20750550.9014
  20327656.568   -23506148.056 9 -18294457.29447  20327655.926    20327658.5914
  23887680.552    -3229276.805 7  -2502060.66745  23887680.634    23887685.9954
  23345570.569    -9495266.801 8  -7374027.83646  23345570.338    23345574.2644
 01  7 19  1  5 30.0000000  0  6 13 22 01 20 04 25
  22867808.505   -11684764.340 8  -9092808.80946  22867808.616    22867811.6044
  21317501.729   -16378574.747 8 -12725573.22647  21317501.112    21317505.2364
  20745702.748   -17658811.720 9 -13743450.22047  20745702.279    20745705.5314
  20333408.809   -23475920.277 9 -18270903.19647  20333408.105    20333410.7194
  23880770.800    -3265587.993 7  -2530355.07245  23880771.156    23880776.3094
  23362263.308    -9407546.045 8  -7305674.05446  23362263.062    23362266.9544
 01  7 19  1  6  0.0000000  0  6 13 22 01 20 04 25
  22853774.548   -11758511.908 8  -9150274.37246  22853774.721    22853777.6764
  21308733.138   -16424654.011 8 -12761479.09047  21308732.421    21308736.5154
  20740898.891   -17684055.953 9 -13763121.04347  20740898.415    20740901.6924
  20339262.416   -23445159.758 9 -18246933.97247  20339261.682    20339264.2514
  23873960.081    -3301378.274 8  -2558243.58445  23873960.341    23873965.6074
  23378977.397    -9319712.003 8  -7237232.01246  23378977.160    23378981.2414
 01  7 19  1  6 30.0000000  0  6 13 22 01 20 04 25
  22839760.820   -11832154.554 8  -9207658.17546  22839760.943    22839764.0014
  21300073.004   -16470164.631 8 -12796941.85647  21300072.057    21300076.0294
  20736136.979   -17709079.930 9 -13782620.20648  20736136.521    20736139.7084
  20345217.516   -23413865.344 9 -18222548.72747  20345216.760    20345219.3714
  23867249.065    -3336645.203 7  -2585724.25145  23867249.098    23867254.5914
  23395713.492    -9231764.969 8  -7168701.89846  23395713.055    23395717.2174
 01  7 19  1  7  0.0000000  0  6 13 22 01 20 04 25
  22825767.194   -11905690.372 8  -9264958.73046  22825767.320    22825770.7244
  21291521.679   -16515102.933 8 -12831958.67347  21291520.677    21291524.5854
  20731417.386   -17733881.674 9 -13801946.24848  20731416.929    20731420.1674
  20351274.484   -23382035.588 9 -18197746.33847  20351273.766    20351276.3354
  23860638.308    -3371386.066 7  -2612795.02345  23860638.374    23860643.4064
  23412470.409    -9143705.182 8  -7100083.96546  23412470.214    23412474.3664
 01  7 19  1  7 30.0000000  0  6 13 22 01 20 04 25
  22811794.091   -11979118.838 8  -9322175.66446  22811794.214    22811797.6814
  21283079.302   -16559466.377 8 -12866527.55047  21283078.412    21283082.3834
  20726740.068   -17758461.157 9 -13821099.07048  20726739.547    20726742.7424
  20357433.295   -23349670.973 9 -18172527.17648  20357432.563    20357435.1634
  23854127.662    -3405600.013 7  -2639455.22845  23854127.711    23854132.6074
  23429249.138    -9055534.157 8  -7031379.30146  23429248.708    23429252.8144
 01  7 19  1  8  0.0000000  0  6 13 22 01 20 04 25
  22797841.835   -12052439.183 8  -9379308.36446  22797841.932    22797844.9864
  21274747.043   -16603252.460 8 -12900646.52947  21274746.219    21274750.1844
  20722105.194   -17782817.427 9 -13840077.96747  20722104.705    20722107.8924
  20363693.961   -23316771.253 9 -18146891.04147  20363693.248    20363695.8564
  23847717.596    -3439285.947 7  -2665703.97845  23847717.459    23847722.4314
  23446048.253    -8967253.797 8  -6962589.44646  23446047.979    23446051.9554
 01  7 19  1  8 30.0000000  0  6 13 22 01 20 04 25
  22783909.829   -12125651.496 8  -9436356.84546  22783909.858    22783913.1254
  21266525.151   -16646459.841 8 -12934314.56247  21266524.141    21266527.9244
  20717512.779   -17806950.751 9 -13858883.14148  20717512.265    20717515.5234
  20370056.162   -23283337.356 8 -18120838.66747  20370055.454    20370058.1364
  23841407.769    -3472443.373 7  -2691540.92045  23841407.756    23841412.4854
  23462868.059    -8878866.014 8  -6893715.91046  23462867.715    23462871.7624
 01  7 19  1  9  0.0000000  0  6 13 22 01 20 04 25
  22769998.668   -12198754.242 8  -9493319.95846  22769998.758    22770002.2394
  21258413.793   -16689085.785 8 -12967529.55247  21258412.698    21258416.5754
  20712963.049   -17830859.547 9 -13877513.35347  20712962.564    20712965.6924
  20376520.177   -23249368.532 9 -18094369.46847  20376519.479    20376522.2354
  23835198.748    -3505070.279 7  -2716964.43845  23835198.796    23835203.8854
  23479707.924    -8790371.296 8  -6824759.04345  23479707.756    23479711.6764
 01  7 19  1  9 30.0000000  0  6 13 22 01 20 04 25
  22756108.750   -12271746.229 8  -9550196.78446  22756108.753    22756112.2104
  21250413.319   -16731127.249 8 -13000289.08947  21250412.416    21250416.2724
  20708456.321   -17854542.786 9 -13895967.81548  20708455.815    20708459.0034
  20383085.974   -23214864.714 8 -18067483.39247  20383085.264    20383088.1144
  23829091.365    -3537165.075 8  -2741973.30145  23829091.473    23829096.5324
  23496568.068    -8701771.069 8  -6755719.95046  23496567.794    23496571.7864
 01  7 19  1 10  0.0000000  0  6 13 22 01 20 04 25
  22742239.634   -12344629.035 8  -9606988.52346  22742239.495    22742242.9284
  21242524.259   -16772583.761 8 -13032592.82247  21242523.397    21242527.4014
  20703992.202   -17878002.111 9 -13914247.79348  20703991.675    20703994.8204
  20389753.134   -23179828.095 9 -18040182.14547  20389752.498    20389755.3464
  23823084.902    -3568728.881 8  -2766568.48445  23823085.091    23823090.0884
  23513447.593    -8613068.605 8  -6686601.18145  23513447.339    23513451.1224
 01  7 19  1 10 30.0000000  0  6 13 22 01 20 04 25
  22728391.718   -12417400.544 8  -9663693.53346  22728391.622    22728394.8724
  21234747.271   -16813452.214 8 -13064438.31447  21234746.441    21234750.2854
  20699570.944   -17901235.775 9 -13932351.92248  20699570.406    20699573.5074
  20396521.994   -23144257.722 9 -18012464.98347  20396521.332    20396524.1544
  23817179.867    -3599759.554 7  -2790748.20045  23817179.961    23817184.9604
  23530346.654    -8524264.152 8  -6617402.97445  23530346.360    23530350.0014
 01  7 19  1 11  0.0000000  0  6 13 22 01 20 04 25
  22714564.977   -12490061.277 8  -9720312.24346  22714564.844    22714568.2244
  21227082.274   -16853731.762 8 -13095824.95547  21227081.397    21227085.3704
  20695192.558   -17924244.264 9 -13950280.61848  20695192.057    20695195.2414
  20403392.190   -23108154.665 9 -17984332.74747  20403391.536    20403394.3244
  23811376.283    -3630257.093 8  -2814512.47445  23811376.537    23811381.3444
  23547264.359    -8435360.082 8  -6548127.13545  23547264.158    23547267.7374
 01  7 19  1 11 30.0000000  0  6 13 22 01 20 04 25
  22700759.085   -12562610.263 8  -9776843.85846  22700759.042    22700762.6024
  21219529.864   -16893420.119 8 -13126750.90647  21219528.926    21219532.8124
  20690857.173   -17947026.845 9 -13968033.27548  20690856.618    20690859.8674
  20410363.747   -23071519.017 9 -17955785.50547  20410363.090    20410365.8424
  23805674.247    -3660220.177 8  -2837860.31045  23805674.584    23805679.8444
  23564201.006    -8346357.997 8  -6478774.90145  23564200.614    23564204.2624
 01  7 19  1 12  0.0000000  0  6 13 22 01 20 04 25
  22686974.714   -12635046.943 8  -9833287.98246  22686974.764    22686978.0814
  21212090.430   -16932514.627 8 -13157214.11247  21212089.526    21212093.4024
  20686564.830   -17969582.870 9 -13985609.37448  20686564.319    20686567.4934
  20417436.644   -23034351.026 9 -17926823.44448  20417435.973    20417438.7134
  23800074.285    -3689647.740 8  -2860790.83345  23800074.610    23800079.8994
  23581155.630    -8257259.405 8  -6409347.48445  23581155.376    23581159.1544
 01  7 19  1 12 30.0000000  0  6 13 22 01 20 04 25
  22673211.967   -12707371.949 8  -9889645.07146  22673211.932    22673214.9874
  21204763.862   -16971014.962 8 -13187214.33447  21204762.988    21204766.9484
  20682315.496   -17991913.541 9 -14003009.87748  20682314.951    20682318.1774
  20424610.447   -22996652.821 9 -17897448.24247  20424609.777    20424612.4144
  23794576.475    -3718540.820 8  -2883304.91045  23794576.767    23794581.6724
  23598128.272    -8168067.464 8  -6339847.32745  23598128.105    23598131.8234
 01  7 19  1 13  0.0000000  0  6 13 22 01 20 04 25
  22659470.165   -12779583.978 8  -9945914.11546  22659470.216    22659473.5024
  21197551.039   -17008918.225 8 -13216749.30047  21197550.232    21197554.1684
  20678109.261   -18014017.210 9 -14020233.50648  20678108.743    20678111.9664
  20431885.321   -22958423.593 9 -17867659.24747  20431884.600    20431887.2074
  23789180.390    -3746897.485 7  -2905400.96445  23789180.673    23789185.5404
  23615119.230    -8078782.308 8  -6270274.52345  23615118.883    23615122.3644
 01  7 19  1 13 30.0000000  0  6 13 22 01 20 04 25
  22645750.272   -12851681.671 8 -10002094.04846  22645750.373    22645753.7134
  21190452.394   -17046222.122 8 -13245817.25747  21190451.485    21190455.3914
  20673946.506   -18035892.585 9 -14037279.23447  20673945.995    20673949.1264
  20439261.326   -22919663.030 9 -17837456.23347  20439260.604    20439263.0824
  23783886.611    -3774716.277 8  -2927077.89645  23783886.928    23783891.7634
  23632127.215    -7989404.800 8  -6200629.76945  23632126.998    23632130.6074
 01  7 19  1 14  0.0000000  0  6 13 22 01 20 04 25
  22632052.187   -12923666.389 8 -10058186.01046  22632052.336    22632055.3004
  21183467.790   -17082926.716 8 -13274418.17547  21183466.811    21183470.6344
  20669826.883   -18057541.424 9 -14054148.44348  20669826.357    20669829.5094
  20446737.757   -22880374.025 9 -17806841.44247  20446737.068    20446739.5024
  23778695.182    -3801998.407 8  -2948336.65545  23778695.302    23778700.0404
  23649152.279    -7899938.675 8  -6130915.97945  23649152.022    23649155.6334
 01  7 19  1 14 30.0000000  0  6 13 22 01 20 04 25
  22618375.795   -12995536.636 8 -10114188.73546  22618375.785    22618378.7424
  21176597.646   -17119028.611 8 -13302549.48047  21176596.827    21176600.6884
  20665750.594   -18078962.139 9 -14070839.87848  20665750.069    20665753.2494
  20454315.012   -22840555.683 9 -17775814.18747  20454314.283    20454316.7244
  23773605.750    -3828742.208 8  -2969175.93645  23773605.855    23773610.7254
  23666194.125    -7810384.301 8  -6061133.38945  23666193.795    23666197.4784
 01  7 19  1 15  0.0000000  0  6 13 22 01 20 04 25
  22604720.968   -13067290.728 8 -10170100.93146  22604721.028    22604724.4024
  21169842.892   -17154525.021 8 -13330208.98947  21169841.973    21169845.8114
  20661718.057   -18100153.198 9 -14087352.37648  20661717.560    20661720.6564
  20461992.941   -22800207.637 9 -17744374.17547  20461992.178    20461994.7314
  23768619.465    -3854946.065 8  -2989594.47145  23768619.497    23768624.3804
  23683252.129    -7720742.815 8  -5991282.93545  23683251.856    23683255.7994
 01  7 19  1 15 30.0000000  0  6 13 22 01 20 04 25
  22591088.727   -13138929.502 8 -10225923.29846  22591088.765    22591091.8764
  21163203.538   -17189415.975 8 -13357396.69147  21163202.520    21163206.2554
  20657728.986   -18121115.672 9 -14103686.75648  20657728.482    20657731.7054
  20469771.316   -22759331.677 9 -17712522.79847  20469770.563    20469773.2184
  23763735.719    -3880610.464 8  -3009592.68545  23763735.967    23763740.2674
  23700326.529    -7631016.700 8  -5921366.55545  23700326.305    23700330.3274
 01  7 19  1 16  0.0000000  0  6 13 22 01 20 04 25
  22577478.632   -13210452.133 8 -10281655.17446  22577478.527    22577481.5784
  21156679.477   -17223699.900 8 -13384111.40947  21156678.477    21156682.1904
  20653783.573   -18141849.058 9 -14119842.63148  20653783.093    20653786.2164
  20477650.003   -22717928.613 9 -17680260.69047  20477649.248    20477652.0474
  23758954.591    -3905734.873 8  -3029170.08945  23758954.768    23758959.3144
  23717416.596    -7541207.427 8  -5851385.36545  23717416.404    23717420.3894
 01  7 19  1 16 30.0000000  0  6 13 22 01 20 04 25
  22563890.340   -13281857.526 8 -10337295.66046  22563890.254    22563893.5914
  21150271.313   -17257374.304 8 -13410351.15947  21150270.383    21150274.2084
  20649881.883   -18162352.631 9 -14135819.41948  20649881.325    20649884.4574
  20485628.958   -22675998.551 9 -17647587.92647  20485628.245    20485631.1754
  23754276.457    -3930318.291 8  -3048325.95845  23754276.646    23754281.1684
  23734522.298    -7451316.535 8  -5781340.59445  23734521.902    23734526.3224
 01  7 19  1 17  0.0000000  0  6 13 22 01 20 04 25
  22550324.477   -13353145.974 8 -10392845.04046  22550324.495    22550327.6634
  21143979.532   -17290437.034 8 -13436114.29147  21143978.658    21143982.4264
  20646023.954   -18182625.895 9 -14151616.75248  20646023.455    20646026.6474
  20493708.069   -22633542.201 9 -17614505.08547  20493707.471    20493710.3754
  23749701.559    -3954360.180 7  -3067059.87045  23749701.714    23749706.4014
  23751643.095    -7361344.969 7  -5711232.95145  23751642.800    23751647.1484
 01  7 19  1 17 30.0000000  0  6 13 22 01 20 04 25
  22536781.280   -13424316.558 8 -10448302.57246  22536781.271    22536784.4134
  21137804.574   -17322886.995 8 -13461399.93547  21137803.683    21137807.3654
  20642210.001   -18202668.408 9 -14167234.28348  20642209.456    20642212.6264
  20501887.336   -22590560.263 9 -17581012.68047  20501886.729    20501889.6134
  23745229.502    -3977860.060 8  -3085371.38845  23745229.581    23745234.3484
  23768778.967    -7271294.922 8  -5641064.15545  23768778.777    23768783.3124
 01  7 19  1 18  0.0000000  0  6 13 22 01 20 04 25
  22523260.427   -13495369.051 8 -10503668.12246  22523260.460    22523263.4114
  21131746.272   -17354723.334 8 -13486207.44147  21131745.407    21131749.1344
  20638439.892   -18222480.106 9 -14182671.96548  20638439.396    20638442.5944
  20510166.429   -22547053.811 9 -17547111.57547  20510165.787    20510168.5994
  23740860.769    -4000817.786 8  -3103260.52245  23740860.824    23740865.5564
  23785929.439    -7181167.720 8  -5570835.24445  23785929.343    23785933.9434
 01  7 19  1 18 30.0000000  0  6 13 22 01 20 04 25
  22509762.346   -13566303.793 8 -10558941.87946  22509762.186    22509764.9614
  21125805.039   -17385945.041 8 -13510535.98247  21125804.101    21125807.8434
  20634713.606   -18242061.545 9 -14197930.21948  20634713.125    20634716.2764
  20518545.056   -22503024.458 9 -17512803.01047  20518544.397    20518547.0844
  23736594.906    -4023234.041 7  -3120727.69245  23736594.948    23736599.9804
  23803094.360    -7090966.529 8  -5500548.66645  23803094.390    23803098.9234
 01  7 19  1 19  0.0000000  0  6 13 22 01 20 04 25
  22496286.520   -13637118.106 8 -10614121.81746  22496286.535    22496289.5884
  21119981.386   -17416548.084 8 -13534382.50647  21119980.512    21119984.3244
  20631031.785   -18261409.951 9 -14213006.89548  20631031.274    20631034.4104
  20527023.358   -22458470.650 9 -17478085.78247  20527022.728    20527025.3834
  23732432.594    -4045105.822 8  -3137770.56645  23732432.670    23732437.6604
  23820273.503    -7000690.688 8  -5430203.95645  23820273.516    23820278.0584
 01  7 19  1 19 30.0000000  0  6 13 22 01 20 04 25
  22482833.927   -13707812.740 8 -10669208.50346  22482833.918    22482836.4824
  21114275.494   -17446532.534 8 -13557746.98747  21114274.542    21114278.3464
  20627393.939   -18280526.723 9 -14227903.07748  20627393.463    20627396.6334
  20535601.026   -22413394.877 9 -17442961.83547  20535600.360    20535602.9624
  23728373.953    -4066434.473 8  -3154390.28945  23728374.167    23728379.0714
  23837466.323    -6910343.035 7  -5359803.24445  23837466.306    23837470.6874
 01  7 19  1 20  0.0000000  0  6 13 22 01 20 04 25
  22469403.951   -13778386.961 8 -10724201.36846  22469403.915    22469406.4684
  21108687.466   -17475896.946 8 -13580628.32047  21108686.621    21108690.4654
  20623800.428   -18299411.003 9 -14242618.09248  20623799.910    20623803.0284
  20544277.757   -22367797.777 9 -17407431.64447  20544277.123    20544279.9004
  23724418.873    -4087219.335 8  -3170586.25445  23724418.896    23724423.6364
  23854671.984    -6819924.774 7  -5289347.57845  23854672.034    23854676.6644
 01  7 19  1 20 30.0000000  0  6 13 22 01 20 04 25
  22455997.132   -13848839.511 8 -10779099.37946  22455997.187    22455999.8564
  21103218.071   -17504639.266 8 -13603024.92047  21103217.157    21103220.8754
  20620251.324   -18318061.578 9 -14257150.99948  20620250.817    20620253.9674
  20553053.875   -22321679.295 9 -17371495.18747  20553053.187    20553056.0114
  23720567.644    -4107459.088 7  -3186357.42445  23720567.514    23720572.4434
  23871891.598    -6729436.678 8  -5218837.42745  23871891.593    23871895.9444
 01  7 19  1 21  0.0000000  0  6 13 22 01 20 04 25
  22442613.395   -13919170.385 8 -10833902.64146  22442613.522    22442616.2034
  21097867.056   -17532758.386 8 -13624935.86747  21097866.191    21097869.9984
  20616746.593   -18336478.975 9 -14271502.21448  20616746.104    20616749.2274
  20561928.894   -22275040.834 9 -17335153.56347  20561928.233    20561931.0954
  23716819.486    -4127154.422 8  -3201704.38845  23716819.707    23716824.6934
  23889123.911    -6638881.201 8  -5148274.81645  23889123.744    23889128.0454
 01  7 19  1 21 30.0000000  0  6 13 22 01 20 04 25
  22429253.110   -13989379.299 8 -10888610.82846  22429253.181    22429255.8624
  21092635.050   -17560252.422 8 -13646359.77947  21092634.222    21092638.0114
  20613286.465   -18354662.297 9 -14285671.02648  20613285.949    20613289.0234
  20570902.747   -22227883.169 9 -17298407.35447  20570902.091    20570904.9524
  23713175.243    -4146304.444 8  -3216626.48445  23713175.320    23713180.5734
  23906368.586    -6548259.564 7  -5077660.61645  23906368.505    23906372.7174
 01  7 19  1 22  0.0000000  0  6 13 22 01 20 04 25
  22415915.941   -14059465.996 8 -10943223.79746  22415915.975    22415918.8274
  21087522.327   -17587121.097 8 -13667296.36247  21087521.353    21087525.0314
  20609870.732   -18372611.922 9 -14299657.73848  20609870.204    20609873.3074
  20579975.149   -22180207.961 9 -17261257.88447  20579974.500    20579977.2184
  23709634.868    -4164910.011 8  -3231124.26845  23709634.882    23709639.8474
  23923625.672    -6457574.272 8  -5006996.79345  23923625.379    23923629.4924
 01  7 19  1 22 30.0000000  0  6 13 22 01 20 04 25
  22402602.348   -14129429.188 8 -10997740.50346  22402602.431    22402605.2644
  21082528.512   -17613362.545 8 -13687744.21647  21082527.700    21082531.5164
  20606499.732   -18390326.437 9 -14313461.25048  20606499.228    20606502.3564
  20589145.965   -22132015.115 9 -17223705.03947  20589145.341    20589147.9914
  23706198.192    -4182969.770 8  -3245196.77145  23706198.201    23706203.2434
  23940894.546    -6366825.944 8  -4936283.88145  23940894.344    23940898.3694
 01  7 19  1 23  0.0000000  0  6 13 22 01 20 04 25
  22389312.467   -14199267.998 8 -11052160.32946  22389312.501    22389315.4644
  21077654.586   -17638975.113 8 -13707702.02247  21077653.734    21077657.4604
  20603173.569   -18407805.301 9 -14327081.13648  20603173.100    20603176.2634
  20598415.186   -22083305.599 9 -17185749.58747  20598414.444    20598417.1014
  23702865.403    -4200483.327 8  -3258843.68945  23702865.346    23702870.3714
  23958174.889    -6276015.719 7  -4865522.75345  23958174.772    23958179.2764
 01  7 19  1 23 30.0000000  0  6 13 22 01 20 04 25
  22376046.213   -14268982.323 8 -11106483.11846  22376046.256    22376049.3094
  21072900.820   -17663957.509 8 -13727168.80947  21072899.855    21072903.4384
  20599892.243   -18425048.614 9 -14340517.47048  20599891.802    20599894.9384
  20607782.375   -22034080.722 9 -17147392.56547  20607781.630    20607784.2494
  23699636.724    -4217450.805 8  -3272065.08945  23699636.554    23699641.4474
  23975467.000    -6185145.327 8  -4794714.69245  23975466.889    23975471.8584
 01  7 19  1 24  0.0000000  0  6 13 22 01 20 04 25
  22362803.599   -14338571.281 8 -11160708.23846  22362803.743    22362806.9194
  21068266.705   -17688308.203 8 -13746143.33547  21068265.913    21068269.5924
  20596655.986   -18442055.661 9 -14353769.71448  20596655.482    20596658.6034
  20617247.417   -21984341.030 9 -17108634.39247  20617246.727    20617249.3664
  23696511.849    -4233871.755 7  -3284860.58445  23696511.627    23696516.7434
  23992770.379    -6094216.105 7  -4723860.87445  23992770.111    23992774.9854
 01  7 19  1 24 30.0000000  0  7 27 13 22 01 20 04 25
  24503430.145                                    24503431.178    24503433.0384
  22349585.349   -14408034.154 8 -11214835.11046  22349585.444    22349588.5574
  21063753.453   -17712025.986 8 -13764624.69747  21063752.597    21063756.2914
  20593464.686   -18458825.642 9 -14366837.23148  20593464.251    20593467.4544
  20626810.474   -21934087.181 9 -17069475.56847  20626809.757    20626812.4254
  23693490.711    -4249745.905 8  -3297230.02445  23693490.798    23693495.8384
  24010084.916    -6003229.412 8  -4652962.21945  24010084.374    24010088.9414
 01  7 19  1 25  0.0000000  0  6 13 22 01 20 04 25
  22336390.677   -14477370.862 8 -11268863.66846  22336390.849    22336394.0904
  21059360.598   -17735111.059 8 -13782613.04347  21059359.659    21059363.3594
  20590318.540   -18475359.114 9 -14379720.45448  20590318.049    20590321.1784
  20636470.975   -21883321.190 9 -17029917.68147  20636470.269    20636472.9054
  23690573.945    -4265073.896 8  -3309173.89845  23690573.957    23690579.1214
  24027409.569    -5912187.780 7  -4582020.76145  24027409.131    24027413.8454
 01  7 19  1 25 30.0000000  0  6 13 22 01 20 04 25
  22323220.397   -14546580.391 8 -11322793.11846  22323220.636    22323223.8494
  21055088.383   -17757560.725 8 -13800106.24547  21055087.577    21055091.2804
  20587217.588   -18491654.668 9 -14392418.27748  20587217.106    20587220.2464
  20646228.869   -21832043.196 9 -16989960.83547  20646228.174    20646230.8854
  23687761.418    -4279854.698 8  -3320691.39445  23687761.314    23687766.2884
  24044744.573    -5821091.645 8  -4511036.84245  24044744.199    24044748.9254
 01  7 19  1 26  0.0000000  0  6 13 22 01 20 04 25
  22310074.493   -14615662.288 8 -11376623.10546  22310074.707    22310078.0554
  21050937.342   -17779373.804 8 -13817103.42947  21050936.640    21050940.4514
  20584161.989   -18507711.983 9 -14404930.45848  20584161.482    20584164.6444
  20656083.918   -21780254.515 9 -16949606.03647  20656083.181    20656086.0934
  23685052.963    -4294088.480 8  -3331782.64345  23685052.809    23685057.8044
  24062089.922    -5729942.737 7  -4440011.74345  24062089.393    24062094.0044
 01  7 19  1 26 30.0000000  0  6 13 22 01 20 04 25
  22296953.113   -14684616.022 8 -11430353.23746  22296953.390    22296956.6424
  21046907.985   -17800549.759 8 -13833604.15947  21046907.039    21046910.7634
  20581151.739   -18523531.025 9 -14417256.98348  20581151.235    20581154.3324
  20666035.796   -21727956.437 9 -16908854.32147  20666035.122    20666038.0344
  23682448.177    -4307775.569 8  -3342447.85445  23682448.213    23682452.9214
  24079444.364    -5638742.904 7  -4368947.05545  24079444.058    24079449.1034
 01  7 19  1 27  0.0000000  0  6 13 22 01 20 04 25
  22283856.236   -14753440.366 8 -11483982.54546  22283856.487    22283859.7704
  21042999.655   -17821087.199 8 -13849607.29747  21042998.835    21043002.5534
  20578186.990   -18539110.659 9 -14429396.93648  20578186.478    20578189.6444
  20676084.505   -21675149.409 9 -16867706.00647  20676083.905    20676086.8664
  23679947.499    -4320915.077 8  -3352686.41645  23679947.793    23679952.7974
  24096808.730    -5547492.885 7  -4297843.17745  24096808.447    24096813.6114
 01  7 19  1 27 30.0000000  0  6 13 22 01 20 04 25
  22270783.849   -14822134.968 8 -11537510.73146  22270784.127    22270787.1894
  21039213.031   -17840985.209 8 -13865112.25447  21039212.276    21039216.1524
  20575267.872   -18554450.768 9 -14441350.26148  20575267.349    20575270.4954
  20686229.954   -21621834.695 9 -16826162.10047  20686229.341    20686232.3614
  23677551.645    -4333507.216 8  -3362498.46445  23677551.752    23677556.3584
  24114182.452    -5456194.202 8  -4226701.43645  24114182.198    24114186.9724
 01  7 19  1 28  0.0000000  0  6 13 22 01 20 04 25
  22257736.231   -14890700.582 8 -11590938.43246  22257736.540    22257739.5404
  21035548.540   -17860243.810 8 -13880118.89747  21035547.543    21035551.2584
  20572394.121   -18569552.334 9 -14453117.70048  20572393.578    20572396.7334
  20696471.486   -21568015.100 9 -16784224.78647  20696470.861    20696473.8574
  23675259.199    -4345553.650 8  -3371885.26045  23675259.379    23675264.1014
  24131564.822    -5364850.150 7  -4155524.33545  24131564.436    24131569.0834
 01  7 19  1 28 30.0000000  0  6 13 22 01 20 04 25
  22244714.040   -14959134.178 8 -11644263.23546  22244714.215    22244717.1564
  21032005.822   -17878859.573 8 -13894624.67747  21032004.986    21032008.7734
  20569566.320   -18584412.435 9 -14464696.98448  20569565.786    20569568.9884
  20706809.411   -21513689.194 9 -16741892.94847  20706808.814    20706811.7664
  23673071.156    -4357051.745 8  -3380844.80045  23673071.443    23673076.0434
  24148955.325    -5273459.209 7  -4084310.69745  24148955.318    24148959.9544
 01  7 19  1 29  0.0000000  0  6 13 22 01 20 04 25
  22231716.295   -15027437.572 8 -11697486.59846  22231716.403    22231719.2774
  21028585.437   -17896834.071 8 -13908630.74647  21028584.633    21028588.3114
  20566784.140   -18599032.779 9 -14476089.45448  20566783.632    20566786.8154
  20717243.015   -21458860.273 9 -16699169.14547  20717242.401    20717245.3914
  23670986.978    -4368004.014 7  -3389379.01845  23670987.117    23670991.8284
  24166355.062    -5182025.353 7  -4013063.52945  24166355.020    24166359.1274
 01  7 19  1 29 30.0000000  0  6 13 22 01 20 04 25
  22218743.707   -15095608.077 8 -11750606.41546  22218743.854    22218746.8424
  21025287.619   -17914164.740 8 -13922135.17047  21025286.687    21025290.3294
  20564048.050   -18613410.939 9 -14487293.19448  20564047.516    20564050.7474
  20727772.388   -21403527.795 9 -16656052.95347  20727771.812    20727774.8654
  23669007.013    -4378408.447 8  -3397486.34645  23669007.188    23669011.5854
  24183762.749    -5090548.049 7  -3941782.66345  24183762.699    24183767.1894
 01  7 19  1 30  0.0000000  0  6 13 22 01 20 04 25
  22205796.215   -15163646.422 8 -11803623.23846  22205796.377    22205799.4744
  21022112.026   -17930851.793 8 -13935138.03747  21022111.215    21022114.8964
  20561357.810   -18627547.930 9 -14498309.00748  20561357.339    20561360.5614
  20738397.281   -21347694.179 9 -16612546.26147  20738396.627    20738399.6674
  23667130.884    -4388266.481 8  -3405167.92445  23667131.137    23667135.8494
  24201178.620    -4999030.148 8  -3870470.03045  24201178.373    24201182.5904
 01  7 19  1 30 30.0000000  0  6 13 22 01 20 04 25
  22192874.479   -15231551.470 8 -11856536.20246  22192874.533    22192877.4394
  21019059.528   -17946893.615 9 -13947638.13447  21019058.598    21019062.1584
  20558713.716   -18641442.968 9 -14509136.28948  20558713.199    20558716.4064
  20749117.334   -21291360.444 9 -16568649.88647  20749116.666    20749119.5944
  23665359.041    -4397578.119 8  -3412423.74945  23665359.122    23665363.9704
  24218601.518    -4907472.667 7  -3799126.57545  24218600.981    24218605.1254
 01  7 19  1 31  0.0000000  0  6 13 22 01 20 04 25
  22179978.422   -15299321.436 8 -11909343.92546  22179978.500    22179981.2324
  21016129.834   -17962288.168 8 -13959633.88447  21016129.037    21016132.7244
  20556115.913   -18655094.183 9 -14519773.57748  20556115.407    20556118.6654
  20759932.449   -21234526.405 9 -16524363.65247  20759931.818    20759934.6924
  23663691.400    -4406342.092 8  -3419252.81645  23663691.508    23663696.2564
  24236031.288    -4815875.999 8  -3727752.64645  24236031.334    24236035.5684
 01  7 19  1 31 30.0000000  0  6 13 22 01 20 04 25
  22167107.808   -15366956.597 8 -11962046.58146  22167107.921    22167110.5424
  21013323.510   -17977036.051 8 -13971125.72647  21013322.609    21013326.3134
  20553564.521   -18668502.091 9 -14530221.28748  20553563.994    20553567.1394
  20770842.288   -21177194.117 9 -16479689.17547  20770841.765    20770844.6234
  23662127.489    -4414559.457 8  -3425655.95245  23662127.581    23662132.3134
  24253469.022    -4724242.086 7  -3656349.60745  24253468.903    24253472.9794
 01  7 19  1 32  0.0000000  0  6 13 22 01 20 04 25
  22154263.103   -15434455.699 8 -12014643.24646  22154263.182    22154265.8204
  21010640.381   -17991135.767 8 -13982112.47047  21010639.497    21010643.1644
  20551059.588   -18681665.488 9 -14540478.45348  20551059.058    20551062.2184
  20781846.941   -21119364.280 9 -16434626.99747  20781846.387    20781849.3034
  23660667.559    -4422229.803 7  -3431632.83745  23660667.651    23660673.0074
  24270913.282    -4632571.561 7  -3584918.13345  24270913.086    24270917.5064
 01  7 19  1 32 30.0000000  0  6 13 22 01 20 04 25
  22141444.423   -15501819.004 8 -12067134.05846  22141444.477    22141446.9174
  21008080.530   -18004587.141 8 -13992594.09147  21008079.699    21008083.5504
  20548601.094   -18694585.046 9 -14550545.61548  20548600.590    20548603.6704
  20792945.987   -21061039.316 9 -16389179.00047  20792945.343    20792948.2934
  23659312.087    -4429354.402 8  -3437184.47145  23659312.178    23659317.0174
  24288363.945    -4540867.241 7  -3513460.30045  24288363.986    24288368.4284
 01  7 19  1 33  0.0000000  0  6 13 22 01 20 04 25
  22128651.611   -15569045.407 8 -12119518.23246  22128651.733    22128653.9214
  21005644.537   -18017388.895 8 -14002569.42547  21005643.646    21005647.3594
  20546189.179   -18707259.686 9 -14560421.94848  20546188.680    20546191.7244
  20804138.929   -21002220.081 9 -16343345.85547  20804138.265    20804141.3324
  23658060.145    -4435932.799 8  -3442310.49945  23658060.156    23658064.9874
  24305820.903    -4449129.621 7  -3441976.51945  24305820.971    24305825.7494
 01  7 19  1 33 30.0000000  0  6 13 22 01 20 04 25
  22115885.037   -15636134.514 8 -12171795.41546  22115885.201    22115887.2804
  21003331.996   -18029540.854 8 -14012038.48247  21003331.176    21003334.9444
  20543823.892   -18719689.138 9 -14570107.22148  20543823.407    20543826.5044
  20815425.669   -20942907.999 9 -16297128.68547  20815425.031    20815428.1074
  23656912.190    -4441965.830 7  -3447011.54945  23656912.231    23656917.0064
  24323284.263    -4357360.668 7  -3370468.30645  24323284.050    24323288.4764
 01  7 19  1 34  0.0000000  0  6 13 22 01 20 04 25
  22103144.688   -15703085.586 8 -12223965.03246  22103144.732    22103146.9424
  21001143.373   -18041042.763 9 -14021001.01847  21001142.491    21001146.1074
  20541505.296   -18731873.031 9 -14579601.16748  20541504.812    20541507.9334
  20826805.983   -20883104.466 9 -16250528.57047  20826805.362    20826808.3184
  23655867.847    -4447453.645 8  -3451287.76345  23655867.814    23655872.8894
  24340752.839    -4265561.599 7  -3298936.64645  24340752.937    24340757.5354
 01  7 19  1 34 30.0000000  0  6 13 22 01 20 04 25
  22090430.728   -15769897.143 8 -12276025.94346  22090430.873    22090433.2334
  20999078.575   -18051893.043 8 -14029455.74047  20999077.721    20999081.2924
  20539233.708   -18743810.224 9 -14588902.87948  20539233.215    20539236.4064
  20838279.788   -20822810.179 9 -16203546.04947  20838279.109    20838281.9194
  23654927.349    -4452395.758 8  -3455138.76945  23654927.374    23654932.2534
  24358227.336    -4173733.303 7  -3227382.24945  24358227.170    24358231.8494
 01  7 19  1 35  0.0000000  0  6 13 22 01 20 04 25
  22077743.517   -15836569.435 8 -12327978.34246  22077743.566    22077745.7624
  20997137.983   -18062091.434 8 -14037402.54347  20997137.124    20997140.6294
  20537008.971   -18755500.963 9 -14598012.54548  20537008.545    20537011.7004
  20849846.306   -20762027.481 9 -16156182.93847  20849845.642    20849848.4944
  23654090.636    -4456793.413 8  -3458565.49845  23654090.574    23654095.4354
  24375707.125    -4081877.550 7  -3155806.34245  24375706.919    24375711.4184
 01  7 19  1 35 30.0000000  0  6 13 22 01 20 04 25
  22065083.110   -15903100.904 8 -12379821.00146  22065083.220    22065085.2484
  20995321.578   -18071636.538 8 -14044840.26147  20995320.692    20995324.1494
  20534831.556   -18766943.797 9 -14606929.03448  20534831.052    20534834.1624
  20861505.834   -20700756.512 9 -16108439.34947  20861505.131    20861508.0514
  23653357.499    -4460646.124 8  -3461567.59245  23653357.481    23653362.2854
  24393191.814    -3989994.825 7  -3084209.51345  24393191.546    24393196.4914
 01  7 19  1 36  0.0000000  0  6 13 22 01 20 04 25
  22052449.648   -15969490.882 8 -12431553.41346  22052449.657    22052451.7434
  20993629.314   -18080528.534 8 -14051769.09047  20993628.483    20993632.1434
  20532701.217   -18778138.589 9 -14615652.24848  20532700.767    20532703.8574
  20873257.911   -20638999.203 9 -16060316.81847  20873257.195    20873260.0974
  23652728.035    -4463954.345 8  -3464145.44145  23652728.097    23652732.5744
  24410680.901    -3898086.976 8  -3012593.14945  24410680.876    24410685.9874
 01  7 19  1 36 30.0000000  0  6 13 22 01 20 04 25
  22039842.952   -16035738.563 8 -12483174.93646  22039842.955    22039845.0524
  20992061.791   -18088766.650 8 -14058188.41247  20992060.838    20992064.4584
  20530618.278   -18789084.490 9 -14624181.52148  20530617.819    20530620.9084
  20885102.265   -20576756.545 9 -16011816.09047  20885101.665    20885104.5704
  23652201.629    -4466718.257 8  -3466299.12445  23652201.751    23652206.7904
  24428175.402    -3806155.027 7  -2940957.85445  24428175.217    24428179.9374
 01  7 19  1 37  0.0000000  0  6 13 22 01 20 04 25
  22027263.403   -16101843.380 8 -12534685.14046  22027263.413    22027265.5714
  20990618.572   -18096350.209 8 -14064097.63147  20990617.718    20990621.2824
  20528582.678   -18799781.159 9 -14632516.59948  20528582.268    20528585.4224
  20897038.602   -20514030.271 9 -15962938.50147  20897038.041    20897041.0434
  23651779.663    -4468938.539 7  -3468029.19245  23651779.554    23651784.2184
  24445673.505    -3714200.139 7  -2869304.80845  24445673.372    24445678.7084
 01  7 19  1 37 30.0000000  0  6 13 22 01 20 04 25
  22014711.088   -16167805.397 8 -12586084.07946  22014711.193    22014713.2174
  20989300.071   -18103279.334 8 -14069496.96847  20989299.151    20989302.8064
  20526594.593   -18810229.185 9 -14640657.92048  20526594.115    20526597.2704
  20909066.622   -20450822.635 9 -15913685.84047  20909066.015    20909069.1164
  23651460.460    -4470616.654 8  -3469336.83445  23651460.445    23651464.6624
  24463176.531    -3622224.680 8  -2797635.76645  24463176.294    24463181.1654
 01  7 19  1 38  0.0000000  0  6 13 22 01 20 04 25
  22002186.306   -16233623.230 8 -12637370.65246  22002186.384    22002188.3534
  20988106.075   -18109553.047 8 -14074385.57547  20988105.267    20988108.9284
  20524653.970   -18820426.968 9 -14648604.24048  20524653.518    20524656.6484
  20921186.060   -20387134.236 8 -15864058.55047  20921185.515    20921188.7294
  23651243.768    -4471752.022 8  -3470221.51345  23651243.904    23651248.5414
  24480682.933    -3530229.066 7  -2725950.94345  24480682.657    24480687.4004
 01  7 19  1 38 30.0000000  0  6 13 22 01 20 04 25
  21989689.180   -16299295.734 8 -12688544.00646  21989689.315    21989691.3914
  20987037.069   -18115171.162 8 -14078763.28447  20987036.217    20987039.7664
  20522761.219   -18830373.783 9 -14656355.00948  20522760.738    20522763.8354
  20933396.838   -20322966.380 9 -15814057.67847  20933396.321    20933399.5294
  23651131.568    -4472345.043 7  -3470683.55645  23651131.424    23651135.9324
  24498192.701    -3438214.182 7  -2654251.10545  24498192.354    24498196.5424
 01  7 19  1 39  0.0000000  0  6 13 22 01 20 04 25
  21977219.694   -16364823.047 8 -12739604.19946  21977219.778    21977222.0774
  20986092.650   -18120133.898 8 -14082630.33847  20986091.791    20986095.4784
  20520916.125   -18840070.056 9 -14663910.52948  20520915.636    20520918.7134
  20945698.431   -20258321.508 9 -15763685.08047  20945697.865    20945701.0824
  23651121.560    -4472396.894 8  -3470723.94245  23651121.579    23651125.7224
  24515706.138    -3346182.678 8  -2582538.23845  24515705.849    24515709.9754
 01  7 19  1 39 30.0000000  0  6 13 22 01 20 04 25
  21964777.917   -16430204.104 8 -12790550.43247  21964778.101    21964780.5814
  20985273.185   -18124440.282 8 -14085985.96947  20985272.348    20985275.8744
  20519118.854   -18849514.906 9 -14671270.15848  20519118.320    20519121.3704
  20958090.542   -20193200.847 9 -15712941.74847  20958089.946    20958093.1864
  23651214.553    -4471908.090 8  -3470343.05445  23651214.485    23651218.7314
  24533222.366    -3254135.294 7  -2510813.12645  24533222.056    24533226.3994
 01  7 19  1 40  0.0000000  0  6 13 22 01 20 04 25
  21952364.482   -16495436.630 8 -12841380.93546  21952364.654    21952367.3044
  20984578.840   -18128088.490 8 -14088828.74347  20984578.029    20984581.5934
  20517369.710   -18858706.266 9 -14678432.25348  20517369.191    20517372.3414
  20970573.163   -20127604.490 8 -15661827.74847  20970572.525    20970575.7654
  23651410.895    -4470877.625 8  -3469540.03345  23651410.650    23651414.7104
  24550740.788    -3162071.368 7  -2439075.21845  24550740.562    24550745.6594
 01  7 19  1 40 30.0000000  0  6 13 22 01 20 04 25
  21939979.252   -16560521.656 8 -12892096.51546  21939979.359    21939981.8934
  20984009.621   -18131080.360 8 -14091160.05447  20984008.743    20984012.3034
  20515668.692   -18867645.343 9 -14685397.77248  20515668.149    20515671.3454
  20983145.757   -20061535.725 8 -15610345.63947  20983145.021    20983148.2454
  23651709.587    -4469307.498 8  -3468316.53945  23651709.541    23651713.4044
  24568263.081    -3069994.512 7  -2367326.92845  24568262.725    24568267.3504
 01  7 19  1 41  0.0000000  0  6 13 22 01 20 04 25
  21927622.009   -16625458.708 8 -12942696.76846  21927622.103    21927624.7564
  20983565.125   -18133416.117 8 -14092980.08047  20983564.251    20983567.6864
  20514015.591   -18876331.928 9 -14692166.54348  20514015.123    20514018.3184
  20995807.736   -19994996.187 9 -15558496.69147  20995807.015    20995810.2884
  23652110.946    -4467199.009 8  -3466673.54045  23652110.735    23652114.5384
  24585786.823    -2977905.841 7  -2295569.62645  24585786.506    24585791.7074
 01  7 19  1 41 30.0000000  0  6 13 22 01 20 04 25
  21915293.791   -16690243.966 8 -12993178.77147  21915293.928    21915296.5814
  20983246.215   -18135092.055 8 -14094285.99547  20983245.311    20983248.8284
  20512411.384   -18884762.484 9 -14698735.81048  20512410.903    20512414.0324
  21008559.653   -19927984.624 9 -15506279.94347  21008558.997    21008562.1994
  23652615.050    -4464549.729 8  -3464609.12145  23652614.935    23652618.7024
  24603312.577    -2885803.820 7  -2223802.07545  24603312.681    24603318.3304
 01  7 19  1 42  0.0000000  0  6 13 22 01 20 04 25
  21902994.031   -16754879.645 8 -13043544.18947  21902994.193    21902996.8524
  20983052.354   -18136110.642 8 -14095079.69847  20983051.466    20983055.0484
  20510855.328   -18892939.358 9 -14705107.39148  20510854.851    20510858.0224
  21021400.646   -19860505.587 9 -15453698.92047  21021399.918    21021403.0984
  23653221.662    -4461363.098 8  -3462126.03745  23653221.496    23653225.1154
  24620841.217    -2793692.541 7  -2152026.99045  24620841.285    24620846.4384
 01  7 19  1 42 30.0000000  0  7 27 13 22 01 20 04 25
  23912833.846                                    23912837.307    23912820.2894
  21890722.808   -16819364.968 8 -13093792.46647  21890722.978    21890725.8454
  20982983.592   -18136471.880 8 -14095361.18347  20982982.703    20982986.1694
  20509347.794   -18900861.998 9 -14711280.88248  20509347.294    20509350.3414
  21034330.219   -19792560.339 9 -15400754.61747  21034329.526    21034332.6564
  23653929.883    -4457639.776 8  -3459224.71745  23653929.985    23653933.4834
  24638371.311    -2701573.070 7  -2080245.58645  24638371.281    24638376.5774
 01  7 19  1 43  0.0000000  0  7 27 13 22 01 20 04 25
  23896970.280                                    23896969.982    23896968.6764
  21878480.725   -16883697.330 8 -13143921.54147  21878480.903    21878483.7524
  20983040.231   -18136174.541 8 -14095129.48947  20983039.264    20983042.8014
  20507888.937   -18908528.321 9 -14717254.62948  20507888.424    20507891.4894
  21047348.503   -19724149.141 9 -15347447.23547  21047347.854    21047351.0044
  23654741.042    -4453378.747 8  -3455904.45445  23654741.062    23654744.4934
  24655902.620    -2609444.950 7  -2008457.63045  24655902.643    24655907.9684
 01  7 19  1 43 30.0000000  0  7 27 13 22 01 20 04 25
  23881130.103     -494875.91654                  23881129.338    23881136.4754
  21866267.624   -16947878.161 8 -13193932.53947  21866267.788    21866270.4584
  20983221.713   -18135220.481 9 -14094386.06947  20983220.828    20983224.3644
  20506478.568   -18915939.775 9 -14723029.79148  20506478.101    20506481.1344
  21060454.800   -19655275.870 9 -15293779.80647  21060454.121    21060457.1644
  23655653.758    -4448583.081 8  -3452167.51745  23655653.612    23655656.8884
  24673435.360    -2517311.329 7  -1936665.28945  24673435.186    24673440.5944
 01  7 19  1 44  0.0000000  0  7 27 13 22 01 20 04 25
  23865325.741     -741842.96618   -559597.41445  23865324.759    23865332.0574
  21854083.886   -17011904.196 8 -13243822.93947  21854084.082    21854086.7564
  20983528.863   -18133606.782 8 -14093128.63647  20983527.936    20983531.3854
  20505117.237   -18923093.530 9 -14728604.14348  20505116.733    20505119.7984
  21073648.741   -19585939.837 8 -15239751.77247  21073648.077    21073651.3254
  23656668.250    -4443251.025 8  -3448012.68045  23656668.329    23656671.9924
  24690968.706    -2425171.387 7  -1864867.99445  24690968.769    24690973.8814
 01  7 19  1 44 30.0000000  0  7 27 13 22 01 20 04 25
  23849550.576     -824740.542 8   -624192.81845  23849550.130    23849556.1634
  21841929.345   -17075777.001 8 -13293593.90947  21841929.457    21841931.9214
  20983960.965   -18131335.699 8 -14091358.94447  20983960.057    20983963.5864
  20503804.562   -18929991.178 9 -14733978.93248  20503804.092    20503807.2154
  21086930.138   -19516144.756 9 -15185366.03847  21086929.642    21086932.9604
  23657784.288    -4437385.664 8  -3443442.26845  23657784.306    23657788.1754
  24708502.747    -2333028.607 7  -1793068.43845  24708502.809    24708508.0524
 01  7 19  1 45  0.0000000  0  7 27 13 22 01 20 04 25
  23833806.112     -907477.267 8   -688662.87345  23833805.520    23833811.6574
  21829803.715   -17139497.442 8 -13343246.16847  21829803.802    21829806.2024
  20984517.765   -18128409.299 8 -14089078.64847  20984516.911    20984520.4744
  20502540.494   -18936634.083 9 -14739155.22448  20502540.017    20502543.1094
  21100298.614   -19445894.234 9 -15130625.42547  21100298.018    21100301.2054
  23659001.502    -4430989.654 7  -3438458.37345  23659001.445    23659005.3564
  24726037.343    -2240885.783 7  -1721268.94145  24726037.131    24726042.4604
 01  7 19  1 45 30.0000000  0  7 27 13 22 01 20 04 25
  23818092.927     -990048.966 8   -753004.33445  23818092.558    23818098.8114
  21817707.741   -17203061.227 8 -13392776.35047  21817707.876    21817710.4174
  20985199.943   -18124824.317 8 -14086285.11847  20985199.009    20985202.5404
  20501325.644   -18943018.025 9 -14744129.72048  20501325.178    20501328.2874
  21113753.977   -19375186.222 9 -15075528.31747  21113753.382    21113756.5444
  23660319.857    -4424060.096 8  -3433058.70145  23660319.932    23660323.9764
  24743571.694    -2148740.439 7  -1649467.48545  24743571.822    24743577.2744
 01  7 19  1 46  0.0000000  0  7 27 13 22 01 20 04 25
  23802411.421    -1072454.868 8   -817216.58245  23802410.974    23802417.2744
  21805641.959   -17266467.115 8 -13442183.49047  21805642.058    21805644.6174
  20986007.533   -18120580.080 8 -14082977.93047  20986006.729    20986010.2744
  20500160.307   -18949142.218 9 -14748901.82748  20500159.805    20500162.8904
  21127296.058   -19304022.473 9 -15020076.09647  21127295.477    21127298.5594
  23661739.745    -4416597.463 8  -3427243.68345  23661739.729    23661744.3894
  24761106.900    -2056593.589 7  -1577664.79245  24761106.921    24761112.1994
 01  7 19  1 46 30.0000000  0  7 27 13 22 01 20 04 25
  23786761.840    -1154693.246 8   -881298.31045  23786761.587    23786767.5324
  21793606.528   -17329713.559 8 -13491466.39347  21793606.610    21793609.4094
  20986940.956   -18115675.486 8 -14079156.18047  20986940.034    20986943.6414
  20499044.610   -18955005.264 9 -14753470.42548  20499044.087    20499047.2554
  21140924.745   -19232403.758 9 -14964269.34847  21140924.063    21140927.2664
  23663261.494    -4408601.946 7  -3421013.42845  23663261.406    23663265.7914
  24778642.215    -1964445.594 7  -1505861.20245  24778642.343    24778646.8184
 01  7 19  1 47  0.0000000  0  7 27 13 22 01 20 04 25
  23771144.247    -1236764.367 8   -945249.68345  23771144.010    23771149.8414
  21781601.207   -17392800.514 8 -13540625.00647  21781601.381    21781604.3984
  20987999.594   -18110111.731 8 -14074820.75547  20987998.751    20988002.1854
  20497978.580   -18960607.473 9 -14757835.78348  20497978.065    20497981.1894
  21154639.458   -19160332.684 8 -14908110.11447  21154638.739    21154642.1514
  23664883.452    -4400075.270 8  -3414369.25445  23664883.602    23664888.5514
  24796176.922    -1872298.185 7  -1434058.13145  24796177.034    24796182.2504
 01  7 19  1 47 30.0000000  0  7 27 13 22 01 20 04 25
  23755558.412    -1318667.817 8  -1009070.43645  23755558.139    23755564.0754
  21769626.586   -17455727.087 8 -13589658.65647  21769626.781    21769629.7034
  20989183.724   -18103889.337 8 -14069972.13847  20989182.821    20989186.3694
  20496962.255   -18965948.153 9 -14761997.35048  20496961.729    20496964.9014
  21168439.909   -19087810.899 9 -14851599.68047  21168439.244    21168442.7244
  23666607.039    -4391018.172 7  -3407311.81645  23666607.119    23666612.0914
  24813712.176    -1780152.654 7  -1362256.51545  24813711.954    24813717.1664
 01  7 19  1 48  0.0000000  0  6 27 13 22 01 20 04
  23740004.897    -1400402.207 8  -1072759.44545  23740004.577    23740010.3784
  21757682.983   -17518491.650 8 -13638566.09547  21757683.169    21757685.8154
  20990493.184   -18097007.696 8 -14064609.85247  20990492.354    20990495.9394
  20495995.982   -18971025.911 9 -14765954.05748  20495995.478    20495998.6234
  21182325.967   -19014839.459 8 -14794738.86147  21182325.271    21182328.8244
  23668431.199    -4381431.022 8  -3399841.29645  23668431.425    23668436.4874
 01  7 19  1 48 30.0000000  0  6 27 13 22 01 20 04
  23724483.990    -1481965.033 8  -1136314.74546  23724483.642    23724489.4924
  21745770.987   -17581091.413 8 -13687345.11847  21745771.095    21745773.1184
  20991928.710   -18089464.499 8 -14058731.99547  20991927.881    20991931.1824
  20495080.124   -18975838.415 9 -14769704.06348  20495079.642    20495082.8044
  21196297.578   -18941418.187 9 -14737527.53147  21196296.859    21196300.3134
  23670356.834    -4371312.603 8  -3391956.85145  23670356.923    23670362.1344
 01  7 19  1 49  0.0000000  0  6 27 13 22 01 20 04
  23708994.526    -1563361.385 8  -1199740.34246  23708994.245    23709000.2184
  21733889.146   -17643531.547 8 -13735999.74147  21733889.162    21733891.0144
  20993488.829   -18081265.661 8 -14052343.29447  20993487.981    20993491.4844
  20494213.851   -18980390.861 9 -14773251.43948  20494213.391    20494216.4314
  21210353.265   -18867554.839 8 -14679971.72347  21210352.529    21210356.0044
  23672382.176    -4360669.850 8  -3383663.78545  23672382.102    23672387.2764
 01  7 19  1 49 30.0000000  0  6 27 13 22 01 20 04
  23693537.598    -1644588.377 8  -1263033.98546  23693537.265    23693543.0754
  21722038.241   -17705808.699 8 -13784527.37547  21722038.266    21722040.1804
  20995174.004   -18072409.704 8 -14045442.56947  20995173.264    20995176.8224
  20493397.642   -18984680.481 9 -14776594.01048  20493397.116    20493400.1854
  21224493.132   -18793248.705 8 -14622070.88347  21224492.480    21224496.0264
  23674507.432    -4349501.489 8  -3374961.19445  23674507.479    23674512.6014
 01  7 19  1 50  0.0000000  0  6 27 13 22 01 20 04
  23678112.786    -1725646.650 8  -1326196.15846  23678112.295    23678118.0554
  21710218.198   -17767923.045 8 -13832928.13447  21710218.209    21710220.2544
  20996984.138   -18062898.340 8 -14038031.08647  20996983.271    20996986.6274
  20492631.203   -18988707.795 9 -14779732.18148  20492630.737    20492633.8044
  21238716.668   -18718503.135 8 -14563827.63247  21238716.063    21238719.6344
  23676732.326    -4337809.543 8  -3365850.58745  23676732.399    23676737.2834
 01  7 19  1 50 30.0000000  0  6 27 13 22 01 20 04
  23662720.143    -1806534.461 8  -1389225.49146  23662719.700    23662725.5224
  21698429.312   -17829872.664 8 -13881200.53547  21698429.410    21698431.8174
  20998918.903   -18052730.262 8 -14030107.91147  20998918.092    20998921.6184
  20491915.145   -18992471.115 9 -14782664.65048  20491914.623    20491917.6364
  21253023.836   -18643318.777 8 -14505242.47447  21253023.248    21253026.7984
  23679057.161    -4325594.096 8  -3356332.06445  23679057.139    23679061.9084
 01  7 19  1 51  0.0000000  0  6 27 13 22 01 20 04
  23647360.003    -1887251.484 8  -1452121.76046  23647359.674    23647365.5304
  21686672.244   -17891656.845 8 -13929344.03647  21686672.319    21686674.8234
  21000978.855   -18041905.717 8 -14021673.22047  21000978.005    21000981.5514
  20491249.217   -18995970.025 9 -14785391.07548  20491248.744    20491251.8454
  21267414.122   -18567697.783 8 -14446317.07147  21267413.516    21267417.0904
  23681481.091    -4312856.440 8  -3346406.59245  23681481.072    23681485.4524
 01  7 19  1 51 30.0000000  0  6 27 13 22 01 20 04
  23632032.593    -1967796.465 8  -1514883.98146  23632032.394    23632038.1754
  21674946.921   -17953274.271 8 -13977357.58647  21674947.026    21674949.5384
  21003163.591   -18030424.648 8 -14012726.90047  21003162.753    21003166.2594
  20490633.915   -18999203.375 9 -14787910.57548  20490633.470    20490636.5544
  21281887.018   -18491641.231 9 -14387052.25947  21281886.566    21281890.2674
  23684004.144    -4299597.007 8  -3336074.58645  23684004.294    23684008.9234
 01  7 19  1 52  0.0000000  0  6 27 13 22 01 20 04
  23616738.602    -2048168.847 8  -1577511.68146  23616738.112    23616743.7854
  21663253.586   -18014723.887 8 -14025240.39647  21663253.691    21663255.9814
  21005472.997   -18018287.999 8 -14003269.77747  21005472.164    21005475.7764
  20490069.289   -19002170.674 9 -14790222.76148  20490068.801    20490071.8874
  21296442.952   -18415150.935 9 -14327449.50947  21296442.419    21296445.7434
  23686626.708    -4285816.845 8  -3325336.77745  23686626.740    23686630.7024
 01  7 19  1 52 30.0000000  0  6 27 13 22 01 20 04
  23601477.209    -2128367.521 8  -1640004.03946  23601476.708    23601482.4474
  21651592.439   -18076004.418 8 -14072991.44547  21651592.514    21651594.4544
  21007907.296   -18005495.565 8 -13993301.67447  21007906.519    21007910.2454
  20489555.477   -19004870.595 9 -14792326.60048  20489555.006    20489558.1614
  21311081.108   -18338228.536 8 -14267510.02647  21311080.377    21311083.7794
  23689347.635    -4271516.456 8  -3314193.62145  23689347.706    23689352.2114
 01  7 19  1 53  0.0000000  0  6 27 13 22 01 20 04
  23586248.704    -2208392.738 8  -1702361.22946  23586248.271    23586254.0384
  21639963.283   -18137115.706 8 -14120610.61347  21639963.325    21639965.1774
  21010466.285   -17992048.059 8 -13982823.09047  21010465.438    21010469.2444
  20489092.522   -19007303.496 9 -14794222.36848  20489092.077    20489095.2274
  21325800.451   -18260876.698 8 -14207235.90247  21325799.865    21325803.5284
  23692167.614    -4256697.980 8  -3302646.73845  23692167.623    23692171.9894
 01  7 19  1 53 30.0000000  0  6 27 13 22 01 20 04
  23571053.161    -2288243.988 8  -1764582.87346  23571052.850    23571058.6314
  21628366.413   -18198056.748 8 -14168097.12747  21628366.494    21628368.3144
  21013149.784   -17977945.914 8 -13971834.39247  21013149.029    21013152.7004
  20488680.439   -19009468.998 9 -14795909.76848  20488679.982    20488683.1304
  21340601.641   -18183097.363 9 -14146628.70947  21340601.049    21340604.2684
  23695085.867    -4241362.610 7  -3290697.13045  23695085.754    23695090.3664
 01  7 19  1 54  0.0000000  0  6 27 13 22 01 20 04
  23555891.097    -2367920.157 8  -1826668.10346  23555890.936    23555896.6314
  21616802.039   -18258826.036 8 -14215449.78647  21616802.160    21616804.1204
  21015957.972   -17963189.488 8 -13960335.88747  21015957.135    21015960.7694
  20488319.479   -19011365.792 9 -14797387.78848  20488319.062    20488322.2114
  21355484.008   -18104891.771 8 -14085689.33647  21355483.237    21355486.3024
  23698102.039    -4225510.948 8  -3278345.20645  23698102.145    23698106.6854
 01  7 19  1 54 30.0000000  0  6 27 13 22 01 20 04
  23540762.759    -2447421.929 8  -1888617.39746  23540762.310    23540767.8124
  21605270.494   -18319423.916 8 -14262668.89347  21605270.672    21605272.5624
  21018890.135   -17947780.891 8 -13948329.18147  21018889.346    21018893.0384
  20488009.636   -19012994.452 9 -14798656.87248  20488009.147    20488012.3144
  21370446.366   -18026263.227 8 -14024420.36647  21370445.649    21370448.9214
  23701216.232    -4209145.367 7  -3265592.80545  23701216.280    23701221.0914
 01  7 19  1 55  0.0000000  0  6 27 13 22 01 20 04
  23525667.299    -2526748.282 8  -1950430.06245  23525666.821    23525672.2664
  21593772.142   -18379848.665 8 -14309753.09047  21593772.213    21593774.0434
  21021946.688   -17931719.779 8 -13935814.01047  21021945.750    21021949.2644
  20487750.850   -19014354.004 9 -14799716.26148  20487750.396    20487753.6104
  21385489.022   -17947213.179 9 -13962822.99347  21385488.434    21385491.6864
  23704428.345    -4192266.621 8  -3252440.55845  23704428.504    23704433.1324
 01  7 19  1 55 30.0000000  0  6 27 13 22 01 20 04
  23510605.254    -2605898.504 8  -2012105.46845  23510604.887    23510610.4054
  21582306.743   -18440099.671 9 -14356701.90747  21582306.899    21582308.7894
  21025126.942   -17915006.229 8 -13922790.48947  21025126.098    21025129.6304
  20487543.510   -19015443.528 9 -14800565.24048  20487543.099    20487546.3004
  21400611.696   -17867743.503 8 -13900898.64047  21400611.036    21400614.1404
  23707737.655    -4174875.783 8  -3238889.29245  23707737.795    23707742.4064
 01  7 19  1 56  0.0000000  0  6 27 13 22 01 20 04
  23495577.142    -2684871.178 8  -2073642.54545  23495576.821    23495582.3794
  21570874.965   -18500174.916 8 -14403513.75247  21570874.994    21570877.1154
  21028431.780   -17897639.962 9 -13909258.37947  21028430.860    21028434.3514
  20487387.927   -19016261.466 9 -14801202.58748  20487387.437    20487390.6534
  21415813.741   -17787855.119 8 -13838648.00047  21415813.191    21415816.5434
  23711144.395    -4156973.211 8  -3224939.23545  23711144.567    23711149.1554
 01  7 19  1 56 30.0000000  0  6 27 13 22 01 20 04
  23480582.954    -2763666.606 8  -2135041.48445  23480582.451    23480587.9094
  21559476.541   -18560074.045 8 -14450188.37247  21559476.655    21559478.9154
  21031860.137   -17879622.978 8 -13895219.18347  21031859.317    21031862.8684
  20487283.811   -19016808.104 9 -14801628.53048  20487283.399    20487286.5944
  21431095.163   -17707551.024 8 -13776073.43047  21431094.621    21431098.0504
  23714648.155    -4138560.776 8  -3210591.94145  23714648.370    23714652.9934
 01  7 19  1 57  0.0000000  0  6 27 13 22 01 20 04
  23465622.407    -2842284.520 8  -2196302.11845  23465621.858    23465627.4004
  21548111.901   -18619796.370 8 -14496725.19847  21548111.953    21548114.2604
  21035412.354   -17860956.378 8 -13880673.76347  21035411.487    21035414.9804
  20487231.606   -19017082.999 9 -14801842.72448  20487231.125    20487234.2714
  21446455.391   -17626833.294 8 -13713176.54847  21446454.778    21446458.1674
  23718248.800    -4119640.419 8  -3195848.82545  23718248.918    23718253.4824
 01  7 19  1 57 30.0000000  0  6 27 13 22 01 20 04
  23450695.858    -2920723.442 8  -2257423.30546  23450695.391    23450700.8424
  21536780.922   -18679340.084 8 -14543122.88047  21536781.047    21536783.4994
  21039088.250   -17841639.284 8 -13865621.44547  21039087.423    21039090.8904
  20487231.229   -19017084.782 9 -14801844.10348  20487230.775    20487233.9354
  21461894.038   -17545703.154 8 -13649958.32647  21461893.381    21461896.6534
  23721945.830    -4100212.444 8  -3180710.17245  23721946.148    23721950.5114
 01  7 19  1 58  0.0000000  0  6 27 13 22 01 20 04
  23435803.316    -2998984.075 8  -2318405.52046  23435802.841    23435808.1804
  21525483.875   -18738705.472 8 -14589381.56647  21525484.008    21525486.6254
  21042887.684   -17821673.455 8 -13850063.67647  21042886.823    21042890.3354
  20487282.810   -19016813.942 9 -14801633.04848  20487282.320    20487285.4234
  21477410.433   -17464163.892 8 -13586421.29147  21477409.749    21477413.1024
  23725738.865    -4080279.192 8  -3165177.80945  23725739.053    23725743.6944
 01  7 19  1 58 30.0000000  0  6 27 13 22 01 20 04
  23420944.855    -3077065.254 8  -2379247.90846  23420944.467    23420949.7234
  21514221.051   -18797890.699 8 -14635499.89547  21514221.185    21514224.0254
  21046810.393   -17801059.472 8 -13834000.89947  21046809.537    21046812.9834
  20487386.439   -19016269.185 9 -14801208.55848  20487385.948    20487389.0664
  21493004.476   -17382216.815 8 -13522566.47747  21493003.743    21493007.2724
  23729628.284    -4059841.493 8  -3149252.36745  23729628.280    23729632.7874
 01  7 19  1 59  0.0000000  0  6 27 13 22 01 20 04
  23406120.577    -3154967.187 8  -2439950.66946  23406120.070    23406125.4054
  21502992.850   -18856895.612 9 -14681477.71547  21502992.958    21502995.6204
  21050856.070   -17779799.169 8 -13817434.43547  21050855.216    21050858.5614
  20487542.147   -19015450.678 9 -14800570.75948  20487541.700    20487544.8424
  21508675.583   -17299864.699 8 -13458396.06447  21508674.894    21508678.3744
  23733612.995    -4038901.461 8  -3132935.50445  23733613.012    23733617.6404
 01  7 19  1 59 30.0000000  0  6 27 13 22 01 20 04
  23391330.829    -3232687.424 8  -2500511.82046  23391330.419    23391335.7374
  21491799.258   -18915717.374 8 -14727312.81947  21491799.437    21491802.0034
  21055025.132   -17757891.008 8 -13800363.09547  21055024.290    21055027.5244
  20487750.466   -19014356.034 9 -14799717.78848  20487749.946    20487753.1224
  21524423.688   -17217107.820 8 -13393910.24347  21524423.061    21524426.5494
  23737693.225    -4017458.535 7  -3116226.73545  23737693.238    23737697.8824
 01  7 19  2  0  0.0000000  0  6 27 13 22 01 20 04
  23376575.260    -3310227.548 8  -2560932.62146  23376574.804    23376580.2834
  21480640.646   -18974356.826 9 -14773005.85347  21480640.792    21480643.1344
  21059316.916   -17735337.551 8 -13782788.96747  21059316.009    21059319.4014
  20488011.072   -19012986.477 9 -14798650.60248  20488010.585    20488013.7404
  21540248.163   -17133950.044 8 -13329112.02747  21540247.487    21540251.0714
  23741869.051    -3995516.430 8  -3099129.05345  23741868.965    23741873.4824
 01  7 19  2  0 30.0000000  0  6 27 13 22 01 20 04
  23361854.176    -3387586.689 8  -2621212.39946  23361853.756    23361859.2144
  21469516.959   -19032812.613 9 -14818555.79347  21469517.062    21469519.1384
  21063731.359   -17712139.337 8 -13764712.46247  21063730.443    21063733.9094
  20488324.105   -19011341.245 9 -14797368.60548  20488323.619    20488326.8264
  21556148.681   -17050393.304 8 -13264002.97347  21556148.009    21556151.4724
  23746139.280    -3973075.825 7  -3081642.87845  23746139.131    23746143.6424
 01  7 19  2  1  0.0000000  0  6 27 13 22 01 20 04
  23347168.058    -3464764.521 8  -2681350.87846  23347167.383    23347172.6104
  21458428.434   -19091083.981 9 -14863962.02747  21458428.578    21458430.2824
  21068268.262   -17688298.076 8 -13746134.87747  21068267.312    21068270.7584
  20488689.725   -19009419.799 9 -14795871.37448  20488689.275    20488692.4864
  21572124.604   -16966439.790 8 -13198584.71147  21572123.909    21572127.3744
  23750504.058    -3950138.752 8  -3063769.86345  23750504.047    23750508.4994
 01  7 19  2  1 30.0000000  0  6 27 13 22 01 20 04
  23332516.136    -3541759.779 8  -2741347.11746  23332515.556    23332520.7694
  21447375.386   -19149169.218 9 -14909223.20647  21447375.451    21447376.8524
  21072927.459   -17663813.977 8 -13727056.39547  21072926.506    21072929.9494
  20489108.161   -19007220.962 9 -14794158.00148  20489107.716    20489110.9274
  21588175.464   -16882091.049 8 -13132858.47147  21588174.838    21588178.4764
  23754963.368    -3926705.731 7  -3045510.40645  23754963.231    23754967.8514
 01  7 19  2  2  0.0000000  0  6 27 13 22 01 20 04
  23317899.324    -3618571.336 8  -2801200.21946  23317898.814    23317903.9654
  21436357.892   -19207066.516 9 -14954337.96247  21436358.018    21436359.4054
  21077708.969   -17638686.765 8 -13707476.74947  21077708.106    21077711.5764
  20489579.623   -19004743.207 9 -14792227.29148  20489579.189    20489582.4354
  21604301.601   -16797348.310 8 -13066825.25347  21604300.994    21604304.5664
  23759516.773    -3902777.746 8  -3026865.24845  23759516.847    23759521.0974
 01  7 19  2  2 30.0000000  0  6 27 13 22 01 20 04
  23303317.372    -3695199.973 8  -2860910.79146  23303316.839    23303321.8774
  21425376.099   -19264776.098 9 -14999306.43447  21425376.132    21425377.5494
  21082612.616   -17612918.451 8 -13687397.53447  21082611.662    21082615.1634
  20490104.210   -19001986.947 9 -14790079.56848  20490103.707    20490106.9454
  21620501.974   -16712215.063 8 -13000487.72947  21620501.299    21620504.7704
  23764163.725    -3878357.510 7  -3007836.52345  23764163.852    23764168.3234
 01  7 19  2  3  0.0000000  0  6 27 13 22 01 20 04
  23288770.465    -3771644.102 8  -2920477.60746  23288769.950    23288774.9824
  21414430.168   -19322295.817 8 -15044126.96547  21414430.289    21414431.8414
  21087637.941   -17586509.242 8 -13666818.92847  21087637.053    21087640.6334
  20490681.953   -18998950.812 9 -14787713.75648  20490681.447    20490684.6814
  21636775.997   -16626692.476 8 -12933846.79847  21636775.423    21636779.2114
  23768904.277    -3853445.390 8  -2988424.49945  23768904.470    23768908.8624
 01  7 19  2  3 30.0000000  0  6 27 13 22 01 20 04
  23274258.559    -3847904.712 8  -2979901.38046  23274257.997    23274263.0934
  21403520.342   -19379626.299 8 -15088800.03447  21403520.491    21403522.2604
  21092784.990   -17559461.995 8 -13645743.13547  21092783.980    21092787.6464
  20491312.829   -18995635.518 9 -14785130.41948  20491312.330    20491315.5484
  21653123.892   -16540783.857 8 -12866905.08647  21653123.405    21653127.2904
  23773737.893    -3828044.351 8  -2968631.51045  23773738.044    23773742.6614
 01  7 19  2  4  0.0000000  0  6 27 13 22 01 20 04
  23259781.744    -3923979.566 8  -3039180.43746  23259781.349    23259786.4664
  21392647.254   -19436764.351 9 -15133323.17047  21392647.458    21392649.2704
  21098053.482   -17531775.865 8 -13624169.56847  21098052.502    21098056.1694
  20491997.259   -18992038.829 9 -14782327.81148  20491996.766    20491999.9834
  21669545.404   -16454490.042 8 -12799663.22447  21669544.766    21669548.5024
  23778664.486    -3802154.456 8  -2948457.61345  23778664.563    23778669.3104
 01  7 19  2  4 30.0000000  0  6 27 13 22 01 20 04
  23245340.307    -3999869.823 8  -3098315.63046  23245339.886    23245344.9714
  21381810.801   -19493710.707 8 -15177696.92347  21381810.941    21381812.8454
  21103442.927   -17503453.012 8 -13602099.86247  21103442.121    21103445.7914
  20492735.035   -18988161.516 9 -14779306.53848  20492734.605    20492737.8024
  21686039.131   -16367814.513 8 -12732123.91647  21686038.508    21686042.2564
  23783683.652    -3775778.697 8  -2927905.09245  23783683.708    23783688.2234
 01  7 19  2  5  0.0000000  0  6 27 13 22 01 20 04
  23230934.221    -4075574.672 8  -3157306.31946  23230933.769    23230938.8044
  21371010.793   -19550463.595 8 -15221919.93047  21371010.978    21371013.2064
  21108953.682   -17474494.198 8 -13579534.54347  21108952.846    21108956.3944
  20493526.535   -18984002.468 9 -14776065.72248  20493526.057    20493529.2454
  21702605.269   -16280758.878 8 -12664288.42647  21702604.719    21702608.4474
  23788795.182    -3748918.294 7  -2906974.91645  23788795.100    23788799.7754
 01  7 19  2  5 30.0000000  0  6 27 13 22 01 20 04
  23216563.258    -4151094.836 7  -3216153.08446  23216562.679    23216567.6774
  21360247.675   -19607023.510 8 -15265992.56847  21360247.888    21360250.2314
  21114584.951   -17444902.141 8 -13556475.81747  21114584.077    21114587.6204
  20494371.404   -18979562.615 9 -14772606.10148  20494370.942    20494374.1484
  21719243.500   -16193326.684 8 -12596159.51147  21719242.821    21719246.3844
  23793998.403    -3721576.138 7  -2885669.38545  23793998.327    23794002.6344
 01  7 19  2  6  0.0000000  0  6 27 13 22 01 20 04
  23202227.548    -4226427.886 8  -3274854.03246  23202227.103    23202232.2874
  21349521.713   -19663387.688 8 -15309912.67647  21349521.914    21349524.5184
  21120336.710   -17414676.334 8 -13532923.25147  21120335.846    21120339.4424
  20495270.224   -18974839.137 9 -14768925.47048  20495269.770    20495272.9584
  21735952.929   -16105518.394 8 -12527737.52947  21735952.154    21735956.0554
  23799292.706    -3693752.049 8  -2863988.28045  23799292.882    23799297.4124
 01  7 19  2  6 30.0000000  0  6 27 13 22 01 20 04
  23187927.808    -4301573.747 8  -3333409.12646  23187927.313    23187932.4114
  21338833.355   -19719554.677 8 -15353679.14847  21338833.573    21338836.3464
  21126208.894   -17383817.635 8 -13508877.51647  21126208.031    21126211.6874
  20496223.144   -18969831.635 9 -14765023.52547  20496222.670    20496225.8454
  21752733.244   -16017336.309 8 -12459024.28047  21752732.596    21752736.5354
  23804679.026    -3665447.744 8  -2841933.01045  23804679.243    23804683.8894
 01  7 19  2  7  0.0000000  0  6 27 13 22 01 20 04
  23173663.543    -4376532.816 8  -3391818.68646  23173663.037    23173668.0784
  21328182.598   -19775524.716 8 -15397292.14747  21328182.807    21328185.5874
  21132201.114   -17352327.850 8 -13484340.03447  21132200.342    21132203.9364
  20497230.098   -18964540.411 9 -14760900.50147  20497229.593    20497232.7564
  21769584.429   -15928783.521 8 -12390022.17746  21769583.750    21769587.4074
  23810155.975    -3636665.936 7  -2819505.67645  23810156.142    23810160.8504
 01  7 19  2  7 30.0000000  0  6 27 13 22 01 20 04
  23159434.908    -4451304.262 8  -3450082.03846  23159434.407    23159439.4684
  21317569.679   -19831295.824 9 -15440750.14147  21317569.923    21317572.7834
  21138313.367   -17320208.258 8 -13459311.77647  21138312.521    21138316.0724
  20498291.185   -18958964.402 9 -14756555.56447  20498290.699    20498293.8574
  21786505.882   -15839861.860 8 -12320732.63447  21786505.047    21786508.7774
  23815723.400    -3607407.905 7  -2796707.20845  23815723.838    23815728.5354
 01  7 19  2  8  0.0000000  0  6 27 13 22 01 20 04
  23145241.910    -4525887.844 8  -3508198.99946  23145241.503    23145246.5104
  21306994.644   -19886867.278 8 -15484052.55947  21306994.885    21306997.9304
  21144545.161   -17287460.713 8 -13433794.19747  21144544.187    21144547.7724
  20499406.491   -18953103.376 9 -14751988.53647  20499405.997    20499409.1664
  21803496.695   -15750573.852 8 -12251157.61646  21803495.924    21803499.9704
  23821381.291    -3577675.688 7  -2773539.30145  23821381.671    23821386.3374
 01  7 19  2  8 30.0000000  0  6 27 13 22 01 20 04
  23131084.944    -4600283.098 8  -3566169.22046  23131084.444    23131089.4604
  21296457.791   -19942238.130 8 -15527198.65347  21296458.009    21296461.0804
  21150895.993   -17254086.185 8 -13407788.09246  21150895.080    21150898.7434
  20500576.232   -18946956.573 9 -14747198.82447  20500575.757    20500578.8934
  21820556.686   -15660921.873 8 -12181298.98246  21820556.023    21820560.2944
  23827129.289    -3547471.067 8  -2750003.23645  23827129.511    23827134.1024
 01  7 19  2  9  0.0000000  0  6 27 13 22 01 20 04
  23116963.798    -4674489.410 8  -3623992.21546  23116963.390    23116968.2674
  21285959.509   -19997406.768 8 -15570187.19647  21285959.747    21285962.8294
  21157366.169   -17220085.464 8 -13381294.04846  21157365.291    21157368.8914
  20501800.459   -18940523.111 9 -14742185.74747  20501799.969    20501803.1174
  21837685.948   -15570907.749 8 -12111158.18246  21837685.295    21837689.2444
  23832966.851    -3516795.386 8  -2726100.11345  23832967.000    23832971.5334
 01  7 19  2  9 30.0000000  0  6 27 13 22 01 20 04
  23102878.624    -4748507.268 8  -3681668.36646  23102878.201    23102883.0104
  21275499.763   -20052373.407 9 -15613018.34547  21275499.977    21275502.8804
  21163955.036   -17185460.710 8 -13354313.67046  21163954.160    21163957.6884
  20503079.155   -18933803.445 9 -14736949.65348  20503078.694    20503081.8744
  21854883.496   -15480534.705 8 -12040737.70046  21854882.839    21854886.5484
  23838893.416    -3485651.404 8  -2701832.08745  23838893.438    23838898.0874
 01  7 19  2 10  0.0000000  0  6 27 13 22 01 20 04
  23088829.439    -4822335.793 8  -3739196.96546  23088829.077    23088833.9014
  21265078.939   -20107136.228 9 -15655690.66847  21265079.172    21265081.8394
  21170662.539   -17150213.106 8 -13326848.06446  21170661.526    21170665.0014
  20504412.587   -18926796.291 9 -14731489.54648  20504412.111    20504415.3254
  21872148.879   -15389804.533 8 -11970038.91746  21872148.217    21872152.0994
  23844909.017    -3454040.536 8  -2677200.28545  23844909.022    23844913.3484
 01  7 19  2 10 30.0000000  0  6 27 13 22 01 20 04
  23074816.632    -4895973.029 8  -3796576.50246  23074816.157    23074820.9684
  21254697.364   -20161692.510 8 -15698202.05747  21254697.529    21254700.1544
  21177488.173   -17114342.850 8 -13298897.18246  21177487.370    21177491.0204
  20505801.105   -18919499.424 9 -14725803.67748  20505800.630    20505803.8404
  21889481.999   -15298718.027 8 -11899062.48446  21889481.437    21889485.4464
  23851012.977    -3421962.896 7  -2652204.74345  23851012.949    23851017.6684
 01  7 19  2 11  0.0000000  0  6 27 13 22 01 20 04
  23060840.081    -4969419.582 8  -3853807.48446  23060839.683    23060844.3754
  21244354.972   -20216041.891 9 -15740552.21147  21244355.179    21244357.7944
  21184432.329   -17077851.852 8 -13270462.67846  21184431.483    21184435.0614
  20507244.755   -18911913.277 9 -14719892.40348  20507244.270    20507247.4244
  21906882.430   -15207278.355 8 -11827810.85746  21906881.931    21906885.8664
  23857205.270    -3389421.360 8  -2626847.76145  23857205.440    23857210.2874
 01  7 19  2 11 30.0000000  0  6 27 13 22 01 20 04
  23046899.804    -5042675.562 8  -3910889.94346  23046899.344    23046904.1844
  21234052.091   -20270184.025 8 -15782740.87247  21234052.232    21234054.8914
  21191494.156   -17040741.914 8 -13241545.85546  21191493.224    21191496.8504
  20508743.345   -18904037.959 9 -14713755.79448  20508742.863    20508746.0914
  21924349.692   -15115488.564 8 -11756286.42046  21924349.089    21924352.8014
  23863485.557    -3356418.445 7  -2601131.24945  23863485.653    23863490.5954
 01  7 19  2 12  0.0000000  0  6 27 13 22 01 20 04
  23032995.682    -5115741.263 8  -3967824.16646  23032995.369    23033000.1974
  21223788.672   -20324118.473 9 -15824767.71647  21223788.946    21223791.4934
  21198673.351   -17003015.236 8 -13212148.44546  21198672.414    21198675.9904
  20510296.992   -18895873.360 9 -14707393.77348  20510296.527    20510299.7734
  21941882.742   -15023351.555 8 -11684491.41446  21941882.171    21941885.9824
  23869853.085    -3322956.728 8  -2575057.25745  23869853.224    23869858.2814
 01  7 19  2 12 30.0000000  0  6 27 13 22 01 20 04
  23019128.149    -5188616.265 8  -4024609.77446  23019127.750    23019132.5264
  21213565.248   -20377844.085 9 -15866631.81047  21213565.414    21213567.8854
  21205969.547   -16964673.900 8 -13182272.09846  21205968.574    21205972.0744
  20511905.927   -18887418.688 9 -14700805.72648  20511905.423    20511908.5844
  21959481.332   -14930869.657 8 -11612427.65546  21959480.758    21959484.9384
  23876308.092    -3289037.979 8  -2548627.08745  23876308.036    23876312.7414
 01  7 19  2 13  0.0000000  0  6 27 13 22 01 20 04
  23005297.362    -5261297.933 8  -4081244.75746  23005296.905    23005301.5404
  21203382.142   -20431357.227 9 -15908330.35147  21203382.264    21203384.7774
  21213382.693   -16925716.850 8 -13151915.96646  21213381.821    21213385.4704
  20513570.537   -18878671.194 9 -14693989.50147  20513570.011    20513573.2214
  21977145.793   -14838042.782 8 -11540095.09146  21977145.228    21977149.4454
  23882849.385    -3254661.844 8  -2521840.56345  23882849.607    23882854.3444
 01  7 19  2 13 30.0000000  0  6 27 13 22 01 20 04
  22991502.786    -5333787.966 8  -4137730.42646  22991502.345    22991507.0374
  21193239.161   -20484658.914 9 -15949864.11047  21193239.246    21193241.8334
  21220912.505   -16886147.284 8 -13121082.56146  21220911.619    21220915.3764
  20515290.482   -18869632.201 9 -14686946.13747  20515290.070    20515293.3264
  21994875.402   -14744875.362 8 -11467497.18246  21994874.695    21994878.5584
  23889477.535    -3219832.260 8  -2494700.66145  23889477.488    23889481.7624
 01  7 19  2 14  0.0000000  0  6 27 13 22 01 20 04
  22977744.988    -5406085.522 8  -4194066.11346  22977744.589    22977749.1194
  21183136.669   -20537747.656 9 -15991231.95147  21183136.769    21183139.2864
  21228558.809   -16845966.035 8 -13089772.49846  21228557.875    21228561.6674
  20517066.284   -18860300.727 9 -14679674.87348  20517065.851    20517069.0454
  22012669.124   -14651369.284 8 -11394635.37746  22012668.387    22012672.0734
  23896191.192    -3184550.740 8  -2467208.63545  23896191.291    23896195.7674
 01  7 19  2 14 30.0000000  0  6 27 13 22 01 20 04
  22964023.891    -5478189.908 8  -4250251.24646  22964023.478    22964028.0904
  21173075.183   -20590621.707 9 -16032432.49247  21173075.275    21173077.6804
  21236321.065   -16805174.924 8 -13057987.23246  21236320.142    21236323.8954
  20518897.847   -18850675.892 9 -14672175.01048  20518897.383    20518900.6424
  22030526.514   -14557526.641 8 -11321511.31446  22030526.004    22030529.7344
  23902990.511    -3148818.828 7  -2439365.69445  23902990.684    23902995.6554
 01  7 19  2 15  0.0000000  0  6 27 13 22 01 20 04
  22950339.595    -5550100.575 8  -4306285.44646  22950339.241    22950343.8754
  21163054.562   -20643279.777 8 -16073464.73647  21163054.643    21163057.1544
  21244198.867   -16763775.774 8 -13025728.14046  21244198.108    21244201.7624
  20520785.353   -18840756.810 9 -14664445.86648  20520784.946    20520788.1754
  22048448.010   -14463349.720 8 -11248126.77046  22048447.477    22048451.2164
  23909875.619    -3112638.417 8  -2411173.23245  23909875.756    23909880.6394
 01  7 19  2 15 30.0000000  0  6 27 13 22 01 20 04
  22936691.819    -5621818.909 8  -4362169.80046  22936691.469    22936696.2104
  21153075.028   -20695722.370 9 -16114329.06747  21153075.160    21153077.5814
  21252192.273   -16721771.380 8 -12992997.46746  21252191.274    21252194.9894
  20522728.747   -18830544.613 9 -14656488.31748  20522728.281    20522731.4654
  22066432.506   -14368842.514 8 -11174484.85446  22066431.857    22066435.4594
  23916845.431    -3076013.320 8  -2382634.28345  23916845.533    23916850.3874
 01  7 19  2 16  0.0000000  0  6 27 13 22 01 20 04
  22923081.401    -5693343.633 8  -4417903.28746  22923080.842    22923085.5694
  21143137.083   -20747947.422 9 -16155023.89347  21143137.171    21143139.4344
  21260300.345   -16679162.069 8 -12959795.43347  21260299.511    21260303.3694
  20524728.117   -18820037.488 9 -14648300.94848  20524727.677    20524730.9154
  22084479.409   -14274006.438 8 -11100586.70746  22084478.674    22084482.1714
  23923899.167    -3038944.559 8  -2353749.61345  23923899.449    23923904.2054
 01  7 19  2 16 30.0000000  0  6 27 13 22 01 20 04
  22909507.585    -5764673.285 8  -4473484.75546  22909507.188    22909511.8474
  21133240.996   -20799952.613 9 -16195547.40647  21133241.101    21133243.0374
  21268523.699   -16635948.673 8 -12926122.67547  21268522.848    21268526.6714
  20526783.965   -18809233.939 9 -14639882.60948  20526783.533    20526786.7534
  22102588.155   -14178842.857 8 -11026433.32446  22102587.487    22102591.1904
  23931037.646    -3001432.859 8  -2324519.78945  23931037.927    23931042.6834
 01  7 19  2 17  0.0000000  0  6 27 13 22 01 20 04
  22895970.873    -5835809.137 8  -4528915.20946  22895970.470    22895975.1064
  21123386.772   -20851738.191 9 -16235899.76747  21123386.764    21123388.4904
  21276861.279   -16592134.818 8 -12891982.02147  21276860.376    21276864.1664
  20528896.151   -18798134.767 9 -14631233.91447  20528895.651    20528898.7924
  22120758.664   -14083355.593 8 -10952027.74746  22120758.107    22120761.8704
  23938259.322    -2963482.004 7  -2294947.80145  23938259.547    23938264.8664
 01  7 19  2 17 30.0000000  0  6 27 13 22 01 20 04
  22882471.359    -5906749.492 8  -4584193.36046  22882470.985    22882475.5234
  21113574.473   -20903301.726 9 -16276079.14547  21113574.526    21113576.3074
  21285312.973   -16547720.991 8 -12857373.86147  21285312.055    21285315.7694
  20531064.855   -18786738.245 9 -14622353.52348  20531064.330    20531067.5394
  22138990.967   -13987545.924 8 -10877370.95346  22138990.226    22138993.9344
  23945564.706    -2925092.675 7  -2265034.12645  23945564.810    23945569.3914
 01  7 19  2 18  0.0000000  0  6 27 13 22 01 20 04
  22869008.837    -5977494.849 8  -4639319.55946  22869008.425    22869013.1034
  21103804.550   -20954643.244 9 -16316085.48547  21103804.540    21103806.2794
  21293878.326   -16502709.213 8 -12822299.75847  21293877.515    21293881.1824
  20533290.016   -18775044.604 9 -14613241.59348  20533289.540    20533292.7884
  22157283.644   -13891416.859 8 -10802465.27246  22157282.903    22157286.7594
  23952952.492    -2886267.817 8  -2234781.03945  23952952.716    23952957.6164
 01  7 19  2 18 30.0000000  0  6 27 13 22 01 20 04
  22855583.497    -6048044.711 8  -4694293.40646  22855583.209    22855587.8094
  21094076.981   -21005760.612 9 -16355917.18347  21094077.104    21094078.8634
  21302557.284   -16457101.017 8 -12786760.91447  21302556.487    21302560.1424
  20535572.009   -18763053.185 9 -14603897.63947  20535571.480    20535574.6904
  22175636.196   -13794970.997 8 -10727312.72346  22175635.757    22175639.9604
  23960423.565    -2847009.382 8  -2204190.11945  23960423.673    23960428.2514
 01  7 19  2 19  0.0000000  0  6 27 13 22 01 20 04
  22842195.343    -6118400.383 8  -4749115.92546  22842194.958    22842199.4074
  21084392.263   -21056654.521 9 -16395574.74347  21084392.369    21084394.1614
  21311349.144   -16410900.002 8 -12750760.12947  21311348.281    21311351.9024
  20537910.263   -18750764.894 9 -14594322.34947  20537909.801    20537913.0684
  22194048.975   -13698211.947 8 -10651916.16046  22194048.479    22194052.6704
  23967976.295    -2807321.056 8  -2173264.20345  23967976.315    23967980.8954
 01  7 19  2 19 30.0000000  0  6 27 13 22 01 20 04
  22828844.116    -6188560.224 8  -4803785.87146  22828843.791    22828848.3924
  21074750.538   -21107322.646 9 -16435056.38447  21074750.584    21074752.3344
  21320253.578   -16364107.013 8 -12714298.05447  21320252.716    21320256.3674
  20540305.562   -18738177.680 9 -14584514.15248  20540305.123    20540308.3444
  22212521.301   -13601140.932 8 -10576276.49746  22212520.761    22212524.6294
  23975610.244    -2767203.518 8  -2142003.85345  23975610.400    23975615.3654
 01  7 19  2 20  0.0000000  0  6 27 13 22 01 20 04
  22815530.585    -6258522.999 8  -4858302.25746  22815530.237    22815534.8074
  21065152.121   -21157762.821 9 -16474360.38947  21065152.228    21065153.8884
  21329270.409   -16316722.826 8 -12677375.30747  21329269.574    21329273.3264
  20542757.966   -18725290.177 9 -14574471.95248  20542757.525    20542760.7604
  22231052.263   -13503759.663 8 -10500395.05446  22231051.733    22231055.7924
  23983325.825    -2726658.249 7  -2110410.19545  23983326.029    23983331.2444
 01  7 19  2 20 30.0000000  0  6 27 13 22 01 20 04
  22802254.668    -6328289.100 8  -4912665.37446  22802254.188    22802258.7164
  21055597.271   -21207974.479 9 -16513486.33347  21055597.294    21055598.9604
  21338399.314   -16268749.493 8 -12639993.50146  21338398.535    21338402.3764
  20545267.414   -18712102.378 9 -14564195.74247  20545267.038    20545270.3544
  22249641.661   -13406071.283 8 -10424274.31846  22249641.114    22249645.3604
  23991122.311    -2685687.999 7  -2078485.40145  23991122.252    23991127.5794
 01  7 19  2 21  0.0000000  0  6 27 13 22 01 20 04
  22789015.815    -6397858.538 8  -4966875.27946  22789015.463    22789019.9284
  21046085.825   -21257956.548 9 -16552433.37647  21046085.968    21046087.6964
  21347640.061   -16220189.288 8 -12602154.39746  21347639.196    21347643.1304
  20547834.225   -18698614.036 9 -14553685.35247  20547833.791    20547837.1034
  22268289.199   -13308078.447 8 -10347916.35946  22268288.614    22268293.0364
  23998999.302    -2644295.222 8  -2046231.32045  23998999.269    23999004.0584
 01  7 19  2 21 30.0000000  0  6 27 13 22 01 20 04
  22775814.803    -6467231.399 8  -5020931.96046  22775814.392    22775818.6324
  21036618.425   -21307708.269 9 -16591200.91647  21036618.462    21036620.2154
  21356992.103   -16171044.842 8 -12563860.03947  21356991.193    21356994.9724
  20550458.268   -18684824.883 9 -14542940.56348  20550457.784    20550461.0604
  22286994.339   -13209784.000 8 -10271323.37246  22286993.675    22286998.0154
  24006955.583    -2602482.450 7  -2013649.94045  24006955.851    24006960.4484
 01  7 19  2 22  0.0000000  0  6 27 13 22 01 20 04
  22762651.096    -6536406.447 8  -5074834.52746  22762650.725    22762655.0594
  21027195.034   -21357227.775 9 -16629787.53047  21027195.096    21027197.0494
  21366454.907   -16121317.486 8 -12525111.48747  21366454.022    21366457.7764
  20553139.810   -18670733.560 9 -14531960.32947  20553139.347    20553142.5574
  22305756.340   -13111189.638 8 -10194496.66346  22305755.736    22305760.0664
  24014991.996    -2560251.039 8  -1980742.38845  24014992.396    24014997.2404
 01  7 19  2 22 30.0000000  0  7 27 13 28 22 01 20 04
  22749524.991    -6605383.812 8  -5128583.05546  22749524.702    22749528.9294
  21017816.270   -21406513.774 9 -16668192.16647  21017816.319    21017818.2804
  24026309.506                                    24026308.243    24026378.4834
  21376028.272   -16071009.106 8 -12485910.16447  21376027.404    21376031.2154
  20555878.895   -18656339.916 9 -14520744.51347  20555878.391    20555881.5574
  22324574.833   -13012298.198 8 -10117438.48446  22324574.219    22324578.5924
  24023108.105    -2517603.925 7  -1947510.93445  24023108.209    24023112.7244
 01  7 19  2 23  0.0000000  0  6 27 13 22 01 20 04
  22736436.572    -6674163.753 8  -5182177.72746  22736436.193    22736440.6004
  21008481.728   -21455565.791 9 -16706414.50047  21008481.821    21008484.0534
  21385711.736   -16020121.746 8 -12446257.70447  21385710.861    21385714.8244
  20558675.491   -18641643.648 9 -14509292.87847  20558675.025    20558678.1864
  22343449.264   -12913112.654 8 -10040151.11746  22343448.552    22343452.9884
  24031302.080    -2474543.367 8  -1913957.29145  24031302.255    24031306.9184
 01  7 19  2 23 30.0000000  0  7 27 13 28 22 01 20 04
  22723385.982    -6742744.681 8  -5235617.33346  22723385.538    22723389.9474
  20999192.422   -21504381.363 9 -16744452.57947  20999192.571    20999194.7604
  23984767.919    -1170770.44454                  23984765.882    23984771.5474
  21395505.247   -15968656.430 8 -12406154.84847  21395504.411    21395508.3874
  20561530.045   -18626642.994 9 -14497604.05948  20561529.599    20561532.7624
  22362379.396   -12813634.279 8  -9962635.61446  22362378.677    22362383.1204
  24039574.373    -2431070.604 7  -1880082.50045  24039574.610    24039579.7324
 01  7 19  2 24  0.0000000  0  7 27 13 28 22 01 20 04
  22710372.968    -6811126.954 8  -5288902.13446  22710372.696    22710377.2404
  20989948.246   -21552959.917 9 -16782305.97147  20989948.331    20989950.4634
  23964019.923    -1628251.69417  -1255722.10045  23964019.794    23964025.5134
  21405408.317   -15916616.255 8 -12365604.06747  21405407.395    21405411.2054
  20564442.416   -18611338.023 9 -14485678.11147  20564441.953    20564445.2034
  22381364.580   -12713865.838 8  -9884894.05546  22381363.924    22381368.4524
  24047924.623    -2387188.428 8  -1845888.66345  24047925.037    24047930.1704
 01  7 19  2 24 30.0000000  0  8 27 13 28 22 01 20 08 04
  22697396.084    -6879321.309 8  -5342040.51646  22697395.690    22697400.2084
  20980747.181   -21601310.979 9 -16819982.10947  20980747.361    20980749.5864
  23943289.391    -1737194.494 8  -1340612.41845  23943289.566    23943294.2444
  21415418.200   -15864013.823 8 -12324615.15047  21415417.305    21415421.2034
  20567410.781   -18595739.166 9 -14473523.16747  20567410.328    20567413.5334
  22400402.683   -12613821.192 8  -9806937.29146  22400402.024    22400406.3434
  24667836.442    -2117266.24917  -1634449.21655  24667836.503    24667845.5884
  24056350.713    -2342910.325 7  -1811386.29345  24056351.095    24056356.2544
 01  7 19  2 25  0.0000000  0  8 27 13 28 22 01 20 08 04
  22684457.302    -6947313.946 8  -5395021.70846  22684457.087    22684461.5554
  20971592.474   -21649419.540 9 -16857469.26947  20971592.569    20971594.7774
  23922576.414    -1846042.852 7  -1425429.09545  23922576.615    23922580.5204
  21425537.351   -15810837.406 8 -12283179.03447  21425536.460    21425540.2484
  20570437.771   -18579832.387 9 -14461128.28447  20570437.303    20570440.4634
  22419495.302   -12513489.441 8  -9728756.78246  22419494.626    22419499.0624
  24649442.733    -2213927.310 7  -1709769.32845  24649442.666    24649451.5214
  24064854.280    -2298224.723 7  -1776566.40645  24064854.616    24064859.8374
 01  7 19  2 25 30.0000000  0  8 27 13 28 22 01 20 08 04
  22671557.062    -7015104.995 8  -5447845.82146  22671556.808    22671561.2634
  20962483.801   -21697284.981 9 -16894766.99947  20962483.964    20962486.2344
  23901881.840    -1954794.306 8  -1510170.32645  23901881.601    23901886.2904
  21435765.196   -15757089.257 8 -12241297.36547  21435764.339    21435768.2344
  20573523.301   -18563617.209 9 -14448493.08647  20573522.916    20573526.1384
  22438642.260   -12412873.119 8  -9650354.55646  22438641.511    22438645.7854
  24631070.111    -2310475.692 7  -1785001.67045  24631070.096    24631078.5604
  24073435.095    -2253134.493 8  -1741431.17445  24073435.327    24073439.9424
 01  7 19  2 26  0.0000000  0  8 27 13 28 22 01 20 08 04
  22658694.910    -7082695.674 8  -5500513.81246  22658694.652    22658699.1094
  20953421.601   -21744907.558 9 -16931875.46947  20953421.738    20953423.9864
  23881205.785    -2063448.053 7  -1594835.40645  23881205.686    23881210.0054
  21446101.012   -15702773.475 8 -12198973.41047  21446100.254    21446104.1544
  20576667.480   -18547094.565 9 -14435618.29947  20576667.080    20576670.2994
  22457842.020   -12311976.096 8  -9571733.56646  22457841.380    22457846.0074
  24612718.990    -2406912.358 7  -1860146.97145  24612718.659    24612727.0474
  24082091.744    -2207643.211 7  -1705983.46645  24082091.925    24082096.4994
 01  7 19  2 26 30.0000000  0  8 27 13 28 22 01 20 08 04
  22645871.257    -7150084.199 8  -5553024.29346  22645871.020    22645875.3714
  20944406.167   -21792284.006 9 -16968792.17447  20944406.289    20944408.5284
  23860549.037    -2171999.749 7  -1679420.92645  23860548.696    23860553.4524
  21456544.861   -15647890.702 8 -12156207.63547  21456544.074    21456547.9764
  20579870.599   -18530262.418 9 -14422502.34947  20579870.142    20579873.3394
  22477095.056   -12210799.605 8  -9492894.84646  22477094.551    22477099.2054
  24594389.620    -2503234.834 7  -1935203.31945  24594389.069    24594397.4014
  24090824.266    -2161751.828 7  -1670224.05945  24090824.530    24090829.5384
 01  7 19  2 27  0.0000000  0  8 27 13 28 22 01 20 08 04
  22633086.135    -7217271.454 8  -5605377.95046  22633085.791    22633089.9724
  20935437.563   -21839414.573 9 -17005517.26247  20935437.698    20935439.8404
  23839911.981    -2280448.092 8  -1763925.95445  23839911.683    23839916.7564
  21467095.907   -15592443.739 8 -12113002.20647  21467095.249    21467099.1504
  20583132.456   -18513121.273 9 -14409145.62548  20583132.024    20583135.2014
  22496400.841   -12109347.320 8  -9413841.21246  22496400.346    22496405.0394
  24576081.993    -2599443.509 7  -2010170.96745  24576081.313    24576089.1284
  24099632.366    -2115463.714 7  -1634155.47945  24099632.691    24099638.1334
 01  7 19  2 27 30.0000000  0  8 27 13 28 22 01 20 08 04
  22620338.891    -7284257.897 8  -5657575.13746  22620338.586    22620342.7944
  20926515.729   -21886299.091 9 -17042050.63547  20926515.815    20926517.9964
  23819294.442    -2388791.602 7  -1848349.30645  23819294.146    23819299.6654
  21477754.094   -15536435.515 8 -12069359.44847  21477753.360    21477757.1564
  20586453.025   -18495671.685 9 -14395548.54548  20586452.575    20586455.7804
  22515758.642   -12007622.654 8  -9334575.32446  22515758.064    22515762.6164
  24557795.504    -2695538.393 7  -2085050.01945  24557794.573    24557802.5574
  24108515.741    -2068782.377 8  -1597780.48845  24108516.150    24108521.5514
 01  7 19  2 28  0.0000000  0  8 27 13 28 22 01 20 08 04
  22607629.688    -7351045.322 8  -5709617.19046  22607629.294    22607633.4324
  20917640.610   -21932937.990 9 -17078392.61547  20917640.699    20917642.9084
  23798697.373    -2497029.434 7  -1932690.28045  23798697.096    23798702.5534
  21488518.166   -15479870.138 8 -12025282.54147  21488517.409    21488521.2264
  20589831.974   -18477915.000 9 -14381712.16847  20589831.546    20589834.7824
  22535167.452   -11905630.075 8  -9255100.67046  22535166.858    22535171.1834
  24539531.193    -2791520.378 7  -2159841.03545  24539530.056    24539537.6004
  24117473.336    -2021712.068 7  -1561102.40045  24117473.571    24117478.9504
 01  7 19  2 28 30.0000000  0  8 27 13 28 22 01 20 08 04
  22594958.394    -7417632.495 8  -5761503.22446  22594958.096    22594962.3684
  20908812.595   -21979329.177 9 -17114541.55847  20908812.720    20908814.9924
  23778120.751    -2605158.061 7  -2016946.20245  23778120.460    23778126.3724
  21499387.935   -15422749.390 8 -11980772.90746  21499387.164    21499390.9104
  20593269.689   -18459849.570 9 -14367635.21647  20593269.276    20593272.5114
  22554626.719   -11803371.081 8  -9175418.43846  22554626.197    22554630.3034
  24521287.950    -2887387.978 7  -2234542.92145  24521286.739    24521294.2504
  24126504.241    -1974253.988 7  -1524122.11645  24126504.509    24126509.7514
 01  7 19  2 29  0.0000000  0  8 27 13 28 22 01 20 08 04
  22582325.757    -7484017.550 8  -5813231.76846  22582325.382    22582329.6944
  20900032.438   -22025469.356 9 -17150494.94147  20900032.558    20900034.7724
  23757566.133    -2713173.471 7  -2101113.90745  23757565.810    23757571.7084
  21510363.317   -15365073.469 8 -11935830.65846  21510362.565    21510366.3724
  20596766.632   -18441473.124 9 -14353315.91547  20596766.225    20596769.4394
  22574136.602   -11700846.714 8  -9095529.39746  22574136.000    22574140.2014
  24503066.575    -2983138.254 7  -2309153.43645  24503065.740    24503073.5984
  24135608.862    -1926409.051 7  -1486840.45845  24135609.036    24135614.0764
 01  7 19  2 29 30.0000000  0  8 27 13 28 22 01 20 08 04
  22569731.389    -7550201.086 8  -5864803.28646  22569731.051    22569735.2604
  20891300.036   -22071358.008 9 -17186252.30847  20891300.184    20891302.3574
  23737033.314    -2821073.848 7  -2185191.93245  23737032.775    23737038.2004
  21521443.937   -15306845.045 8 -11890457.89846  21521443.095    21521446.9224
  20600322.727   -18422785.934 9 -14338754.47047  20600322.254    20600325.4794
  22593696.745   -11598060.109 8  -9015436.04246  22593695.890    22593700.0164
  24484867.976    -3078771.612 7  -2383672.82845  24484867.379    24484875.1574
  24144786.354    -1878180.285 7  -1449259.67745  24144786.582    24144791.7684
 01  7 19  2 30  0.0000000  0  8 27 13 28 22 01 20 08 04
  22557175.119    -7616184.461 8  -5916218.85546  22557174.783    22557178.8914
  20882615.538   -22116995.466 9 -17221813.95947  20882615.666    20882617.7614
  23716522.357    -2928858.344 7  -2269179.71445  23716521.844    23716527.8144
  21532628.937   -15248067.948 8 -11844657.56147  21532628.072    21532631.9094
  20603937.768   -18403789.035 9 -14323951.69847  20603937.271    20603940.4984
  22613305.476   -11495015.579 8  -8935141.67846  22613304.665    22613309.1984
  24466691.496    -3174288.657 7  -2458101.54045  24466691.162    24466698.7094
  24154036.326    -1829571.893 7  -1411383.10545  24154036.508    24154041.7354
 01  7 19  2 30 30.0000000  0  8 27 13 28 22 01 20 08 04
  22544657.328    -7681966.102 8  -5967477.20046  22544656.929    22544660.8634
  20873979.234   -22162379.580 9 -17257178.18347  20873979.355    20873981.3334
  23696034.297    -3036522.827 7  -2353073.94745  23696033.978    23696039.6984
  21543918.139   -15188743.273 8 -11798430.57047  21543917.277    21543920.9914
  20607612.134   -18384480.440 9 -14308906.05747  20607611.587    20607614.7714
  22632963.058   -11391714.129 8  -8854647.14846  22632962.316    22632967.0994
  24448537.657    -3269687.166 7  -2532437.87745  24448537.489    24448544.9434
  24163358.412    -1780584.863 7  -1373211.46145  24163358.666    24163363.8264
 01  7 19  2 31  0.0000000  0  8 27 13 28 22 01 20 08 04
  22532177.575    -7747546.431 8  -6018578.69746  22532177.288    22532181.3144
  20865391.400   -22207509.003 9 -17292343.94247  20865391.460    20865393.4334
  23675569.325    -3144065.458 8  -2436873.25145  23675568.895    23675574.9944
  21555310.873   -15128874.251 8 -11751779.41846  21555309.999    21555313.7104
  20611345.664   -18364860.352 9 -14293617.68247  20611345.143    20611348.3754
  22652668.978   -11288159.040 8  -8773954.95546  22652668.224    22652673.0724
  24430406.612    -3364966.907 7  -2606681.70545  24430406.392    24430413.6874
  24172751.849    -1731222.069 7  -1334747.06645  24172752.041    24172757.4064
 01  7 19  2 31 30.0000000  0  8 27 13 28 22 01 20 08 04
  22519736.424    -7812925.171 8  -6069523.09646  22519735.992    22519739.9784
  20856852.129   -22252382.674 9 -17327310.44647  20856852.281    20856854.2174
  23655128.722    -3251483.774 8  -2520575.67145  23655128.005    23655133.8284
  21566806.812   -15068462.636 8 -11704705.42746  21566805.991    21566809.6524
  20615138.672   -18344928.146 9 -14278086.10147  20615138.147    20615141.3854
  22672422.857   -11184352.884 8  -8693067.15046  22672422.039    22672426.6574
  24412298.018    -3460126.846 7  -2680832.16645  24412297.758    24412305.4094
  24182216.550    -1681486.355 7  -1295992.05945  24182216.739    24182221.9814
 01  7 19  2 32  0.0000000  0  8 27 13 28 22 01 20 08 04
  22507333.512    -7878102.360 8  -6120310.44946  22507333.127    22507337.1044
  20848361.972   -22296999.584 9 -17362076.85547  20848362.059    20848363.8724
  23634711.724    -3358775.422 8  -2604179.40645  23634711.200    23634716.7384
  21578405.600   -15007510.671 8 -11657210.41746  21578404.682    21578408.3114
  20618991.124   -18324683.541 9 -14262311.09047  20618990.580    20618993.8084
  22692223.561   -11080298.379 8  -8611985.81046  22692222.841    22692227.5104
  24394212.726    -3555166.811 7  -2754889.12445  24394212.298    24394219.7904
  24191751.509    -1631380.157 7  -1256948.31245  24191751.660    24191756.5864
 01  7 19  2 32 30.0000000  0  8 27 13 28 22 01 20 08 04
  22494969.361    -7943076.678 8  -6170939.71346  22494968.917    22494972.8824
  20839920.809   -22341357.148 9 -17396641.18347  20839920.993    20839922.8954
  23614319.596    -3465936.779 8  -2687681.59845  23614319.148    23614324.2054
  21590106.948   -14946019.576 8 -11609295.31046  21590106.090    21590109.8234
  20622903.240   -18304124.819 9 -14246291.32447  20622902.721    20622905.9534
  22712071.393   -10975996.959 8  -8530712.06846  22712070.720    22712075.4364
  24376150.353    -3650084.735 7  -2828850.95445  24376149.913    24376157.2444
  24201356.268    -1580904.835 7  -1217616.96845  24201356.669    24201361.8804
 01  7 19  2 33  0.0000000  0  8 27 13 28 22 01 20 08 04
  22482643.611    -8007848.860 8  -6221411.46246  22482643.140    22482647.1814
  20831529.157   -22385455.172 9 -17431003.25647  20831529.342    20831531.3114
  23593952.430    -3572966.047 8  -2771080.91945  23593951.897    23593957.2684
  21601910.247   -14883993.136 8 -11560963.04946  21601909.339    21601913.0564
  20626875.143   -18283252.367 9 -14230027.09547  20626874.632    20626877.8894
  22731965.794   -10871452.137 8  -8449248.66346  22731965.108    22731969.8854
  24358111.082    -3744880.473 7  -2902717.57245  24358110.651    24358118.0794
  24211031.252    -1530063.799 7  -1178000.67145  24211031.491    24211036.8894
 01  7 19  2 33 30.0000000  0  8 27 13 28 22 01 20 08 04
  22470356.108    -8072419.162 8  -6271725.92446  22470355.786    22470359.8274
  20823187.154   -22429292.560 9 -17465162.26747  20823187.347    20823189.3414
  23573610.696    -3679861.206 7  -2854375.69045  23573610.200    23573615.2794
  21613814.593   -14821434.101 8 -11512215.74046  21613813.848    21613817.7444
  20630906.698   -18262066.125 9 -14213518.33447  20630906.211    20630909.4924
  22751905.812   -10766667.025 8  -8367598.04346  22751905.144    22751909.9694
  24340095.674    -3839553.985 7  -2976488.94645  24340094.754    24340102.3804
  24220775.498    -1478860.035 7  -1138101.74245  24220775.476    24220780.6554
 01  7 19  2 34  0.0000000  0  8 27 13 28 22 01 20 08 04
  22458107.617    -8136786.221 8  -6321881.98046  22458107.116    22458111.0874
  20814895.349   -22472866.909 9 -17499116.30047  20814895.477    20814897.4084
  23553295.034    -3786618.806 7  -2937563.26845  23553294.655    23553300.1194
  21625820.604   -14758343.065 8 -11463053.90946  21625819.747    21625823.6464
  20634998.332   -18240564.458 9 -14196763.80547  20634997.888    20635001.1594
  22771891.092   -10661643.122 8  -8285761.33246  22771890.449    22771895.5444
  24322103.154    -3934103.283 7  -3050163.57845  24322102.349    24322110.2224
  24230587.766    -1427294.826 7  -1097921.11445  24230587.883    24230593.2704
 01  7 19  2 34 30.0000000  0  8 27 13 28 22 01 20 08 04
  22445897.420    -8200950.243 8  -6371879.84946  22445896.988    22445901.0704
  20806653.658   -22516177.670 9 -17532864.94847  20806653.793    20806655.6404
  23533005.943    -3893236.465 8  -3020641.82645  23533005.699    23533011.3854
  21637927.048   -14694722.784 8 -11413479.73046  21637926.245    21637930.1194
  20639150.013   -18218747.389 9 -14179763.51947  20639149.554    20639152.8394
  22791921.213   -10556383.496 8  -8203740.94446  22791920.632    22791925.7504
  24304134.641    -4028527.897 7  -3123740.98145  24304133.909    24304141.5264
  24240468.557    -1375371.322 7  -1057461.34645  24240468.673    24240474.2464
 01  7 19  2 35  0.0000000  0  8 27 13 28 22 01 20 08 04
  22433725.785    -8264911.805 8  -6421719.95346  22433725.385    22433729.4024
  20798462.307   -22559223.530 9 -17566407.18947  20798462.454    20798464.2114
  23512744.234    -3999712.359 8  -3103609.88745  23512743.826    23512749.6044
  21650133.760   -14630576.811 8 -11363495.84346  21650132.925    21650136.7164
  20643361.624   -18196615.025 9 -14162517.51747  20643361.198    20643364.5434
  22811995.919   -10450891.166 8  -8121539.22946  22811995.274    22812000.3564
  24286189.780    -4122827.987 7  -3197221.44745  24286189.071    24286196.7234
  24250416.904    -1323092.648 7  -1016724.80345  24250416.885    24250422.3334
 01  7 19  2 35 30.0000000  0  8 27 13 28 22 01 20 08 04
  22421593.016    -8328670.514 8  -6471402.02646  22421592.604    22421596.5744
  20790321.656   -22602003.166 9 -17599741.97247  20790321.810    20790323.4104
  23492509.963    -4106044.010 8  -3186465.54745  23492509.764    23492515.2094
  21662439.806   -14565907.628 8 -11313104.30546  21662438.945    21662442.8664
  20647633.415   -18174166.630 9 -14145025.28447  20647633.021    20647636.3144
  22832114.333   -10345168.696 8  -8039158.18846  22832113.796    22832118.7314
  24268268.857    -4217002.164 7  -3270603.76045  24268268.168    24268275.8024
  24260432.615    -1270461.282 7   -975713.39545  24260432.662    24260437.6794
 01  7 19  2 36  0.0000000  0  8 27 13 28 22 01 20 08 04
  22409498.904    -8392224.949 8  -6520924.91247  22409498.616    22409502.4594
  20782232.110   -22644514.348 9 -17632867.58447  20782232.230    20782233.8174
  23472304.039    -4212227.547 8  -3269205.79645  23472303.772    23472309.1174
  21674845.351   -14500715.991 8 -11262305.64046  21674844.547    21674848.4314
  20651965.741   -18151400.388 9 -14127285.37747  20651965.302    20651968.5364
  22852276.430   -10239217.490 8  -7956598.92046  22852275.808    22852280.7734
  24250372.307    -4311048.956 7  -3343886.80545  24250371.637    24250379.1784
  24270514.487    -1217478.406 7   -934428.12145  24270514.872    24270520.2214
 01  7 19  2 36 30.0000000  0  8 27 13 28 22 01 20 08 04
  22397443.662    -8455575.920 8  -6570289.23247  22397443.253    22397447.1544
  20774193.645   -22686756.683 9 -17665783.69847  20774193.765    20774195.3854
  23452126.382    -4318261.296 7  -3351829.32545  23452126.042    23452131.5514
  21687349.841   -14435004.884 8 -11211102.19646  21687349.051    21687352.7584
  20656358.372   -18128316.877 9 -14109298.24347  20656357.961    20656361.2434
  22872480.914   -10133041.156 8  -7873864.21246  22872480.351    22872485.5124
  24232500.121    -4404968.583 7  -3417070.67745  24232499.241    24232506.2824
  24280662.697    -1164147.680 7   -892871.81845  24280663.287    24280668.7844
 01  7 19  2 37  0.0000000  0  8 27 13 28 22 01 20 08 04
  22385426.868    -8518723.794 8  -6619495.30747  22385426.562    22385430.4594
  20766206.436   -22728729.372 9 -17698489.70247  20766206.585    20766208.2654
  23431977.547    -4424143.241 8  -3434334.58845  23431977.260    23431982.5834
  21699952.475   -14368777.404 8 -11159496.40946  21699951.726    21699955.4124
  20660811.453   -18104916.036 9 -14091063.83947  20660811.008    20660814.2554
  22892728.111   -10026642.539 8  -7790956.30346  22892727.435    22892732.4684
  24214651.623    -4498759.793 7  -3490154.55045  24214650.906    24214658.5214
  24290876.824    -1110471.944 7   -851046.65545  24290877.365    24290883.1814
 01  7 19  2 37 30.0000000  0  8 27 13 28 22 01 20 08 04
  22373448.955    -8581668.151 8  -6668542.79847  22373448.614    22373452.5994
  20758271.075   -22770430.236 9 -17730983.89847  20758271.158    20758272.9344
  23411858.379    -4529870.592 8  -3516719.33945  23411857.809    23411862.9794
  21712652.868   -14302036.386 8 -11107490.41746  21712652.153    21712655.8174
  20665324.973   -18081197.160 9 -14072581.62247  20665324.573    20665327.7804
  22913016.728    -9920024.196 8  -7707877.19246  22913016.209    22913021.2304
  24196828.402    -4592422.738 7  -3563138.50445  24196827.465    24196835.1014
  24301156.322    -1056453.942 7   -808954.83945  24301156.759    24301162.6554
 01  7 19  2 38  0.0000000  0  8 27 13 28 22 01 20 08 04
  22361509.748    -8644408.717 8  -6717431.49747  22361509.389    22361513.3734
  20750387.547   -22811858.409 9 -17763265.59347  20750387.626    20750389.5074
  23391768.551    -4635440.897 8  -3598981.76345  23391768.116    23391773.4024
  21725450.668   -14234784.145 8 -11055086.08946  21725449.864    21725453.5324
  20669899.202   -18057159.810 9 -14053851.23047  20669898.757    20669902.0174
  22933346.941    -9813188.857 8  -7624629.00846  22933346.414    22933351.3914
  24179029.491    -4685955.934 7  -3636021.37345  24179028.417    24179036.0664
  24311500.458    -1002096.123 7   -766598.17045  24311500.818    24311506.6144
 01  7 19  2 38 30.0000000  0  8 27 13 28 22 01 20 08 04
  22349609.317    -8706945.273 8  -6766161.24847  22349609.027    22349613.0134
  20742556.089   -22853012.408 9 -17795333.64647  20742556.197    20742558.1654
  23371709.328    -4740851.733 8  -3681119.88545  23371708.973    23371713.9244
  21738345.253   -14167022.466 8 -11002284.81646  21738344.507    21738348.2314
  20674534.090   -18032803.365 9 -14034872.19547  20674533.648    20674536.9024
  22953718.030    -9706138.774 8  -7541213.47046  22953717.482    22953722.5724
  24161255.238    -4779359.078 7  -3708802.83745  24161254.372    24161261.5874
  24321908.671     -947400.838 7   -723978.54045  24321909.103    24321914.9884
 01  7 19  2 39  0.0000000  0  8 27 13 28 22 01 20 08 04
  22337748.039    -8769276.866 8  -6814731.29946  22337747.699    22337751.5984
  20734777.365   -22893890.261 9 -17827186.52247  20734777.482    20734779.3354
  23351681.074    -4846099.510 8  -3763130.97145  23351680.798    23351685.7994
  21751336.457   -14098753.163 8 -10949087.98046  21751335.704    21751339.4934
  20679229.915   -18008126.649 9 -14015643.62147  20679229.467    20679232.7014
  22974129.227    -9598876.074 8  -7457632.24546  22974128.862    22974134.2884
  24143505.723    -4872630.289 7  -3781481.57545  24143505.289    24143512.8104
  24332380.764     -892370.147 7   -681097.59345  24332380.904    24332387.2004
 01  7 19  2 39 30.0000000  0  8 27 13 28 22 01 20 08 04
  22325925.403    -8831404.526 8  -6863142.43346  22325925.163    22325929.0564
  20727051.167   -22934491.833 9 -17858824.11947  20727051.261    20727053.1194
  23331684.216    -4951183.004 8  -3845014.07245  23331684.031    23331688.7844
  21764423.631   -14029980.126 8 -10895498.61046  21764422.804    21764426.6224
  20683986.497   -17983130.385 9 -13996166.00847  20683986.034    20683989.4274
  22994580.612    -9491404.439 8  -7373888.24246  22994580.123    22994585.6894
  24125781.983    -4965770.060 7  -3854057.87045  24125781.449    24125788.7284
  24342915.809     -837007.608 7   -637958.05645  24342915.970    24342922.6964
 01  7 19  2 40  0.0000000  0  8 27 13 28 22 01 20 08 04
  22314141.708    -8893328.017 8  -6911394.45446  22314141.332    22314145.3624
  20719377.719   -22974815.365 9 -17890245.04547  20719377.883    20719379.8014
  23311719.484    -5056099.697 8  -3926767.13345  23311719.183    23311723.4674
  21777605.874   -13960706.216 8 -10841518.96146  21777605.138    21777609.0374
  20688804.131   -17957814.103 9 -13976439.05747  20688803.649    20688806.9534
  23015071.050    -9383726.409 8  -7289983.39446  23015070.559    23015076.2404
  24108082.650    -5058777.787 7  -3926531.30245  24108082.373    24108089.6944
  24353513.980     -781316.142 7   -594562.17945  24353514.052    24353520.5994
 01  7 19  2 40 30.0000000  0  8 27 13 28 22 01 20 08 04
  22302396.985    -8955046.748 8  -6959486.92147  22302396.642    22302400.7304
  20711757.708   -23014859.123 9 -17921447.95147  20711757.828    20711759.6474
  23291786.603    -5160846.537 8  -4008387.91345  23291786.472    23291790.8204
  21790883.414   -13890933.010 8 -10787150.26246  21790882.646    21790886.4424
  20693682.874   -17932176.740 9 -13956461.91947  20693682.362    20693685.5654
  23035600.410    -9275843.953 8  -7205919.28146  23035599.936    23035605.6484
  24090409.724    -5151651.742 7  -3998900.47145  24090409.126    24090415.9764
  24364174.366     -725297.740 7   -550911.55145  24364174.293    24364180.4814
 01  7 19  2 41  0.0000000  0  8 27 13 28 22 01 20 08 04
  22290691.100    -9016561.658 8  -7007420.59447  22290690.696    22290694.7904
  20704190.853   -23054622.870 9 -17952432.68747  20704190.987    20704192.8724
  23271886.483    -5265422.014 8  -4089875.13845  23271886.369    23271890.6544
  21804255.164   -13820663.897 8 -10732395.11746  21804254.349    21804258.2484
  20698622.489   -17906218.716 9 -13936234.89847  20698622.012    20698625.3144
  23056168.205    -9167760.885 8  -7121698.83846  23056167.666    23056173.1994
  24072761.184    -5244392.825 7  -4071166.07845  24072760.796    24072767.8774
  24374895.631     -668956.103 7   -507009.06345  24374895.681    24374902.1484
 01  7 19  2 41 30.0000000  0  8 27 13 28 22 01 20 08 04
  22279024.548    -9077870.387 8  -7055193.59247  22279024.053    22279028.0234
  20696678.038   -23094103.024 9 -17983196.44547  20696678.178    20696680.0844
  23252019.785    -5369821.514 8  -4171225.28545  23252019.483    23252024.1424
  21817721.068   -13749899.289 8 -10677253.89646  21817720.346    21817724.3404
  20703623.515   -17879937.540 9 -13915756.07347  20703623.060    20703626.4724
  23076773.872    -9059477.876 8  -7037322.56146  23076773.302    23076779.0454
  24055139.031    -5336997.961 8  -4143325.80245  24055138.613    24055145.7224
  24385678.506     -612291.689 7   -462855.04145  24385678.636    24385684.6574
 01  7 19  2 42  0.0000000  0  8 27 13 28 22 01 20 08 04
  22267396.494    -9138975.751 8  -7102808.12647  22267396.112    22267400.0564
  20689218.908   -23133301.431 9 -18013740.62347  20689219.002    20689220.8754
  23232186.562    -5474045.384 8  -4252438.53545  23232186.372    23232190.8824
  21831280.485   -13678645.175 8 -10621731.22046  21831279.630    21831283.5934
  20708685.769   -17853335.578 9 -13895027.30847  20708685.265    20708688.5994
  23097416.460    -8951000.326 8  -6952794.73145  23097415.951    23097421.8754
  24037542.628    -5429468.914 7  -4215380.91945  24037541.918    24037548.6884
  24396522.130     -555310.119 7   -418453.85045  24396522.159    24396527.7544
 01  7 19  2 42 30.0000000  0  8 27 13 28 22 01 20 08 04
  22255807.691    -9199875.216 8  -7150262.23247  22255807.245    22255811.0994
  20681813.890   -23172214.227 9 -18044062.27147  20681814.078    20681816.0614
  23212387.936    -5578088.902 8  -4333511.26945  23212387.539    23212391.8834
  21844932.823   -13606901.694 8 -10565827.24846  21844931.989    21844936.0474
  20713809.601   -17826410.077 9 -13874046.39847  20713809.078    20713812.4384
  23118096.449    -8842328.445 8  -6868115.48045  23118095.795    23118101.4844
  24019971.478    -5521803.053 8  -4287329.48845  24019971.069    24019977.9544
  24407425.688     -498011.802 7   -373805.88145  24407425.781    24407431.5974
 01  7 19  2 43  0.0000000  0  8 27 13 28 22 01 20 08 04
  22244257.983    -9260569.293 8  -7197556.28347  22244257.521    22244261.4064
  20674463.673   -23210840.157 9 -18074160.38047  20674463.836    20674465.7474
  23192623.721    -5681949.842 8  -4414441.72045  23192623.262    23192627.6304
  21858677.680   -13534671.556 8 -10509544.06246  21858676.962    21858681.0314
  20718994.859   -17799161.168 9 -13852813.51147  20718994.418    20718997.7554
  23138812.267    -8733465.525 8  -6783287.33245  23138811.764    23138817.2384
  24002427.248    -5614000.146 7  -4359171.20945  24002426.636    24002433.2754
  24418388.413     -440399.857 7   -328913.54045  24418388.512    24418394.9594
 01  7 19  2 43 30.0000000  0  8 27 13 28 22 01 20 08 04
  22232747.191    -9321058.257 8  -7244690.51447  22232746.839    22232750.7164
  20667168.188   -23249178.646 9 -18104034.49947  20667168.297    20667170.0724
  23172894.537    -5785626.167 8  -4495228.35345  23172894.199    23172898.5884
  21872514.861   -13461957.556 8 -10452883.83346  21872514.013    21872517.9784
  20724241.739   -17771588.824 9 -13831328.59147  20724241.226    20724244.6114
  23159564.111    -8624414.230 8  -6698312.44645  23159563.598    23159568.8974
  23984908.303    -5706059.447 8  -4430905.62445  23984907.924    23984914.8044
  24429411.158     -382477.338 7   -283779.13345  24429411.090    24429416.8454
 01  7 19  2 44  0.0000000  0  8 27 13 28 22 01 20 08 04
  22221275.573    -9381342.373 8  -7291665.11847  22221275.141    22221279.0334
  20659927.521   -23287228.807 9 -18133683.95847  20659927.640    20659929.3564
  23153201.254    -5889115.882 8  -4575869.53145  23153200.544    23153205.2054
  21886443.241   -13388763.062 8 -10395849.18046  21886442.421    21886446.3724
  20729550.105   -17743693.041 9 -13809591.62147  20729549.631    20729553.0974
  23180350.847    -8515178.058 8  -6613193.46345  23180350.486    23180355.9844
  23967416.666    -5797981.309 8  -4502532.90045  23967415.983    23967422.3114
  24440492.086     -324247.552 7   -238405.33845  24440491.989    24440497.8684
 01  7 19  2 44 30.0000000  0  8 27 13 28 22 01 20 08 04
  22209842.985    -9441420.508 8  -7338479.19947  22209842.636    22209846.5384
  20652742.082   -23324988.383 9 -18163106.98547  20652742.204    20652744.0154
  23133543.601    -5992415.507 8  -4656362.63745  23133543.111    23133547.7784
  21900462.644   -13315090.134 8 -10338441.72146  21900461.926    21900465.9604
  20734920.373   -17715472.459 9 -13787601.59547  20734919.884    20734923.2384
  23201172.946    -8405758.516 8  -6527931.59545  23201172.512    23201178.0824
  23949950.485    -5889763.715 7  -4574051.54445  23949949.936    23949956.6204
  24451630.855     -265712.515 7   -192793.72045  24451630.759    24451637.0374
 01  7 19  2 45  0.0000000  0  8 27 13 28 22 01 20 08 04
  22198449.693    -9501292.380 8  -7385132.57747  22198449.373    22198453.3464
  20645612.303   -23362455.681 9 -18192302.25347  20645612.410    20645614.2114
  23113922.678    -6095522.440 8  -4736705.60045  23113922.245    23113926.9904
  21914572.827   -13240941.011 8 -10280663.23146  21914572.008    21914576.0644
  20740352.422   -17686926.583 9 -13765358.07547  20740351.943    20740355.3724
  23222029.587    -8296158.149 8  -6442528.84345  23222029.003    23222034.3924
  23932511.549    -5981405.930 7  -4645460.93145  23932511.067    23932517.6154
  24462827.166     -206874.359 7   -146945.84545  24462827.266    24462833.2514
 01  7 19  2 45 30.0000000  0  8 27 13 28 22 01 20 08 04
  22187095.622    -9560958.614 8  -7431625.70847  22187095.274    22187099.1494
  20638538.236   -23399630.070 9 -18221269.28847  20638538.387    20638540.1464
  23094339.181    -6198434.826 8  -4816896.95745  23094338.603    23094343.3164
  21928772.793   -13166318.440 8 -10222515.79746  21928772.137    21928776.3024
  20745846.460   -17658055.587 9 -13742861.21347  20745845.980    20745849.3374
  23242919.683    -8186380.316 8  -6356987.80545  23242919.141    23242924.4904
  23915099.084    -6072908.069 7  -4716761.09345  23915098.634    23915105.0504
  24474081.066     -147736.576 7   -100864.50445  24474081.106    24474086.8144
 01  7 19  2 46  0.0000000  0  8 27 13 28 22 01 20 08 04
  22175780.482    -9620419.992 8  -7477959.23147  22175780.157    22175784.0344
  20631520.119   -23436510.972 9 -18250007.65247  20631520.236    20631521.9954
  23074792.548    -6301151.127 8  -4896935.54646  23074792.184    23074797.0854
  21943062.692   -13091226.275 8 -10164002.45846  21943061.774    21943065.8684
  20751402.194   -17628860.025 9 -13720111.44647  20751401.714    20751405.0654
  23263842.819    -8076428.482 8  -6271311.17545  23263842.437    23263847.5964
  23897713.216    -6164269.802 7  -4787951.92345  23897712.648    23897719.3894
  24485391.131      -88303.058 7    -54552.76545  24485390.997    24485397.0844
 01  7 19  2 46 30.0000000  0  8 27 13 28 22 01 20 08 04
  22164504.525    -9679675.909 8  -7524132.65047  22164504.104    22164507.9194
  20624558.091   -23473096.650 9 -18278515.95147  20624558.205    20624559.9584
  23055284.134    -6403668.316 8  -4976818.94946  23055283.579    23055288.6664
  21957441.231   -13015666.936 8 -10105125.09846  21957440.380    21957444.3004
  20757019.871   -17599338.736 9 -13697107.86247  20757019.435    20757022.8114
  23284799.348    -7966304.701 8  -6185500.59545  23284798.679    23284803.6074
  23880354.661    -6255490.359 7  -4859032.72845  23880354.135    23880360.6634
  24496756.956      -28575.858 7     -8012.19845  24496756.788    24496763.1634
 01  7 19  2 47  0.0000000  0  8 27 13 28 22 01 20 08 04
  22153267.660    -9738726.096 8  -7570145.74647  22153267.273    22153270.9784
  20617652.586   -23509385.505 9 -18306792.95147  20617652.706    20617654.3924
  23035814.162    -6505983.674 8  -5056545.06746  23035813.818    23035818.6024
  21971908.106   -12939643.188 8 -10045885.81646  21971907.266    21971911.1634
  20762699.556   -17569491.444 9 -13673850.23647  20762699.113    20762702.5994
  23305787.447    -7856011.621 8  -6099558.05645  23305786.808    23305791.9664
  23863022.677    -6346568.924 7  -4930002.91145  23863022.174    23863029.0134
  24508178.130       31442.417 7     38755.16845  24508177.981    24508184.0094
 01  7 19  2 47 30.0000000  0  8 27 13 28 22 01 20 08 04
  22142069.982    -9797569.399 8  -7615997.64947  22142069.674    22142073.4224
  20610803.953   -23545375.238 9 -18334836.88947  20610804.047    20610805.7584
  23016383.134    -6608093.704 8  -5136111.23546  23016382.720    23016387.6784
  21986463.079   -12863155.992 8  -9986285.46646  21986462.239    21986466.1404
  20768441.698   -17539316.602 9 -13650337.41147  20768441.247    20768444.6734
  23326807.845    -7745550.764 8  -6013484.77845  23326807.038    23326812.3504
  23845718.266    -6437503.578 7  -5000860.90945  23845717.903    23845724.2514
  24519654.260       91750.025 7     85748.09445  24519654.206    24519660.0514
 01  7 19  2 48  0.0000000  0  8 27 13 28 22 01 20 08 04
  22130911.726    -9856206.953 8  -7661689.20947  22130911.319    22130915.0454
  20604012.233   -23581065.475 9 -18362647.44247  20604012.359    20604014.1664
  22996991.552    -6709997.215 8  -5215516.42146  22996991.335    22996995.9774
  22001105.474   -12786209.242 8  -9926326.96246  22001104.722    22001108.7734
  20774246.058   -17508814.894 9 -13626569.84447  20774245.529    20774249.0164
  23347859.072    -7634925.900 7  -5927283.74645  23347858.194    23347863.7654
  23828441.096    -6528294.638 7  -5071607.01445  23828440.644    23828447.1024
  24531185.000      152343.021 7    132963.32445  24531184.914    24531190.9234
 01  7 19  2 48 30.0000000  0  8 27 13 28 22 01 20 08 04
  22119792.429    -9914638.259 8  -7707220.06047  22119792.096    22119795.8984
  20597277.789   -23616454.556 9 -18390223.32647  20597277.951    20597279.8454
  22977639.776    -6811691.102 8  -5294758.33446  22977639.441    22977644.1934
  22015835.112   -12708805.355 8  -9866012.30146  22015834.295    22015838.2514
  20780112.643   -17477985.694 9 -13602547.12147  20780112.217    20780115.5734
  23368940.542    -7524139.522 8  -5840956.83545  23368939.949    23368945.8224
  23811191.492    -6618941.412 7  -5142240.71145  23811191.025    23811197.5984
  24542769.307      213218.967 7    180399.03845  24542769.304    24542775.0884
 01  7 19  2 49  0.0000000  0  8 27 13 28 22 01 20 08 04
  22108712.531    -9972863.630 8  -7752590.45647  22108712.167    22108715.8404
  20590600.896   -23651541.840 9 -18417564.05347  20590601.004    20590602.9604
  22958328.380    -6913173.698 8  -5373835.59846  22958327.861    22958332.4734
  22030651.100   -12630947.976 8  -9805344.26846  22030650.128    22030654.0034
  20786041.488   -17446829.091 9 -13578269.25947  20786041.053    20786044.4974
  23390052.661    -7413194.707 8  -5754506.46245  23390052.073    23390057.9474
  23793969.403    -6709443.738 8  -5212761.83245  23793968.979    23793975.3824
  24554407.052      274374.557 7    228052.63145  24554406.948    24554412.7174
 01  7 19  2 49 30.0000000  0  8 27 13 28 22 01 20 08 04
  22097671.964   -10030881.973 8  -7797799.52847  22097671.541    22097675.3014
  20583981.877   -23686324.875 9 -18444667.71247  20583982.006    20583984.0084
  22939057.762    -7014441.367 8  -5452745.36646  22939057.232    22939061.7024
  22045552.692   -12552638.797 8  -9744324.15746  22045551.822    22045555.8224
  20792032.930   -17415343.732 9 -13553735.21847  20792032.555    20792035.9894
  23411195.044    -7302092.878 8  -5667933.75245  23411194.327    23411199.8094
  23776775.137    -6799799.564 8  -5283168.82145  23776774.692    23776781.2324
  24566096.902      335807.994 7    275922.74145  24566097.135    24566103.0014
 01  7 19  2 50  0.0000000  0  8 27 13 28 22 01 20 08 04
  22086670.729   -10088693.651 8  -7842847.56647  22086670.376    22086674.0394
  20577421.102   -23720802.438 9 -18471533.33048  20577421.208    20577423.1304
  22919828.202    -7115491.987 8  -5531486.01846  22919827.734    22919832.2664
  22060539.694   -12473880.249 8  -9682953.87446  22060538.907    22060543.0504
  20798087.044   -17383529.455 9 -13528944.90047  20798086.604    20798090.0594
  23432366.162    -7190837.153 8  -5581241.10845  23432365.620    23432371.1824
  23759608.526    -6890009.032 7  -5353461.76245  23759608.346    23759614.8324
  24577839.256      397516.151 7    324006.91645  24577839.567    24577845.8464
 01  7 19  2 50 30.0000000  0  8 27 13 28 22 01 20 08 04
  22075709.001   -10146297.936 8  -7887733.99147  22075708.585    22075712.2914
  20570918.811   -23754972.584 9 -18498159.39648  20570918.889    20570920.7404
  22900640.608    -7216322.702 8  -5610055.28546  22900640.117    22900644.7544
  22075612.248   -12394674.501 8  -9621235.18646  22075611.332    22075615.4134
  20804203.881   -17351385.508 9 -13503897.67747  20804203.480    20804206.8924
  23453566.252    -7079429.639 8  -5494430.16245  23453565.684    23453571.5104
  23742470.062    -6980070.634 7  -5423639.43145  23742469.940    23742476.4044
  24589633.874      459496.805 7    372303.38545  24589634.110    24589640.8554
 01  7 19  2 51  0.0000000  0  8 27 13 28 22 01 20 08 04
  22064786.379   -10203696.630 8  -7932460.22047  22064786.066    22064789.7134
  20564474.625   -23788836.096 9 -18524546.52847  20564474.791    20564476.6674
  22881495.057    -7316932.885 8  -5688452.71846  22881494.610    22881499.0014
  22090768.727   -12315026.650 8  -9559171.95946  22090767.920    22090771.9574
  20810383.052   -17318913.295 9 -13478594.66447  20810382.622    20810386.1394
  23474794.545    -6967874.810 8  -5407504.48645  23474794.048    23474799.8624
  23725360.026    -7069985.976 7  -5493703.13945  23725359.685    23725365.9444
  24601479.248      521745.295 7    420808.60245  24601479.710    24601486.3974
 01  7 19  2 51 30.0000000  0  8 27 13 28 22 01 20 08 04
  22053902.943   -10260889.067 8  -7977025.73747  22053902.621    22053906.3014
  20558089.320   -23822390.930 9 -18550693.15047  20558089.491    20558091.3594
  22862392.037    -7417319.282 8  -5766675.79846  22862391.576    22862395.9944
  22106008.875   -12234939.190 8  -9496766.17446  22106008.139    22106012.1244
  20816624.958   -17286112.043 9 -13453035.26647  20816624.540    20816627.9984
  23496050.467    -6856174.985 7  -5320465.78945  23496049.973    23496055.8984
  23708277.609    -7159753.453 8  -5563651.71245  23708277.242    23708283.6714
  24613375.644      584259.160 7    469520.57945  24613375.734    24613382.4804
 01  7 19  2 52  0.0000000  0  8 27 13 28 22 01 20 08 04
  22043058.933   -10317874.930 8  -8021430.27747  22043058.568    22043062.3234
  20551763.189   -23855635.323 9 -18576597.87047  20551763.350    20551765.1074
  22843332.450    -7517479.414 8  -5844722.55646  22843331.930    22843336.1014
  22121332.501   -12154414.036 8  -9434019.34146  22121331.551    22121335.6944
  20822929.711   -17252981.054 9 -13427218.91847  20822929.186    20822932.6534
  23517333.481    -6744332.304 8  -5233315.79645  23517333.059    23517338.7794
  23691223.892    -7249372.128 8  -5633484.35345  23691223.317    23691229.5544
  24625321.798      647036.029 7    518437.48745  24625321.824    24625328.3024
 01  7 19  2 52 30.0000000  0  9 27 13 28 22 01 20 08 04 03
  22032254.218   -10374654.114 8  -8065673.78947  22032253.928    22032257.6034
  20545496.361   -23888567.780 9 -18602259.51147  20545496.529    20545498.2334
  22824316.013    -7617410.640 8  -5922590.94646  22824315.545    22824319.7654
  22136738.668   -12073453.616 8  -9370933.34146  22136737.835    22136742.0684
  20829297.127   -17219519.852 9 -13401145.26447  20829296.648    20829300.0304
  23538643.476    -6632349.470 8  -5146056.57245  23538642.836    23538648.6084
  23674198.591    -7338841.547 8  -5703200.65045  23674197.954    23674203.9384
  24637317.520      710073.074 7    567557.15545  24637317.460    24637324.0774
  24264126.897                                    24264130.842    24264114.3494
 01  7 19  2 53  0.0000000  0  8 27 13 28 22 01 20 08 04
  22021488.796   -10431226.557 8  -8109756.19647  22021488.421    22021492.1724
  20539289.101   -23921186.997 9 -18627677.07348  20539289.266    20539291.0004
  22805343.696    -7717110.646 8  -6000279.13946  22805343.179    22805347.5074
  22152227.317   -11992061.026 8  -9307510.58046  22152226.472    22152230.5994
  20835727.454   -17185728.159 9 -13374814.08847  20835727.006    20835730.4134
  23559979.202    -6520229.150 8  -5058690.22145  23559978.706    23559984.4854
  23657201.537    -7428160.730 8  -5772799.89445  23657200.951    23657207.0564
  24649362.127      773367.551 7    616877.38945  24649362.201    24649368.8214
 01  7 19  2 53 30.0000000  0  7 27 13 28 22 01 20 08
  22010763.046   -10487589.846 8  -8153675.62147  22010762.776    22010766.5764
  20533142.151   -23953489.527 9 -18652847.86548  20533142.291    20533144.0654
  22786416.090    -7816574.685 8  -6077783.49846  22786415.742    22786420.0804
  22167798.087   -11910237.123 8  -9243751.75146  22167797.103    22167801.1114
  20842221.228   -17151603.400 9 -13348223.37247  20842220.751    20842224.2354
  23581341.383    -6407971.691 8  -4971217.02845  23581340.817    23581346.4934
  23640233.740    -7517326.999 7  -5842279.94545  23640232.917    23640239.1044
 01  7 19  2 54  0.0000000  0  8 27 13 28 22 01 20 08 03
  22000077.367   -10543743.611 8  -8197431.79047  22000077.113    22000080.7354
  20527055.789   -23985473.698 9 -18677770.58447  20527055.915    20527057.6614
  22767534.344    -7915800.139 8  -6155101.93946  22767533.765    22767538.0154
  22183450.087   -11827984.357 8  -9179658.72046  22183449.158    22183453.3164
  20848778.495   -17117145.043 9 -13321372.72047  20848777.932    20848781.4644
  23602729.298    -6295579.450 7  -4883638.76745  23602728.451    23602734.2434
  23623295.157    -7606339.404 8  -5911640.12445  23623294.364    23623300.3954
  24228698.707     -659379.69454                  24228695.913    24228699.1474
 01  7 19  2 54 30.0000000  0  8 27 13 28 22 01 20 08 03
  21989430.727   -10599692.682 8  -8241028.44947  21989430.344    21989434.0974
  20521029.274   -24017142.834 9 -18702447.81447  20521029.447    20521031.1724
  22748696.988    -8014789.275 8  -6232236.23446  22748696.555    22748700.8294
  22199182.624   -11745309.831 8  -9115237.06146  22199181.656    22199185.9164
  20855398.326   -17082357.487 9 -13294265.54147  20855397.808    20855401.2464
  23624140.778    -6183060.180 7  -4795961.49845  23624140.049    23624146.0944
  23606384.714    -7695202.202 7  -5980883.71945  23606383.941    23606390.3634
  24216997.967     -927150.70118   -707297.27945  24216994.713    24217001.2364
 01  7 19  2 55  0.0000000  0  8 27 13 28 22 01 20 08 03
  21978823.209   -10655436.203 8  -8284464.93447  21978822.818    21978826.4104
  20515063.205   -24048494.696 9 -18726877.82147  20515063.327    20515065.0884
  22729905.164    -8113538.965 8  -6309183.96946  22729904.745    22729909.1754
  22214995.022   -11662215.376 8  -9050488.18046  22214994.099    22214998.3904
  20862081.123   -17047239.665 9 -13266901.01947  20862080.512    20862083.9404
  23645576.282    -6070415.343 7  -4708186.42845  23645575.678    23645582.1864
  23589502.983    -7783914.002 8  -6050009.66345  23589502.617    23589508.8924
  24205348.509     -988358.726 8   -754991.71545  24205346.667    24205352.0444
 01  7 19  2 55 30.0000000  0  8 27 13 28 22 01 20 08 03
  21968254.720   -10710972.771 8  -8327740.15147  21968254.483    21968258.1134
  20509157.899   -24079526.573 9 -18751058.49547  20509158.055    20509159.9084
  22711159.704    -8212045.181 8  -6385941.96846  22711159.471    22711163.8774
  22230886.848   -11578702.910 8  -8985413.54046  22230885.937    22230890.2524
  20868827.015   -17011790.010 9 -13239277.92647  20868826.462    20868829.8554
  23667035.578    -5957646.305 7  -4620314.62245  23667035.082    23667041.7324
  23572651.188    -7872472.318 8  -6119016.02945  23572650.734    23572656.4564
  24193755.902    -1049275.833 8   -802459.50645  24193754.852    24193760.9314
 01  7 19  2 56  0.0000000  0  8 27 13 28 22 01 20 08 03
  21957725.927   -10766302.530 8  -8370854.23447  21957725.523    21957729.1534
  20503313.719   -24110237.516 9 -18774989.10647  20503313.881    20503315.8314
  22692461.440    -8310305.880 8  -6462508.65646  22692461.096    22692465.4554
  22246857.718   -11494775.747 8  -8920015.79446  22246856.882    22246861.2214
  20875635.860   -16976008.330 9 -13211396.10247  20875635.338    20875638.8374
  23688518.268    -5844755.764 7  -4532348.12045  23688517.700    23688524.0494
  23555828.169    -7960877.472 8  -6187903.06145  23555827.640    23555833.3524
  24182219.656    -1109899.433 7   -849698.58845  24182218.529    24182224.7134
 01  7 19  2 56 30.0000000  0  8 27 13 28 22 01 20 08 03
  21947236.478   -10821425.350 8  -8413807.03247  21947236.124    21947239.5154
  20497531.034   -24140625.723 9 -18798668.22947  20497531.194    20497533.1884
  22673810.457    -8408318.573 8  -6538882.08546  22673809.968    22673814.2924
  22262907.194   -11410436.227 8  -8854296.71646  22262906.200    22262910.5724
  20882508.215   -16939894.391 9 -13183255.38647  20882507.720    20882511.1354
  23710023.003    -5731746.609 7  -4444289.18845  23710022.583    23710029.0164
  23539034.399    -8049128.241 7  -6256669.77545  23539033.867    23539039.6904
  24170739.675    -1170226.823 7   -896706.82645  24170738.237    24170744.6104
 01  7 19  2 57  0.0000000  0  8 27 13 28 22 01 20 08 03
  21936786.435   -10876340.386 8  -8456597.95647  21936786.079    21936789.5724
  20491810.060   -24170689.604 9 -18822094.63548  20491810.215    20491812.2624
  22655207.231    -8506080.241 8  -6615059.90646  22655206.747    22655210.8304
  22279034.590   -11325686.175 8  -8788257.78546  22279033.665    22279037.8314
  20889443.906   -16903447.218 9 -13154855.00847  20889443.369    20889446.7814
  23731550.340    -5618620.785 8  -4356139.34545  23731549.829    23731556.1934
  23522270.055    -8137223.651 8  -6325315.44245  23522269.801    23522275.6744
  24159315.917    -1230254.454 7   -943481.47445  24159314.536    24159321.1314
 01  7 19  2 57 30.0000000  0  8 27 13 28 22 01 20 08 03
  21926375.977   -10931047.629 8  -8499226.90847  21926375.527    21926379.0324
  20486151.198   -24200427.335 9 -18845266.89748  20486151.353    20486153.3964
  22636652.061    -8603588.504 8  -6691040.28146  22636651.493    22636655.5244
  22295239.353   -11240528.555 8  -8721901.21946  22295238.627    22295242.8414
  20896443.055   -16866666.546 9 -13126194.75947  20896442.544    20896445.9814
  23753099.765    -5505380.919 7  -4267900.66645  23753099.031    23753105.0834
  23505535.914    -8225162.719 8  -6393839.27045  23505535.457    23505541.4484
  24147950.432    -1289979.333 7   -990020.25745  24147949.403    24147956.1614
 01  7 19  2 58  0.0000000  0  8 27 13 28 22 01 20 08 03
  21916004.782   -10985547.883 8  -8541694.59147  21916004.466    21916008.0184
  20480554.384   -24229838.742 9 -18868184.88448  20480554.537    20480556.5524
  22618145.035    -8700841.776 8  -6766821.95746  22618144.545    22618148.5514
  22311521.174   -11154967.555 8  -8655230.34346  22311520.336    22311524.4514
  20903505.598   -16829552.970 9 -13097275.09647  20903505.005    20903508.4584
  23774669.641    -5392030.260 7  -4179575.63545  23774669.110    23774675.3624
  23488831.466    -8312946.013 8  -6462241.74345  23488830.911    23488836.6174
  24136643.458    -1349399.714 8  -1036321.80645  24136642.289    24136648.8014
 01  7 19  2 58 30.0000000  0  8 27 13 28 22 01 20 08 03
  21905673.085   -11039841.545 8  -8584001.29547  21905672.718    21905676.2734
  20475019.810   -24258923.019 9 -18890847.96748  20475019.999    20475021.9684
  22599687.015    -8797838.193 8  -6842403.49646  22599686.464    22599690.4484
  22327879.066   -11069006.445 8  -8588247.72446  22327878.231    22327882.3904
  20910631.288   -16792106.677 9 -13068096.18847  20910630.792    20910634.2474
  23796259.818    -5278572.161 7  -4091166.85945  23796259.322    23796265.9164
  23472156.340    -8400573.348 8  -6530522.67046  23472155.954    23472161.5214
  24125394.499    -1408513.284 7  -1082384.20045  24125393.558    24125399.5864
 01  7 19  2 59  0.0000000  0  8 27 13 28 22 01 20 08 03
  21895380.916   -11093927.588 8  -8626146.23847  21895380.504    21895384.0114
  20469548.039   -24287677.608 9 -18913254.15748  20469548.207    20469550.1414
  22581278.537    -8894574.236 8  -6917782.14346  22581277.987    22581281.9934
  22344312.679   -10982646.462 8  -8520954.27246  22344312.014    22344316.2214
  20917820.550   -16754326.116 9 -13038656.80147  20917820.104    20917823.7244
  23817870.314    -5165008.139 7  -4002675.57245  23817869.812    23817876.8404
  23455511.591    -8488042.903 8  -6598680.62146  23455510.968    23455516.4874
  24114204.015    -1467316.008 7  -1128204.37445  24114203.556    24114210.0304
 01  7 19  2 59 30.0000000  0  8 27 13 28 22 01 20 08 03
  21885128.123   -11147805.941 8  -8668129.30847  21885127.702    21885131.1764
  20464139.254   -24316101.199 9 -18935402.42748  20464139.441    20464141.3444
  22562920.233    -8991047.597 8  -6992956.10046  22562919.636    22562923.5004
  22360822.019   -10895890.336 8  -8453352.12346  22360821.116    22360825.5884
  20925073.810   -16716211.420 9 -13008957.06547  20925073.283    20925076.7504
  23839500.670    -5051340.843 7  -3914103.75445  23839500.017    23839506.8494
  23438896.614    -8575354.390 8  -6666715.39745  23438895.881    23438901.4314
  24103073.871    -1525805.113 7  -1173780.15145  24103073.169    24103079.8574
 01  7 19  3  0  0.0000000  0  8 27 13 28 22 01 20 08 03
  21874914.661   -11201476.896 8  -8709950.77747  21874914.332    21874917.9694
  20458793.691   -24344192.714 9 -18957291.93748  20458793.852    20458795.7524
  22544612.302    -9087256.208 8  -7067923.76046  22544611.779    22544615.6774
  22377405.641   -10808741.799 8  -8385444.20446  22377404.904    22377409.2824
  20932390.283   -16677762.602 9 -12978996.95947  20932389.778    20932393.3244
  23861150.009    -4937573.533 7  -3825454.14445  23861149.480    23861156.2244
  23422311.821    -8662507.306 8  -6734626.64745  23422311.161    23422316.5354
  24092004.254    -1583978.101 7  -1219109.64445  24092003.094    24092009.6974
 01  7 19  3  0 30.0000000  0  8 27 13 28 22 01 20 08 03
  21864740.875   -11254940.748 8  -8751610.86147  21864740.505    21864744.1014
  20453511.422   -24371951.091 9 -18978921.85448  20453511.599    20453513.4814
  22526355.055    -9183198.149 8  -7142683.62046  22526354.529    22526358.5414
  22394063.727   -10721204.272 8  -8317233.20646  22394062.883    22394066.9744
  20939770.450   -16638979.750 9 -12948776.57647  20939769.969    20939773.5184
  23882817.972    -4823708.931 7  -3736728.58745  23882817.290    23882823.7704
  23405757.525    -8749501.770 8  -6802414.44845  23405756.641    23405761.9034
  24080994.329    -1641832.717 7  -1264191.13345  24080993.656    24081000.4154
 01  7 19  3  1  0.0000000  0  8 27 13 28 22 01 20 08 03
  21854606.742   -11308195.967 8  -8793108.38047  21854606.401    21854609.9024
  20448293.127   -24399373.434 9 -19000289.92448  20448293.351    20448295.1834
  22508149.134    -9278869.438 8  -7217232.59046  22508148.713    22508152.8914
  22410795.175   -10633278.589 8  -8248719.71346  22410794.460    22410798.6694
  20947214.511   -16599860.998 9 -12918294.45847  20947214.015    20947217.5324
  23904503.664    -4709748.153 8  -3647928.11345  23904503.227    23904509.9734
  23389233.768    -8836335.015 8  -6870076.57145  23389232.832    23389238.0884
  24070046.093    -1699364.467 8  -1309021.06945  24070045.743    24070052.2204
 01  7 19  3  1 30.0000000  0  8 27 13 28 22 01 20 08 03
  21844511.861   -11361244.447 8  -8834444.80447  21844511.510    21844515.1924
  20443138.677   -24426460.334 9 -19021396.61548  20443138.879    20443140.6974
  22489994.965    -9374269.463 8  -7291570.18646  22489994.571    22489998.8224
  22427599.862   -10544969.295 8  -8179907.32546  22427599.215    22427603.4264
  20954722.212   -16560408.054 9 -12887551.92347  20954721.668    20954725.2604
  23926207.829    -4595695.577 8  -3559056.22945  23926207.109    23926214.1424
  23372739.876    -8923009.017 8  -6937614.66945  23372739.090    23372744.4274
  24059160.056    -1756572.453 8  -1353598.62245  24059159.570    24059165.2804
 01  7 19  3  2  0.0000000  0  8 27 13 28 22 01 20 08 03
  21834456.291   -11414085.937 8  -8875619.93047  21834455.981    21834459.6524
  20438048.335   -24453210.305 9 -19042240.76048  20438048.513    20438050.3514
  22471893.091    -9469396.027 8  -7365694.69646  22471892.652    22471896.8824
  22444477.127   -10456279.270 8  -8110798.25946  22444476.512    22444480.6384
  20962293.438   -16520620.514 9 -12856548.67047  20962292.916    20962296.5504
  23947928.861    -4481553.797 7  -3470114.70445  23947928.134    23947934.6804
  23356276.597    -9009522.695 8  -7005027.84645  23356275.987    23356281.2824
  24048336.220    -1813453.769 7  -1397921.66545  24048335.524    24048341.5424
 01  7 19  3  2 30.0000000  0  8 27 13 28 22 01 20 08 03
  21824440.474   -11466719.163 8  -8916632.80247  21824440.234    21824443.7544
  20433022.574   -24479620.891 9 -19062820.44448  20433022.773    20433024.6084
  22453843.908    -9564245.543 8  -7439603.32146  22453843.547    22453847.6294
  22461426.440   -10367210.560 8  -8041394.10046  22461425.828    22461429.9024
  20969928.749   -16480497.113 9 -12825283.70547  20969928.191    20969931.8384
  23969666.014    -4367324.463 7  -3381105.02345  23969665.367    23969672.1504
  23339844.342    -9095874.432 8  -7072314.82845  23339843.662    23339849.0024
  24037574.143    -1870004.758 7  -1441987.22245  24037573.905    24037580.2754
 01  7 19  3  3  0.0000000  0  8 27 13 28 22 01 20 08 03
  21814464.312   -11519144.800 8  -8957483.89947  21814463.981    21814467.4374
  20428061.493   -24505691.277 9 -19083135.03048  20428061.707    20428063.5674
  22435847.995    -9658816.100 8  -7513294.55446  22435847.456    22435851.2974
  22478447.137   -10277766.640 8  -7971697.56046  22478446.356    22478450.6474
  20977627.655   -16440038.200 9 -12793757.30547  20977627.221    20977630.9104
  23991418.751    -4253010.633 8  -3292029.46145  23991418.425    23991425.1214
  23323442.824    -9182064.130 8  -7139475.55146  23323442.277    23323447.7224
  24026875.538    -1926223.202 7  -1485793.64145  24026875.631    24026882.3084
 01  7 19  3  3 30.0000000  0  8 27 13 28 22 01 20 08 03
  21804527.606   -11571362.453 8  -8998172.92847  21804527.330    21804530.7404
  20423165.519   -24531419.814 9 -19103183.25348  20423165.717    20423167.5874
  22417905.540    -9753105.101 8  -7586766.42546  22417905.037    22417908.6954
  22495538.614   -10187949.512 8  -7901710.23246  22495538.033    22495542.3014
  20985390.686   -16399243.352 9 -12761969.13347  20985390.237    20985393.9264
  24013187.907    -4138614.505 7  -3202889.79145  24013187.258    24013194.2594
  23307072.582    -9268090.995 8  -7206509.39546  23307071.840    23307077.3724
  24016242.160    -1982105.820 8  -1529338.46645  24016241.362    24016248.4124
 01  7 19  3  4  0.0000000  0  8 27 13 28 22 01 20 08 03
  21794629.908   -11623374.081 8  -9038701.40547  21794629.642    21794633.2504
  20418334.452   -24556807.205 9 -19122965.64448  20418334.661    20418336.5284
  22400016.404    -9847112.282 8  -7660018.70446  22400015.862    22400019.7084
  22512700.299   -10097764.089 8  -7831435.90146  22512699.752    22512704.0264
  20993217.317   -16358114.375 9 -12729920.61047  20993216.928    20993220.5914
  24034971.488    -4024140.914 8  -3113689.67945  24034970.905    24034977.6314
  23290732.861    -9353956.456 8  -7273417.51045  23290732.162    23290737.3944
  24005672.691    -2037651.910 8  -1572621.02945  24005671.459    24005678.1584
 01  7 19  3  4 30.0000000  0  8 27 13 28 22 01 20 08 03
  21784772.010   -11675177.395 8  -9079067.57747  21784771.736    21784775.2904
  20413569.097   -24581849.688 9 -19142479.27448  20413569.300    20413571.1054
  22382181.672    -9940833.111 8  -7733047.82046  22382181.149    22382185.2164
  22529932.491   -10007211.178 8  -7760875.24746  22529931.522    22529935.7064
  21001107.975   -16316648.887 9 -12697609.85747  21001107.556    21001111.2164
  24056770.157    -3909590.242 8  -3024429.66145  24056769.533    24056776.7294
  23274424.304    -9439657.658 8  -7340197.62145  23274423.692    23274428.8474
  23995167.232    -2092856.463 8  -1615637.49245  23995166.242    23995173.0184
 01  7 19  3  5  0.0000000  0  8 27 13 28 22 01 20 08 03
  21774953.696   -11726773.469 9  -9119272.28047  21774953.404    21774956.9304
  20408869.373   -24606547.051 9 -19161723.97048  20408869.564    20408871.3704
  22364401.682   -10034266.307 8  -7805852.84846  22364401.237    22364405.2934
  22547232.846    -9916295.292 8  -7690031.70046  22547232.195    22547236.4384
  21009062.341   -16274847.847 9 -12665037.64147  21009062.039    21009065.7464
  24078582.716    -3794966.001 7  -2935112.15445  24078582.175    24078588.5754
  23258146.865    -9525195.102 8  -7406850.07145  23258146.101    23258151.6444
  23984727.093    -2147718.149 8  -1658386.74445  23984726.470    23984732.6764
 01  7 19  3  5 30.0000000  0  8 27 13 28 22 01 20 08 03
  21765174.961   -11778160.614 8  -9159314.17047  21765174.733    21765178.1454
  20404235.818   -24630896.597 9 -19180697.63448  20404236.031    20404237.7844
  22346677.416   -10127408.097 8  -7878430.76646  22346676.978    22346680.7784
  22564603.000    -9825017.137 8  -7618905.89346  22564602.061    22564606.3094
  21017081.122   -16232709.321 9 -12632202.43847  21017080.778    21017084.3454
  24100408.749    -3680269.342 7  -2845738.35645  24100408.225    24100414.9264
  23241901.080    -9610566.590 8  -7473373.28245  23241900.537    23241905.8624
  23974353.473    -2202232.417 8  -1700865.36045  23974352.701    23974358.7074
 01  7 19  3  6  0.0000000  0  8 27 13 28 22 01 20 08 03
  21755435.447   -11829341.624 8  -9199195.42147  21755435.126    21755438.7064
  20399668.238   -24654899.489 9 -19199401.18548  20399668.423    20399670.1054
  22329008.439   -10220258.607 8  -7950781.72946  22329007.999    22329011.7364
  22582040.468    -9733382.057 8  -7547501.99246  22582039.669    22582043.7484
  21025163.603   -16190235.976 9 -12599106.34147  21025163.242    21025166.7514
  24122247.306    -3565505.683 7  -2756312.18445  24122246.706    24122253.6274
  23225686.457    -9695774.277 8  -7539768.89445  23225686.012    23225691.1184
  23964046.276    -2256399.140 8  -1743073.16045  23964045.096    23964050.8134
 01  7 19  3  6 30.0000000  0  8 27 13 28 22 01 20 08 03
  21745735.661   -11880314.095 8  -9238914.16847  21745735.391    21745738.9384
  20395167.341   -24678552.113 9 -19217831.80248  20395167.509    20395169.1094
  22311395.911   -10312813.297 8  -8022902.18846  22311395.373    22311399.0594
  22599545.667    -9641390.685 8  -7475820.42346  22599544.931    22599549.2514
  21033310.113   -16147425.282 9 -12565747.37547  21033309.773    21033313.2704
  24144098.892    -3450675.073 7  -2666834.06545  24144098.238    24144105.6534
  23209503.565    -9780815.275 8  -7606034.55746  23209503.155    23209508.4244
  23953805.372    -2310213.962 7  -1785006.70145  23953804.397    23953810.2484
 01  7 19  3  7  0.0000000  0  8 27 13 28 22 01 20 08 03
  21736075.657   -11931078.000 9  -9278470.44947  21736075.368    21736078.9144
  20390733.378   -24701853.091 9 -19235988.40148  20390733.519    20390735.0484
  22293839.849   -10405070.119 8  -8094790.54646  22293839.396    22293843.0434
  22617118.013    -9549046.462 8  -7403863.90246  22617117.425    22617121.7884
  21041521.100   -16104277.077 9 -12532125.42347  21041520.728    21041524.2014
  24165963.072    -3335780.268 7  -2577305.75245  24165962.232    24165969.0964
  23193352.917    -9865689.078 8  -7672169.93746  23193352.336    23193357.5384
  23943631.055    -2363674.100 7  -1826663.80945  23943630.989    23943636.8974
 01  7 19  3  7 30.0000000  0  9 27 13 28 22 01 20 08 31 03
  21726455.131   -11981634.625 8  -9317865.20247  21726454.778    21726458.1494
  20386366.271   -24724802.363 9 -19253870.94348  20386366.402    20386367.9524
  22276340.836   -10497027.929 8  -8166445.91446  22276340.281    22276344.0894
  22634757.018    -9456353.513 8  -7331635.67746  22634756.394    22634760.7284
  21049795.954   -16060792.371 9 -12498241.25047  21049795.590    21049799.0644
  24187838.166    -3220825.254 7  -2487730.60545  24187837.549    24187844.6274
  23177233.617    -9950396.663 8  -7738175.77646  23177233.165    23177238.1064
  24488296.279                                    24488298.134    24488456.7554
  23933525.589    -2416777.686 8  -1868043.13345  23933525.385    23933531.8334
 01  7 19  3  8  0.0000000  0  8 27 13 28 22 01 20 08 03
  21716873.910   -12031983.542 8  -9357098.08047  21716873.582    21716877.0444
  20382066.385   -24747398.502 9 -19271478.31048  20382066.479    20382068.0884
  22258898.822   -10588684.240 8  -8237866.34346  22258898.505    22258902.5554
  22652461.834    -9363314.011 8  -7259137.37946  22652461.177    22652465.5504
  21058134.814   -16016970.885 9 -12464094.65047  21058134.547    21058138.0554
  24209724.633    -3105812.213 7  -2398110.22945  24209724.076    24209731.3834
  23161146.076   -10034936.748 8  -7804051.07746  23161145.632    23161150.5874
  23923489.042    -2469522.214 7  -1909142.68145  23923488.295    23923494.7434
 01  7 19  3  8 30.0000000  0  9 27 13 28 22 01 20 08 31 03
  21707332.091   -12082125.665 8  -9396169.84647  21707331.837    21707335.2524
  20377833.740   -24769641.106 9 -19288810.19648  20377833.859    20377835.4704
  22241514.893   -10680037.764 8  -8309050.81646  22241514.460    22241518.3964
  22670232.041    -9269931.560 8  -7186371.88046  22670231.366    22670235.5414
  21066537.733   -15972813.439 9 -12429686.26847  21066537.409    21066541.0254
  24231621.315    -2990744.647 7  -2308447.37145  24231620.897    24231628.1234
  23145090.595   -10119309.968 8  -7869796.35146  23145089.977    23145094.8264
  24453837.660     -450880.88754                  24453834.982    24453844.0334
  23913520.820    -2521905.848 7  -1949961.00545  23913520.134    23913526.5124
 01  7 19  3  9  0.0000000  0  9 27 13 28 22 01 20 08 31 03
  21697830.045   -12132059.773 8  -9435079.51247  21697829.725    21697833.1734
  20373668.914   -24791527.270 9 -19305864.33948  20373669.023    20373670.6944
  22224189.318   -10771084.784 8  -8379996.46746  22224188.904    22224192.6854
  22688067.196    -9176207.984 8  -7113340.55246  22688066.299    22688070.6424
  21075004.908   -15928318.658 9 -12395015.03947  21075004.558    21075008.0854
  24253527.917    -2875624.013 7  -2218743.13245  24253527.573    24253534.9024
  23129067.010   -10203514.263 8  -7935410.02646  23129066.331    23129071.1564
  24436625.990     -700382.08317   -521359.12945  24436624.377    24436632.2334
  23903621.136    -2573924.820 7  -1990495.16845  23903621.317    23903627.6964
 01  7 19  3  9 30.0000000  0  9 27 13 28 22 01 20 08 31 03
  21688367.561   -12181785.505 8  -9473826.81447  21688367.276    21688370.6614
  20369572.122   -24813055.508 9 -19322639.57648  20369572.289    20369573.9994
  22206922.407   -10861822.849 8  -8450701.37046  22206922.007    22206925.5024
  22705966.327    -9082146.324 8  -7040045.77746  22705965.577    22705970.1964
  21083536.070   -15883486.293 9 -12360080.72547  21083535.812    21083539.4334
  24275444.590    -2760452.314 7  -2128999.12445  24275444.259    24275451.2524
  23113075.661   -10287548.942 8  -8000891.52546  23113075.001    23113079.8654
  24419426.175     -790763.777 7   -591786.26445  24419425.264    24419432.2004
  23893791.946    -2625575.903 8  -2030742.64545  23893792.441    23893798.6114
 01  7 19  3 10  0.0000000  0  9 27 13 28 22 01 20 08 31 03
  21678944.437   -12231304.254 8  -9512412.80747  21678944.050    21678947.5704
  20365543.498   -24834225.784 9 -19339135.88448  20365543.697    20365545.3954
  22189714.560   -10952250.820 8  -8521164.63546  22189714.111    22189717.4414
  22723929.576    -8987750.557 8  -6966490.68246  22723928.631    22723933.1374
  21092131.460   -15838317.548 9 -12324884.32347  21092131.191    21092134.7244
  24297369.949    -2645233.848 7  -2039218.68245  24297369.683    24297377.0984
  23097116.437   -10371415.018 8  -8066241.61746  23097115.720    23097120.4804
  24402238.915     -881078.269 7   -662161.02744  24402237.402    24402246.1794
  23884033.951    -2676857.860 7  -2070702.53445  23884033.978    23884040.1284
 01  7 19  3 10 30.0000000  0  9 27 13 28 22 01 20 08 31 03
  21669561.041   -12280614.371 8  -9550836.28147  21669560.685    21669563.9614
  20361583.619   -24855035.532 9 -19355351.26148  20361583.789    20361585.4344
  22172566.109   -11042365.114 8  -8591383.49146  22172565.692    22172569.1514
  22741955.704    -8893021.683 8  -6892676.00246  22741954.962    22741959.5534
  21100791.302   -15792810.828 9 -12289424.55947  21100790.916    21100794.3954
  24319304.225    -2529969.648 7  -1949402.54345  24319304.016    24319311.2594
  23081189.333   -10455110.093 8  -8131458.43045  23081188.846    23081193.7684
  24385065.865     -971320.417 7   -732479.44445  24385065.091    24385073.2754
  23874346.903    -2727766.544 7  -2110371.55845  23874346.214    23874352.4124
 01  7 19  3 11  0.0000000  0  9 27 13 28 22 01 20 08 31 03
  21660217.099   -12329716.634 8  -9589097.76947  21660216.744    21660220.0594
  20357692.371   -24875484.076 9 -19371285.17448  20357692.563    20357694.2174
  22155478.056   -11132164.322 8  -8661356.80746  22155477.602    22155480.9384
  22760044.903    -8797963.208 8  -6818604.51346  22760044.059    22760048.4884
  21109515.145   -15746966.620 9 -12253701.80347  21109514.767    21109518.3204
  24341246.278    -2414662.817 7  -1859553.35445  24341246.015    24341254.2054
  23065295.077   -10538634.721 8  -8196542.41846  23065294.549    23065299.5714
  24367907.700    -1061487.859 7   -802739.57745  24367907.048    24367915.0664
  23864730.711    -2778300.547 7  -2149748.58945  23864729.922    23864735.8584
 01  7 19  3 11 30.0000000  0  9 27 13 28 22 01 20 08 31 03
  21650912.637   -12378612.341 8  -9627198.29547  21650912.226    21650915.5184
  20353869.930   -24895571.224 9 -19386937.48448  20353870.129    20353871.7484
  22138449.847   -11221647.411 8  -8731083.85146  22138449.440    22138453.0784
  22778195.830    -8702579.827 8  -6744279.81046  22778195.014    22778199.3944
  21118303.127   -15700786.091 9 -12217717.00247  21118302.633    21118306.1534
  24363196.476    -2299317.415 7  -1769673.91045  24363195.832    24363202.9884
  23049433.303   -10621989.434 8  -8261494.04146  23049432.660    23049437.7344
  24350764.406    -1151578.657 7   -872940.05845  24350763.706    24350771.4224
  23855185.184    -2828458.251 7  -2188832.40245  23855184.860    23855190.6224
 01  7 19  3 12  0.0000000  0  9 27 13 28 22 01 20 08 31 03
  21641647.697   -12427299.485 8  -9665136.31447  21641647.290    21641650.6884
  20350116.865   -24915294.076 9 -19402305.92948  20350117.037    20350118.6084
  22121482.514   -11310810.441 8  -8800561.46146  22121482.067    22121485.9294
  22796408.257    -8606872.723 8  -6669702.87946  22796407.426    22796412.0054
  21127155.409   -15654267.273 9 -12181468.58747  21127154.885    21127158.4864
  24385153.389    -2183933.853 7  -1679764.93445  24385152.669    24385160.5044
  23033604.161   -10705171.785 8  -8326311.35746  23033603.539    23033608.5774
  24333636.398    -1241587.681 7   -943076.77245  24333635.476    24333643.3954
  23845712.567    -2878235.351 7  -2227619.65045  23845712.527    23845718.2954
 01  7 19  3 12 30.0000000  0  9 27 13 28 22 01 20 08 31 03
  21632422.180   -12475779.144 8  -9702912.64847  21632421.886    21632425.2764
  20346433.153   -24934652.659 9 -19417390.51548  20346433.277    20346434.7744
  22104576.459   -11399652.011 8  -8869788.56446  22104575.991    22104579.8074
  22814681.645    -8510845.331 8  -6594876.37246  22814680.885    22814685.1184
  21136071.671   -15607411.181 9 -12144957.36047  21136071.213    21136074.8494
  24407116.893    -2068515.827 7  -1589828.91345  24407116.256    24407122.8864
  23017807.716   -10788182.457 8  -8390994.90446  23017807.164    23017812.0834
  24316524.218    -1331512.619 7  -1013147.85145  24316523.222    24316531.0774
  23836313.518    -2927630.186 8  -2266109.05645  23836313.083    23836318.5024
 01  7 19  3 13  0.0000000  0  9 27 13 28 22 01 20 08 31 03
  21623236.257   -12524051.750 8  -9740527.67447  21623235.926    21623239.3034
  20342818.965   -24953645.251 9 -19432189.92248  20342819.079    20342820.5774
  22087731.720   -11488170.679 8  -8938764.09246  22087731.322    22087734.9564
  22833015.569    -8414500.821 8  -6519802.76546  22833014.673    22833019.0354
  21145052.065   -15560218.387 9 -12108183.76547  21145051.665    21145055.3424
  24429086.397    -1953066.792 7  -1499868.78945  24429085.756    24429092.7924
  23002043.945   -10871021.288 8  -8455544.52746  23002043.247    23002048.2204
  24299428.136    -1421350.644 7  -1083151.36745  24299427.397    24299435.2534
  23826987.608    -2976640.698 8  -2304298.99545  23826986.710    23826992.2724
 01  7 19  3 13 30.0000000  0  9 27 13 28 22 01 20 08 31 03
  21614089.766   -12572116.715 8  -9777980.87347  21614089.427    21614092.6994
  20339274.679   -24972270.411 9 -19446703.02148  20339274.813    20339276.3024
  22070949.362   -11576363.321 8  -9007485.53146  22070948.940    22070952.3734
  22851409.295    -8317841.594 8  -6444483.92546  22851408.389    22851412.7174
  21154096.834   -15512688.166 9 -12071147.25247  21154096.374    21154099.9884
  24451060.909    -1837588.245 7  -1409885.76445  24451060.612    24451067.8254
  22986312.874   -10953687.205 8  -8519959.42646  22986312.387    22986317.2864
  24282349.830    -1511098.251 7  -1153084.56545  24282348.970    24282356.8064
  23817734.827    -3025263.837 7  -2342187.02445  23817734.206    23817739.5314
 01  7 19  3 14  0.0000000  0  9 27 13 28 22 01 20 08 31 03
  21604983.064   -12619972.922 8  -9815271.41947  21604982.701    21604986.0444
  20335800.736   -24990525.801 9 -19460927.99048  20335800.878    20335802.3774
  22054229.404   -11664226.833 8  -9075950.52746  22054228.935    22054232.2324
  22869862.165    -8220869.996 8  -6368921.65846  22869861.275    22869865.8264
  21163205.994   -15464819.431 9 -12033846.95547  21163205.538    21163209.1804
  24473041.289    -1722081.850 7  -1319880.90645  24473040.945    24473048.1014
  22970615.349   -11036178.683 8  -8584238.41146  22970614.774    22970619.4404
  24265289.252    -1600750.817 7  -1222943.39045  24265288.441    24265296.2794
  23808555.570    -3073495.866 7  -2379770.36945  23808555.640    23808561.5194
 01  7 19  3 14 30.0000000  0  9 27 13 28 22 01 20 08 31 03
  21595915.972   -12667621.099 8  -9852399.85247  21595915.569    21595918.8624
  20332397.221   -25008411.132 9 -19474864.60248  20332397.384    20332398.8704
  22037572.361   -11751760.049 8  -9144158.15046  22037571.936    22037575.2804
  22888374.177    -8123589.639 8  -6293118.85046  22888373.329    22888377.7584
  21172379.352   -15416613.070 9 -11996283.58047  21172378.867    21172382.4764
  24495026.646    -1606551.005 7  -1229857.15145  24495026.275    24495033.4674
  22954950.790   -11118495.928 8  -8648381.59846  22954950.228    22954955.1544
  24248248.026    -1690305.944 7  -1292726.40245  24248246.818    24248254.5834
  23799451.398    -3121335.388 7  -2417047.83045  23799451.763    23799457.7204
 01  7 19  3 15  0.0000000  0  9 27 13 28 22 01 20 08 31 03
  21586888.095   -12715062.486 9  -9889367.15647  21586887.768    21586891.1104
  20329064.178   -25025926.161 9 -19488512.67148  20329064.352    20329065.8324
  22020978.311   -11838961.919 8  -9212107.60046  22020977.795    22020981.2644
  22906944.162    -8026004.162 8  -6217078.24146  22906943.223    22906947.6494
  21181616.628   -15368070.395 9 -11958458.14747  21181616.272    21181619.8614
  24517016.225    -1490999.562 7  -1139817.19845  24517015.333    24517021.5244
  22939319.293   -11200639.820 8  -8712389.71946  22939318.780    22939323.6644
  24231224.329    -1779762.173 7  -1362432.44445  24231223.384    24231231.0184
  23790422.709    -3168781.337 7  -2454018.59345  23790422.993    23790429.0084
 01  7 19  3 15 30.0000000  0  9 27 13 28 22 01 20 08 31 03
  21577899.941   -12762295.832 8  -9926172.34347  21577899.571    21577902.8054
  20325802.148   -25043068.486 9 -19501870.31748  20325802.290    20325803.7394
  22004447.823   -11925829.132 8  -9279796.28246  22004447.418    22004451.0274
  22925571.802    -7928115.094 8  -6140801.06046  22925570.838    22925575.2744
  21190918.337   -15319189.977 9 -11920369.52447  21190917.903    21190921.5544
  24539008.362    -1375428.893 7  -1049762.32645  24539007.699    24539014.4654
  22923721.388   -11282608.407 8  -8776261.23346  22923720.679    22923725.2374
  24214221.101    -1869114.566 8  -1432057.57345  24214220.413    24214227.9264
  23781469.847    -3215829.561 8  -2490679.52745  23781469.890    23781475.7874
 01  7 19  3 16  0.0000000  0  9 27 13 28 22 01 20 08 31 03
  21568951.171   -12809321.452 8  -9962815.69947  21568950.846    21568954.1094
  20322611.160   -25059837.089 9 -19514936.75548  20322611.319    20322612.7684
  21987981.636   -12012359.643 8  -9347222.57146  21987981.207    21987984.7274
  22944256.534    -7829925.948 8  -6064290.07546  22944255.522    22944260.0134
  21200284.186   -15269972.168 9 -11882018.01447  21200283.779    21200287.3764
  24561003.594    -1259841.502 7   -959694.46345  24561003.031    24561009.5394
  22908156.383   -11364401.529 8  -8839996.07046  22908155.824    22908160.3354
  24197238.097    -1958360.202 7  -1501599.42845  24197237.541    24197244.8354
  23772593.255    -3262477.922 7  -2527028.82045  23772593.197    23772598.6544
 01  7 19  3 16 30.0000000  0  9 27 13 28 22 01 20 08 31 03
  21560042.161   -12856139.220 8  -9999297.05647  21560041.744    21560044.9324
  20319491.552   -25076230.582 9 -19527710.90248  20319491.719    20319493.1804
  21971579.980   -12098551.260 8  -9414384.80547  21971579.562    21971582.9044
  22962997.801    -7731439.922 8  -5987547.77046  22962996.878    22963001.2414
  21209714.184   -15220416.936 9 -11843403.56847  21209713.850    21209717.5154
  24583002.237    -1144240.168 7   -869615.59545  24583001.643    24583007.7764
  22892625.125   -11446018.763 8  -8903593.83346  22892624.546    22892628.9794
  24180275.564    -2047495.855 7  -1571055.57445  24180275.404    24180282.5784
  23763792.694    -3308724.015 7  -2563064.67545  23763792.779    23763798.2134
 01  7 19  3 17  0.0000000  0  9 27 13 28 22 01 20 08 31 03
  21551172.559   -12902749.009 8 -10035616.34547  21551172.184    21551175.5694
  20316443.679   -25092247.603 9 -19540191.69848  20316443.819    20316445.2314
  21955243.310   -12184401.694 8  -9481281.17347  21955242.872    21955245.9814
  22981795.121    -7632659.377 8  -5910575.93446  22981794.205    22981798.5754
  21219208.588   -15170524.190 9 -11804526.13147  21219208.188    21219211.7444
  24605002.838    -1028627.279 7   -779527.93845  24605002.091    24605009.2924
  22877127.330   -11527459.431 8  -8967053.99746  22877126.715    22877131.3994
  24163335.298    -2136517.976 7  -1640423.43045  24163335.041    24163341.9884
  23755069.107    -3354565.115 7  -2598784.93745  23755069.298    23755075.0834
 01  7 19  3 17 30.0000000  0  9 27 13 28 22 01 20 08 31 03
  21542342.555   -12949151.102 9 -10071773.80647  21542342.207    21542345.4064
  20313467.599   -25107887.222 9 -19552378.41648  20313467.699    20313469.0914
  21938971.687   -12269909.360 8  -9547910.46546  21938971.157    21938974.3344
  23000647.975    -7533586.946 8  -5833376.70746  23000647.163    23000651.5994
  21228766.881   -15120294.145 9 -11765385.84147  21228766.611    21228770.2754
  24627005.171     -913005.337 7   -689432.99744  24627004.270    24627010.9974
  22861663.159   -11608723.123 8  -9030376.27146  22861662.640    22861667.4194
  24146417.077    -2225423.578 7  -1709700.30545  24146416.726    24146423.4914
  23746422.878    -3399999.334 7  -2634188.17245  23746423.244    23746429.1014
 01  7 19  3 18  0.0000000  0  9 27 13 28 22 01 20 08 31 03
  21533552.127   -12995345.016 8 -10107769.06247  21533551.733    21533555.0554
  20310563.522   -25123147.819 9 -19564269.79348  20310563.639    20310565.0554
  21922765.614   -12355071.738 8  -9614270.69446  21922765.205    21922768.3204
  23019555.908    -7434225.446 8  -5755952.17346  23019555.064    23019559.6874
  21238389.800   -15069726.297 9 -11725982.36647  21238389.399    21238393.0284
  24649008.549     -797376.707 7   -599333.01445  24649007.686    24649015.7984
  22846233.177   -11689809.253 8  -9093560.14246  22846232.283    22846237.3204
  24129521.332    -2314208.716 7  -1778883.40845  24129520.891    24129528.2114
  23737855.465    -3445023.955 8  -2669272.21845  23737855.294    23737861.1564
 01  7 19  3 18 30.0000000  0  9 27 13 28 22 01 20 08 31 03
  21524801.074   -13041331.837 9 -10143602.91347  21524800.710    21524803.9484
  20307731.648   -25138029.161 9 -19575865.64148  20307731.800    20307733.2284
  21906625.685   -12439887.501 8  -9680360.82747  21906625.249    21906628.4004
  23038517.684    -7334579.214 8  -5678305.81345  23038517.007    23038521.6914
  21248076.930   -15018821.907 9 -11686316.62747  21248076.333    21248079.9604
  24671012.854     -681745.213 7   -509230.76744  24671011.884    24671019.4214
  22830836.440   -11770718.123 8  -9156605.95946  22830835.632    22830840.9774
  24112649.661    -2402871.251 7  -1847971.00845  24112649.150    24112656.1374
  23729366.634    -3489637.274 8  -2704035.78945  23729365.861    23729371.5944
 01  7 19  3 19  0.0000000  0  9 27 13 28 22 01 20 08 31 03
  21516089.555   -13087111.352 8 -10179275.26647  21516089.181    21516092.4484
  20304972.177   -25152529.907 9 -19587164.92648  20304972.360    20304973.8154
  21890552.306   -12524354.517 8  -9746179.21947  21890551.826    21890554.8764
  23057533.465    -7234650.923 8  -5600439.66645  23057532.781    23057537.4144
  21257827.482   -14967580.951 9 -11646388.62047  21257827.023    21257830.7714
  24693016.704     -566113.172 7   -419128.01744  24693015.870    24693023.1244
  22815473.773   -11851449.275 8  -9219513.29646  22815473.027    22815478.0014
  24095801.551    -2491408.141 7  -1916960.59745  24095801.014    24095807.9854
  23720955.672    -3533836.734 7  -2738476.82545  23720954.875    23720960.5214
 01  7 19  3 19 30.0000000  0  9 27 13 28 22 01 20 08 31 03
  21507417.483   -13132682.899 8 -10214785.52647  21507417.125    21507420.4834
  20302285.507   -25166648.060 9 -19598166.08848  20302285.720    20302287.1964
  21874545.616   -12608470.173 8  -9811723.81947  21874545.148    21874548.0834
  23076602.771    -7134442.212 8  -5522355.00845  23076602.011    23076606.5274
  21267642.592   -14916002.591 9 -11606197.72547  21267642.168    21267645.7624
  24715020.550     -450482.120 7   -329026.09445  24715019.680    24715027.6124
  22800145.101   -11932001.286 8  -9282281.04546  22800144.409    22800149.2284
  24078977.889    -2579815.299 7  -1985849.11645  24078977.322    24078984.7994
  23712623.966    -3577619.663 7  -2772593.29745  23712623.203    23712628.8734
 01  7 19  3 20  0.0000000  0  8 27 13 28 22 01 08 31 03
  21498785.218   -13178045.911 9 -10250133.32247  21498784.861    21498788.2124
  20299671.972   -25180382.258 9 -19608868.06548  20299672.189    20299673.6754
  21858606.096   -12692231.849 8  -9876992.60247  21858605.632    21858608.6444
  23095724.781    -7033955.454 7  -5444053.67445  23095723.993    23095728.6404
  21277521.745   -14864086.556 8 -11565743.68047  21277521.389    21277525.1334
  22784850.606   -12012373.501 8  -9344908.65046  22784849.927    22784854.8464
  24062179.648    -2668088.837 8  -2054633.54045  24062179.219    24062186.7354
  23704371.658    -3620983.255 7  -2806382.97845  23704371.216    23704376.8064
 01  7 19  3 20 30.0000000  0  8 27 13 28 22 01 08 31 03
  21490192.874   -13223198.500 9 -10285317.13547  21490192.539    21490195.8184
  20297132.222   -25193728.834 9 -19619267.99048  20297132.428    20297133.9034
  21842734.854   -12775635.404 8  -9941982.32147  21842734.350    21842737.5044
  23114899.431    -6933191.817 8  -5365536.58845  23114898.758    23114903.5784
  21287465.617   -14811830.748 9 -11525024.90147  21287465.275    21287469.1304
  22769590.731   -12092563.356 8  -9407394.15146  22769590.101    22769595.0634
  24045408.277    -2756223.318 7  -2123309.65245  24045407.791    24045415.1034
  23696199.832    -3663923.031 7  -2839842.51245  23696199.763    23696205.9534
 01  7 19  3 21  0.0000000  0  8 27 13 28 22 01 08 31 03
  21481639.832   -13268145.077 9 -10320340.43247  21481639.500    21481642.7834
  20294665.613   -25206691.150 9 -19629368.49848  20294665.785    20294667.2464
  21826931.156   -12858683.245 8 -10006694.87647  21826930.670    21826934.0044
  23134125.430    -6832158.951 8  -5286809.76945  23134124.709    23134129.2034
  21297473.494   -14759239.838 9 -11484045.00847  21297473.116    21297476.7984
  22754365.170   -12172574.755 8  -9469740.67046  22754364.551    22754369.3104
  24028663.487    -2844219.921 7  -2191878.31845  24028662.363    24028669.5504
  23688109.043    -3706441.264 7  -2872973.49545  23688108.863    23688114.7584
 01  7 19  3 21 30.0000000  0  8 27 13 28 22 01 08 31 03
  21473126.204   -13312884.315 8 -10355202.15447  21473125.835    21473129.2314
  20292272.651   -25219266.587 9 -19639167.54048  20292272.772    20292274.2254
  21811195.953   -12941372.216 8 -10071127.78247  21811195.513    21811198.6964
  23153402.420    -6730857.937 8  -5207873.97945  23153401.743    23153406.1584
  21307545.152   -14706312.655 8 -11442803.05647  21307544.774    21307548.5754
  22739173.920   -12252405.708 8  -9531946.51546  22739173.188    22739177.9574
  24011945.253    -2932073.984 7  -2260335.84745  24011944.327    24011951.4934
  23680099.395    -3748534.030 8  -2905773.00245  23680098.928    23680104.9304
 01  7 19  3 22  0.0000000  0  8 27 13 28 22 01 08 31 03
  21464651.881   -13357417.169 9 -10389903.06247  21464651.561    21464654.9014
  20289953.283   -25231455.210 9 -19648665.16548  20289953.398    20289954.8584
  21795529.507   -13023701.036 8 -10135280.02347  21795528.989    21795531.8794
  23172729.544    -6629292.401 8  -5128732.02645  23172729.043    23172733.7854
  21317680.671   -14653050.287 9 -11401299.95347  21317680.347    21317684.1164
  22724016.655   -12332057.114 8  -9594012.47046  22724015.962    22724020.8294
  23995254.343    -3019783.396 7  -2328680.68045  23995253.652    23995260.8664
  23672171.179    -3790200.088 8  -2938240.01745  23672170.108    23672175.9414
 01  7 19  3 22 30.0000000  0  8 27 13 28 22 01 08 31 03
  21456217.036   -13401742.403 9 -10424442.18947  21456216.710    21456220.0714
  20287707.909   -25243254.587 9 -19657859.48048  20287708.022    20287709.5044
  21779931.935   -13105666.560 8 -10199149.20647  21779931.447    21779934.2714
  23192107.103    -6527463.994 8  -5049385.28445  23192106.548    23192110.9704
  21327880.025   -14599451.841 9 -11359534.95147  21327879.706    21327883.6144
  22708893.735   -12411527.229 8  -9655937.15546  22708893.211    22708898.1014
  23978591.618    -3107343.688 7  -2396909.29245  23978591.277    23978598.3504
  23664324.587    -3831436.186 8  -2970371.98445  23664323.380    23664328.7604
 01  7 19  3 23  0.0000000  0  8 27 13 28 22 01 08 31 03
  21447821.762   -13445859.898 8 -10458819.45747  21447821.422    21447824.7204
  20285536.879   -25254663.245 9 -19666749.33948  20285536.995    20285538.5504
  21764403.659   -13187266.761 8 -10262733.72247  21764403.198    21764406.1824
  23211533.477    -6425376.092 7  -4969836.32045  23211533.041    23211537.5924
  21338143.593   -14545517.226 9 -11317508.02247  21338143.241    21338147.0244
  22693805.850   -12490815.362 8  -9717720.03046  22693805.255    22693810.1684
  23961958.534    -3194751.549 7  -2465019.19145  23961958.211    23961965.1734
  23656559.778    -3872239.816 8  -3002166.99045  23656558.525    23656563.7544
 01  7 19  3 23 30.0000000  0  8 27 13 28 22 01 08 31 03
  21439466.071   -13489768.889 9 -10493034.23747  21439465.807    21439469.1264
  20283440.554   -25265679.313 9 -19675333.28448  20283440.696    20283442.3104
  21748945.469   -13268498.970 8 -10326031.48747  21748945.029    21748948.2084
  23231009.064    -6323030.788 8  -4890086.77645  23231008.697    23231013.4934
  21348471.186   -14491245.740 8 -11275218.57847  21348470.791    21348474.5444
  22678752.607   -12569920.189 8  -9779360.08646  22678752.037    22678757.0094
  23945355.135    -3282002.914 7  -2533007.11145  23945354.626    23945361.6004
  23648877.614    -3912608.163 7  -3033622.75445  23648876.714    23648881.6344
 01  7 19  3 24  0.0000000  0  8 27 13 28 22 01 08 31 03
  21431149.866   -13533470.962 8 -10527087.77447  21431149.554    21431152.9644
  20281418.880   -25276303.203 9 -19683611.63348  20281419.016    20281420.7004
  21733557.565   -13349362.550 8 -10389042.00047  21733557.142    21733560.3634
  23250533.162    -6220431.835 7  -4810139.59445  23250532.641    23250537.5474
  21358862.429   -14436638.893 9 -11232667.81647  21358862.098    21358865.8434
  22663733.991   -12648843.120 8  -9840858.37546  22663733.384    22663738.2944
  23928781.960    -3369095.853 7  -2600871.62345  23928781.409    23928787.8614
  23641278.206    -3952540.363 7  -3064738.70645  23641277.674    23641282.7314
 01  7 19  3 24 30.0000000  0  8 27 13 28 22 01 08 31 03
  21422873.289   -13576964.937 9 -10560979.18847  21422872.993    21422876.2104
  20279472.184   -25286532.927 9 -19691582.84448  20279472.333    20279474.0724
  21718240.443   -13429854.595 8 -10451763.02047  21718240.055    21718243.2084
  23270104.731    -6117580.895 7  -4729996.04745  23270104.332    23270109.4384
  21369317.894   -14381695.875 9 -11189855.10247  21369317.489    21369321.2424
  22648750.250   -12727582.159 8  -9902213.35246  22648749.577    22648754.6164
  23912240.038    -3456025.958 7  -2668609.20145  23912239.221    23912245.6784
  23633763.013    -3992033.311 7  -3095512.33645  23633762.527    23633767.5334
 01  7 19  3 25  0.0000000  0  8 27 13 28 22 01 08 31 03
  21414636.192   -13620251.139 9 -10594708.65447  21414635.836    21414639.1324
  20277600.783   -25296367.075 9 -19699245.81548  20277600.969    20277602.7174
  21702994.350   -13509973.352 8 -10514193.15247  21702993.920    21702996.9354
  23289724.232    -6014481.218 8  -4649658.76545  23289723.899    23289728.4554
  21379837.001   -14326417.141 8 -11146780.79547  21379836.657    21379840.4364
  22633801.617   -12806137.451 8  -9963425.14146  22633800.896    22633805.9094
  23895728.765    -3542790.331 7  -2736217.61345  23895728.252    23895734.8454
  23626331.683    -4031084.709 7  -3125941.92245  23626331.132    23626336.3434
 01  7 19  3 25 30.0000000  0  8 27 13 28 22 01 08 31 03
  21406438.654   -13663329.678 9 -10628276.34447  21406438.331    21406441.4884
  20275804.823   -25305804.981 9 -19706600.02448  20275804.992    20275806.7134
  21687819.503   -13589716.992 8 -10576330.98847  21687819.125    21687822.1044
  23309390.065    -5911136.508 7  -4569130.45645  23309389.586    23309394.3784
  21390419.976   -14270803.046 8 -11103445.17347  21390419.681    21390423.5024
  22618888.136   -12884508.648 8 -10024493.49746  22618887.350    22618892.2264
  23879250.174    -3629385.827 7  -2803694.49845  23879249.689    23879256.2264
  23618984.719    -4069692.737 7  -3156026.03045  23618984.057    23618989.5154
 01  7 19  3 26  0.0000000  0  8 27 13 28 22 01 08 31 03
  21398280.538   -13706201.148 8 -10661682.66147  21398280.129    21398283.3244
  20274084.404   -25314845.808 9 -19713644.81848  20274084.563    20274086.3064
  21672716.262   -13669084.220 8 -10638175.52047  21672715.961    21672718.9414
  23329102.165    -5807549.565 7  -4488413.40645  23329101.539    23329106.2754
  21401066.736   -14214854.144 8 -11059848.65247  21401066.450    21401070.2264
  22604009.551   -12962695.910 8 -10085418.56046  22604008.860    22604013.6594
  23862804.245    -3715809.490 7  -2871037.48445  23862803.685    23862810.2984
  23611722.559    -4107855.765 7  -3185763.37945  23611721.884    23611727.2644
 01  7 19  3 26 30.0000000  0  8 27 13 28 22 01 08 31 03
  21390161.722   -13748865.385 9 -10694927.50247  21390161.359    21390164.5804
  20272439.750   -25323488.519 9 -19720379.39448  20272439.932    20272441.6704
  21657685.172   -13748073.041 8 -10699725.19647  21657684.797    21657687.9584
  23348860.150    -5703722.893 8  -4407509.55445  23348859.201    23348863.9374
  21411777.079   -14158570.814 9 -11015991.53647  21411776.785    21411780.6324
  22589166.008   -13040698.569 8 -10146199.72946  22589165.337    22589170.1694
  23846391.314    -3802058.124 8  -2938244.04645  23846390.937    23846397.7034
  23604545.557    -4145571.607 7  -3215152.28745  23604544.945    23604550.2524
 01  7 19  3 27  0.0000000  0  8 27 13 28 22 01 08 31 03
  21382082.553   -13791321.443 9 -10728010.13147  21382082.163    21382085.4554
  20270871.234   -25331731.354 9 -19726802.38148  20270871.398    20270873.1254
  21642726.727   -13826680.534 8 -10760977.73247  21642726.312    21642729.4924
  23368663.127    -5599658.406 7  -4326420.40745  23368661.972    23368666.9224
  21422551.462   -14101952.309 9 -10971873.26147  21422551.026    21422554.8194
  22574357.726   -13118515.539 8 -10206836.23746  22574357.198    22574362.0124
  23830013.299    -3888127.309 7  -3005310.83345  23830012.586    23830019.0314
  23597454.226    -4182837.255 7  -3244190.42045  23597453.383    23597458.5244
 01  7 19  3 27 30.0000000  0  8 27 13 28 22 01 08 31 03
  21374042.940   -13833569.586 9 -10760930.73847  21374042.568    21374045.8624
  20269379.003   -25339573.210 9 -19732912.91648  20269379.161    20269380.8714
  21627841.074   -13904905.030 8 -10821931.83047  21627840.677    21627843.8164
  23388510.367    -5495359.764 8  -4245148.76745  23388509.351    23388514.4544
  21433389.326   -14044999.235 8 -10927494.27047  21433388.904    21433392.7094
  22559585.162   -13196146.254 8 -10267327.62946  22559584.495    22559589.1214
  23813669.080    -3974013.995 7  -3072235.37845  23813668.620    23813675.1314
  23590448.484    -4219651.116 7  -3272876.45945  23590447.823    23590453.1994
 01  7 19  3 28  0.0000000  0  8 27 13 28 22 01 08 31 03
  21366043.045   -13875609.179 9 -10793688.85147  21366042.716    21366045.9914
  20267963.312   -25347012.589 9 -19738709.82848  20267963.481    20267965.1734
  21613028.767   -13982744.280 8 -10882585.74247  21613028.312    21613031.4544
  23408402.138    -5390829.110 7  -4163696.40045  23408401.021    23408405.9594
  21444290.788   -13987710.985 9 -10882854.09647  21444290.397    21444294.2294
  22544848.015   -13273590.055 8 -10327673.36146  22544847.387    22544852.0744
  23797360.798    -4059714.478 8  -3139014.81745  23797360.421    23797366.8724
  23583528.740    -4256010.237 7  -3301208.15945  23583528.703    23583534.1764
 01  7 19  3 28 30.0000000  0  8 27 13 28 22 01 08 31 03
  21358082.654   -13917441.465 9 -10826285.40747  21358082.288    21358085.5974
  20266624.266   -25354049.295 9 -19744192.97348  20266624.438    20266626.1464
  21598289.779   -14060197.607 8 -10942938.91247  21598289.306    21598292.3514
  23428336.631    -5286070.100 7  -4082066.00145  23428335.860    23428340.9634
  21455256.162   -13930088.997 8 -10837953.88947  21455255.655    21455259.4094
  22530146.444   -13350847.650 8 -10387873.97546  22530145.735    22530150.4504
  23781088.500    -4145226.288 7  -3205647.25745  23781088.015    23781094.3614
  23576696.449    -4291913.934 8  -3329185.03345  23576696.532    23576701.9234
 01  7 19  3 29  0.0000000  0  8 27 13 28 22 01 08 31 03
  21350161.598   -13959066.660 9 -10858720.60347  21350161.251    21350164.5614
  20265362.030   -25360682.255 9 -19749361.51248  20265362.222    20265363.8834
  21583624.604   -14137263.002 8 -11002989.81247  21583624.208    21583627.2294
  23448314.835    -5181085.418 7  -4000259.79445  23448313.990    23448319.0734
  21466284.525   -13872133.699 8 -10792793.95147  21466284.111    21466287.9554
  22515480.073   -13427918.375 8 -10447928.99646  22515479.557    22515484.1484
  23764852.835    -4230546.224 7  -3272130.16345  23764851.986    23764858.4704
  23569951.628    -4327360.171 7  -3356805.45445  23569951.362    23569956.7274
 01  7 19  3 29 30.0000000  0  8 27 13 28 22 01 08 31 03
  21342280.073   -14000484.506 9 -10890994.22347  21342279.707    21342282.9924
  20264176.864   -25366910.566 9 -19754214.73848  20264177.052    20264178.6604
  21569033.648   -14213938.708 8 -11062737.05647  21569033.239    21569036.3274
  23468335.295    -5075878.059 8  -3918280.11345  23468334.309    23468339.2124
  21477376.208   -13813845.288 8 -10747374.42947  21477376.012    21477379.9664
  22500849.663   -13504802.177 8 -10507838.37346  22500849.106    22500853.7094
  23748653.908    -4315671.272 7  -3338461.24245  23748653.191    23748659.4784
  23563294.036    -4362346.606 7  -3384067.54945  23563293.552    23563298.6684
 01  7 19  3 30  0.0000000  0  8 27 13 28 22 01 08 31 03
  21334438.093   -14041694.463 9 -10923105.84147  21334437.686    21334440.9654
  20263068.946   -25372732.602 9 -19758751.38948  20263069.139    20263070.7314
  21554517.284   -14290222.291 8 -11122178.77147  21554516.878    21554520.0284
  23488397.689    -4970450.712 8  -3836129.00845  23488396.621    23488401.4424
  21488531.606   -13755223.529 9 -10701695.16347  21488531.369    21488535.2594
  22486254.907   -13581498.077 8 -10567601.36046  22486254.370    22486258.6634
  23732492.262    -4400597.548 7  -3404637.39945  23732491.969    23732498.0674
  23556724.316    -4396870.840 7  -3410969.49245  23556723.859    23556729.0264
 01  7 19  3 30 30.0000000  0  8 27 13 28 22 01 08 31 03
  21326635.670   -14082695.957 9 -10955055.03147  21326635.377    21326638.6204
  20262038.598   -25378146.766 9 -19762970.22348  20262038.842    20262040.4264
  21540076.078   -14366111.569 8 -11181313.21547  21540075.626    21540078.6444
  23508501.386    -4864805.319 7  -3753807.97645  23508500.334    23508505.1734
  21499750.671   -13696268.058 8 -10655755.84347  21499750.303    21499754.2474
  22471696.147   -13658004.689 8 -10627216.80346  22471695.559    22471699.8774
  23716369.835    -4485320.950 7  -3470655.51945  23716369.309    23716375.4454
  23550242.902    -4430930.235 7  -3437509.22145  23550242.397    23550247.5104
 01  7 19  3 31  0.0000000  0  8 27 13 28 22 01 08 31 03
  21318872.781   -14123490.530 9 -10986842.98747  21318872.452    21318875.6274
  20261085.838   -25383153.472 9 -19766871.54948  20261086.092    20261087.6534
  21525709.954   -14441605.805 9 -11240139.83647  21525709.571    21525712.4124
  23528645.612    -4758945.738 7  -3671320.01645  23528644.658    23528649.6714
  21511032.811   -13636980.510 8 -10609557.79347  21511032.442    21511036.2684
  22457173.190   -13734323.443 8 -10686685.88846  22457172.493    22457176.8804
  23700286.445    -4569839.698 7  -3536514.14645  23700286.014    23700291.8934
  23543850.021    -4464524.349 7  -3463686.35145  23543849.742    23543854.6954
 01  7 19  3 31 30.0000000  0  8 27 13 28 22 01 08 31 03
  21311149.279   -14164077.545 9 -11018469.19747  21311148.958    21311152.1454
  20260211.024   -25387750.798 9 -19770453.87848  20260211.267    20260212.7934
  21511419.507   -14516703.039 8 -11298657.10447  21511419.045    21511421.8794
  23548830.626    -4652874.185 7  -3588666.91445  23548829.505    23548834.6254
  21522377.880   -13577360.780 8 -10563100.87447  21522377.618    21522381.5794
  22442686.146   -13810453.230 8 -10746007.72946  22442685.432    22442689.6564
  23684242.354    -4654150.032 7  -3602210.34845  23684242.151    23684248.2644
  23537546.327    -4497650.876 7  -3489499.16345  23537545.966    23537551.0334
 01  7 19  3 32  0.0000000  0  8 27 13 28 22 01 08 31 03
  21303465.609   -14204455.884 9 -11049932.81947  21303465.218    21303468.3124
  20259414.543   -25391936.767 9 -19773715.67748  20259414.759    20259416.2564
  21497205.050   -14591400.182 8 -11356862.62047  21497204.595    21497207.5374
  23569054.894    -4546592.877 7  -3505850.36345  23569054.024    23569059.1954
  21533786.679   -13517408.023 8 -10516384.47147  21533786.340    21533790.2944
  22428235.424   -13886392.319 8 -10805181.03846  22428234.726    22428238.6904
  23668239.139    -4738247.329 8  -3667740.57545  23668238.959    23668244.9954
  23531332.156    -4530306.749 7  -3514945.23245  23531331.618    23531336.9394
 01  7 19  3 32 30.0000000  0  8 27 13 28 22 01 08 31 03
  21295821.355   -14244626.192 9 -11081234.32447  21295821.020    21295824.2064
  20258696.362   -25395711.103 9 -19776656.71848  20258696.536    20258698.0244
  21483066.909   -14665696.385 8 -11414755.70347  21483066.413    21483069.2734
  23589318.931    -4440105.328 7  -3422873.10945  23589317.885    23589322.9354
  21545258.708   -13457123.296 8 -10469409.39447  21545258.208    21545262.0514
  22413820.522   -13962141.457 8 -10864206.28246  22413819.906    22413823.8954
  23652277.219    -4822129.132 8  -3733102.84545  23652276.850    23652282.7024
  23525207.604    -4562490.617 7  -3540023.50745  23525207.218    23525212.4544
 01  7 19  3 33  0.0000000  0  8 27 13 28 22 01 08 31 03
  21288216.666   -14284589.076 9 -11112374.20847  21288216.334    21288219.4224
  20258056.511   -25399073.536 9 -19779276.79348  20258056.689    20258058.1734
  21469005.365   -14739590.242 9 -11472335.29247  21469004.917    21469007.5804
  23609621.444    -4333414.424 8  -3339737.39845  23609620.570    23609625.8234
  21556793.606   -13396507.384 8 -10422176.23447  21556793.103    21556796.8604
  22399442.073   -14037700.168 8 -10923083.12446  22399441.490    22399445.5134
  23636356.495    -4905792.771 8  -3798295.20645  23636356.012    23636361.7644
  23519173.019    -4594200.926 7  -3564732.80845  23519172.836    23519177.8194
 01  7 19  3 33 30.0000000  0  8 27 13 28 22 01 08 31 03
  21280651.591   -14324343.741 9 -11143351.83947  21280651.262    21280654.3794
  20257495.355   -25402022.141 9 -19781574.40048  20257495.538    20257497.0814
  21455020.849   -14813079.162 9 -11529599.33647  21455020.378    21455023.0054
  23629962.555    -4226521.957 7  -3256444.61245  23629961.598    23629966.7424
  21568391.006   -13335559.816 8 -10374684.61547  21568390.854    21568394.8854
  22385099.968   -14113067.848 8 -10981811.12146  22385099.408    22385103.5764
  23620478.227    -4989233.853 7  -3863314.14845  23620477.574    23620483.2894
  23513229.128    -4625435.099 8  -3589071.05545  23513229.081    23513234.0724
 01  7 19  3 34  0.0000000  0  8 27 13 28 22 01 08 31 03
  21273125.823   -14363891.361 9 -11174168.15147  21273125.532    21273128.6824
  20257012.910   -25404557.119 9 -19783549.70248  20257013.112    20257014.6664
  21441113.537   -14886162.797 9 -11586547.55447  21441113.046    21441115.7254
  23650341.325    -4119432.056 7  -3172998.02545  23650340.370    23650344.9914
  21580051.759   -13274282.200 8 -10326935.86047  21580051.601    21580055.6444
  22370794.201   -14188245.136 8 -11040390.79246  22370793.632    22370797.7984
  23604641.971    -5072450.677 7  -3928158.30145  23604641.597    23604647.5644
  23507375.870    -4656192.594 7  -3613037.90245  23507375.942    23507380.9234
 01  7 19  3 34 30.0000000  0  8 27 13 28 22 01 08 31 03
  21265639.831   -14403230.900 9 -11204822.30647  21265639.484    21265642.5604
  20256609.666   -25406676.234 9 -19785200.95748  20256609.891    20256611.4044
  21427283.872   -14958838.346 8 -11643177.77347  21427283.361    21427286.0604
  23670757.074    -4012146.995 7  -3089399.32245  23670756.086    23670760.8884
  21591775.685   -13212673.739 8 -10278929.30447  21591775.425    21591779.3834
  22356524.718   -14263230.331 8 -11098820.78446  22356524.301    22356528.3444
  23588850.097    -5155438.578 7  -3992824.11245  23588849.370    23588855.4684
  23501614.336    -4686470.658 8  -3636631.12045  23501614.301    23501619.3624
 01  7 19  3 35  0.0000000  0  8 27 13 28 22 01 08 31 03
  21258193.180   -14442362.690 9 -11235314.58147  21258192.889    21258196.0294
  20256285.657   -25408378.977 9 -19786527.76648  20256285.885    20256287.3834
  21413531.951   -15031104.320 8 -11699488.87547  21413531.471    21413534.2004
  23691209.332    -3904669.504 7  -3005650.64845  23691208.377    23691213.2524
  21603562.189   -13150735.297 8 -10230665.60447  21603561.925    21603565.8054
  22342292.041   -14338023.504 8 -11157101.12846  22342291.534    22342295.6754
  23573102.158    -5238194.688 7  -4057309.30045  23573101.492    23573107.5174
  23495944.329    -4716267.521 8  -3659849.39145  23495944.146    23495949.2534
 01  7 19  3 35 30.0000000  0  8 27 13 28 22 01 08 31 03
  21250786.176   -14481286.700 9 -11265644.96947  21250785.847    21250788.9924
  20256041.109   -25409664.201 9 -19787529.23748  20256041.344    20256042.8564
  21399858.265   -15102959.093 8 -11755479.55847  21399857.797    21399860.5164
  23711697.736    -3797001.919 7  -2921753.90345  23711696.875    23711701.9514
  21615411.482   -13088467.227 8 -10182145.05447  21615411.203    21615414.9964
  22328095.904   -14412624.485 8 -11215231.72646  22328095.510    22328099.6424
  23557398.365    -5320715.659 8  -4121611.24345  23557398.192    23557404.2284
  23490366.171    -4745581.454 8  -3682691.36045  23490365.808    23490370.9064
 01  7 19  3 36  0.0000000  0  8 27 13 28 22 01 08 31 03
  21243418.617   -14520003.641 9 -11295814.00647  21243418.278    21243421.4034
  20255875.990   -25410531.922 9 -19788205.38148  20255876.169    20255877.7044
  21386263.136   -15174401.649 9 -11811149.03747  21386262.718    21386265.3764
  23732221.451    -3689147.699 7  -2837711.80945  23732220.545    23732226.3284
  21627323.008   -13025870.716 8 -10133368.58047  21627322.786    21627326.7714
  22313936.638   -14487033.097 8 -11273212.41946  22313936.084    22313940.3264
  23541740.477    -5402999.022 7  -4185728.04745  23541740.013    23541746.2354
  23484879.859    -4774411.684 8  -3705156.44245  23484879.496    23484884.4484
 01  7 19  3 36 30.0000000  0  8 27 13 28 22 01 08 31 03
  21236090.667   -14558512.047 9 -11325820.53047  21236090.330    21236093.5104
  20255790.825   -25410979.742 9 -19788554.32148  20255790.998    20255792.4954
  21372747.148   -15245429.012 9 -11866494.97747  21372746.696    21372749.3864
  23752780.702    -3581108.568 8  -2753525.42545  23752780.012    23752785.4724
  21639297.656   -12962944.419 8 -10084335.12647  21639297.326    21639301.2624
  22299813.848   -14561247.886 8 -11331042.08546  22299813.410    22299817.6674
  23526128.451    -5485039.873 8  -4249655.90045  23526128.080    23526133.9294
  23479486.563    -4802754.742 8  -3727241.85746  23479486.090    23479490.8484
 01  7 19  3 37  0.0000000  0  9 27 13 28 22 01 08 10 31 03
  21228801.272   -14596818.058 9 -11355669.36347  21228800.907    21228804.0434
  20255784.577   -25411012.756 9 -19788580.04748  20255784.752    20255786.1574
  21359309.182   -15316045.663 8 -11921520.88347  21359308.729    21359311.5314
  23773373.697    -3472893.487 7  -2669202.06745  23773372.857    23773378.1774
  21651333.781   -12899694.933 8 -10035049.85647  21651333.394    21651337.2494
  22285727.072   -14635274.654 8 -11388725.23846  22285726.483    22285730.5124
  24665139.106    -3483181.14417  -2704192.20955  24665137.911    24665143.2974
  23510562.061    -5566841.079 8  -4313396.97045  23510561.847    23510567.5764
  23474184.742    -4830615.170 7  -3748951.22645  23474184.211    23474189.2294
 01  7 19  3 37 30.0000000  0  9 27 13 28 22 01 08 10 31 03
  21221551.957   -14634913.687 9 -11385354.24547  21221551.576    21221554.6394
  20255858.938   -25410622.038 9 -19788275.60848  20255859.110    20255860.4984
  21345951.188   -15386241.890 9 -11976219.19947  21345950.815    21345953.6344
  23794000.959    -3364496.911 7  -2584737.27745  23794000.017    23794005.4764
  21663432.376   -12836114.956 8  -9985507.04547  21663432.148    21663436.0844
  22271677.594   -14709104.810 8 -11446255.21446  22271677.119    22271681.1114
  24648849.502    -3568782.240 7  -2770894.30845  24648848.457    24648853.7064
  23495043.519    -5648391.410 8  -4376942.58545  23495043.340    23495049.0314
  23468976.515    -4857983.078 8  -3770276.77145  23468976.256    23468981.2424
 01  7 19  3 38  0.0000000  0  9 27 13 28 22 01 08 10 31 03
  21214342.241   -14672800.273 9 -11414876.24947  21214341.937    21214345.0634
  20256013.768   -25409808.141 9 -19787641.40048  20256013.943    20256015.3704
  21332673.355   -15456017.858 9 -12030590.03247  21332672.918    21332675.6364
  23814662.206    -3255922.730 7  -2500133.95045  23814661.213    23814666.2114
  21675593.569   -12772206.158 8  -9935708.01047  21675593.608    21675597.6584
  22257665.423   -14782739.659 8 -11503632.97546  22257664.840    22257668.7704
  24632625.297    -3654043.476 7  -2837331.53345  24632623.880    24632629.2574
  23479573.443    -5729688.932 8  -4440291.18045  23479573.000    23479578.3784
  23463862.474    -4884858.090 8  -3791218.28245  23463862.126    23463867.3504
 01  7 19  3 38 30.0000000  0  9 27 13 28 22 01 08 10 31 03
  21207172.354   -14710478.808 9 -11444236.13047  21207171.981    21207175.0924
  20256249.134   -25408571.291 9 -19786677.61748  20256249.310    20256250.6954
  21319475.529   -15525372.750 9 -12084632.74847  21319475.075    21319477.7404
  23835356.207    -3147174.706 8  -2415395.34545  23835355.046    23835360.5724
  21687817.546   -12707970.154 8  -9885654.00747  21687817.317    21687821.3664
  22243690.169   -14856179.501 8 -11560858.76946  22243689.664    22243693.7694
  24616465.278    -3738963.098 7  -2903502.59545  24616463.907    24616469.6624
  23464151.462    -5810731.498 7  -4503441.11045  23464150.917    23464156.5614
  23458842.269    -4911239.808 8  -3811775.42745  23458841.961    23458847.0684
 01  7 19  3 39  0.0000000  0  9 27 13 28 22 01 08 10 31 03
  21200042.011   -14747948.419 9 -11473433.22047  21200041.706    21200044.8464
  20256565.351   -25406909.718 9 -19785382.89248  20256565.541    20256566.8714
  21306358.290   -15594304.102 9 -12138345.44347  21306357.816    21306360.5264
  23856082.989    -3038255.506 7  -2330523.29445  23856082.128    23856087.2754
  21700103.875   -12643406.551 8  -9835344.75347  21700103.501    21700107.4624
  22229752.208   -14929423.521 8 -11617931.96746  22229751.703    22229755.8034
  24600371.198    -3823537.942 7  -2969405.01045  24600369.828    24600375.4434
  23448778.754    -5891514.918 8  -4566389.10545  23448778.119    23448783.9594
  23453916.176    -4937125.626 8  -3831946.15545  23453915.962    23453921.0614
 01  7 19  3 39 30.0000000  0  9 27 13 28 22 01 08 10 31 03
  21192951.515   -14785209.534 9 -11502467.84647  21192951.195    21192954.2614
  20256962.437   -25404822.834 9 -19783756.75948  20256962.647    20256963.9464
  21293321.727   -15662810.891 9 -12191727.31647  21293321.340    21293324.0984
  23876841.468    -2929167.903 7  -2245519.95445  23876840.668    23876845.4174
  21712451.880   -12578516.243 8  -9784780.91147  21712451.603    21712455.6534
  22215851.667   -15002471.744 8 -11674852.63846  22215851.156    22215855.1044
  24584342.813    -3907765.575 7  -3035036.89445  24584341.665    24584347.3724
  23433456.153    -5972036.252 7  -4629132.88945  23433455.566    23433460.7664
  23449084.626    -4962514.548 8  -3851729.71445  23449084.556    23449089.6444
 01  7 19  3 40  0.0000000  0  9 27 13 28 22 01 08 10 31 03
  21185900.650   -14822262.198 9 -11531340.04147  21185900.296    21185903.3854
  20257440.612   -25402309.920 9 -19781798.65048  20257440.796    20257442.1094
  21280366.324   -15730891.682 9 -12244777.23447  21280365.979    21280368.7734
  23897631.352    -2819914.274 8  -2160387.27945  23897630.744    23897636.0354
  21724862.409   -12513299.659 8  -9733962.83147  21724862.051    21724866.0494
  22201988.544   -15075323.598 8 -11731620.29846  22201988.014    22201991.7904
  24568381.029    -3991644.010 7  -3100396.59345  24568379.586    24568385.6434
  23418183.600    -6052292.337 8  -4691669.96345  23418183.159    23418188.5904
  23444348.026    -4987404.861 8  -3871124.69245  23444348.026    23444352.9294
 01  7 19  3 40 30.0000000  0  9 27 13 28 22 01 08 10 31 03
  21178889.385   -14859106.850 9 -11560050.12947  21178889.060    21178892.1004
  20258000.015   -25399370.385 9 -19779508.10348  20258000.188    20258001.5084
  21267492.286   -15798545.198 9 -12297494.21647  21267491.912    21267494.6304
  23918453.006    -2710497.490 7  -2075127.50945  23918452.290    23918457.2974
  21737334.681   -12447757.733 8  -9682891.26747  21737334.356    21737338.1674
  22188162.530   -15147979.118 8 -11788234.91646  22188161.956    22188165.9174
  24552486.334    -4075170.975 7  -3165482.49545  24552485.008    24552491.2604
  23402962.425    -6132280.242 7  -4753998.07245  23402961.748    23402967.2184
  23439706.462    -5011795.512 7  -3890130.35445  23439706.479    23439711.4544
 01  7 19  3 41  0.0000000  0  9 27 13 28 22 01 08 10 31 03
  21171917.631   -14895743.215 9 -11588597.93947  21171917.316    21171920.4134
  20258640.813   -25396002.972 9 -19776884.14848  20258641.025    20258642.3184
  21254699.967   -15865769.577 9 -12349876.81047  21254699.538    21254702.1564
  23939304.738    -2600920.276 7  -1989742.78245  23939304.054    23939309.1584
  21749868.752   -12381890.504 8  -9631566.16147  21749868.390    21749872.4454
  22174373.914   -15220437.500 8 -11844695.93846  22174373.520    22174377.4824
  24536658.682    -4158343.252 7  -3230291.96145  24536657.666    24536663.8924
  23387792.639    -6211996.328 8  -4816114.35445  23387792.108    23387797.7214
  23435160.731    -5035684.219 7  -3908744.84845  23435160.606    23435165.5794
 01  7 19  3 41 30.0000000  0  9 27 13 28 22 01 08 10 31 03
  21164985.644   -14932171.292 9 -11616983.42847  21164985.306    21164988.3344
  20259363.130   -25392207.339 9 -19773926.51048  20259363.325    20259364.5994
  21241989.674   -15932563.284 9 -12401923.80547  21241989.217    21241991.6564
  23960186.707    -2491185.808 7  -1904235.30045  23960185.999    23960190.9864
  21762464.680   -12315698.770 8  -9579988.26047  21762464.349    21762468.4074
  22160623.340   -15292699.007 8 -11901003.56746  22160622.760    22160626.4884
  24520899.632    -4241158.880 7  -3294823.56245  24520898.675    24520904.4814
  23372675.158    -6291437.700 8  -4878016.57945  23372674.754    23372680.6004
  23430710.776    -5059069.976 8  -3926967.45045  23430710.487    23430715.4834
 01  7 19  3 42  0.0000000  0  9 27 13 28 22 01 08 10 31 03
  21158093.022   -14968391.865 9 -11645207.24147  21158092.707    21158095.7794
  20260166.931   -25387983.001 9 -19770634.82548  20260167.138    20260168.4174
  21229361.224   -15998925.615 9 -12453634.66047  21229360.779    21229363.3534
  23981097.711    -2381296.879 7  -1818607.55745  23981097.172    23981102.6514
  21775122.205   -12249183.556 8  -9528158.26347  21775121.797    21775125.8534
  22146909.900   -15364763.608 8 -11957157.78946  22146909.374    22146912.8764
  24505208.123    -4323615.749 7  -3359075.56145  24505207.348    24505213.1234
  23357610.685    -6370601.877 8  -4939702.85445  23357610.322    23357615.9404
  23426356.288    -5081951.633 8  -3944797.29745  23426356.201    23426361.3714
 01  7 19  3 42 30.0000000  0  9 27 13 28 22 01 08 10 31 03
  21151240.067   -15004404.329 9 -11673268.87647  21151239.751    21151242.8654
  20261052.550   -25383328.949 9 -19767008.29048  20261052.785    20261054.0474
  21216815.202   -16064854.834 9 -12505008.03547  21216814.844    21216817.4534
  24002038.136    -2271255.618 7  -1732861.21545  24002037.425    24002042.8704
  21787841.127   -12182345.007 8  -9476076.33247  21787840.812    21787844.8194
  22133234.149   -15436630.270 8 -12013157.72146  22133233.552    22133237.0944
  24489585.990    -4405710.812 7  -3423045.70045  24489585.233    24489591.1114
  23342599.429    -6449485.062 7  -5001170.13645  23342599.265    23342604.7474
  23422098.170    -5104327.113 7  -3962232.68645  23422098.209    23422103.0934
 01  7 19  3 43  0.0000000  0  9 27 13 28 22 01 08 10 31 03
  21144426.803   -15040208.359 9 -11701168.12047  21144426.448    21144429.5344
  20262020.245   -25378243.775 9 -19763045.82148  20262020.485    20262021.7264
  21204352.149   -16130348.962 9 -12556042.39547  21204351.762    21204354.1994
  24023007.016    -2161064.452 7  -1646997.86745  24023006.298    24023011.1654
  21800621.632   -12115183.282 8  -9423742.55247  21800621.274    21800625.2814
  22119596.041   -15508298.675 8 -12069003.18246  22119595.453    22119599.1124
  24474033.113    -4487441.419 7  -3486731.82245  24474032.310    24474038.1374
  23327642.254    -6528083.475 7  -5062415.48445  23327642.320    23327647.9524
  23417936.778    -5126194.694 8  -3979272.29145  23417936.810    23417941.6984
 01  7 19  3 43 30.0000000  0  9 27 13 28 22 01 08 10 31 03
  21137652.991   -15075804.590 9 -11728905.42047  21137652.678    21137655.8234
  20263070.026   -25372727.427 9 -19758747.37248  20263070.248    20263071.5224
  21191972.019   -16195407.106 9 -12606737.00747  21191971.544    21191973.9894
  24044003.511    -2050727.064 7  -1561020.77345  24044002.954    24044008.1014
  21813463.595   -12047699.398 8  -9371157.75747  21813463.084    21813467.1164
  22105995.689   -15579769.005 8 -12124694.30346  22105995.098    22105998.8484
  24458549.912    -4568805.639 7  -3550132.46745  24458549.229    24458554.6804
  23312740.244    -6606394.674 8  -5123437.08745  23312740.006    23312745.6404
  23413872.766    -5147553.529 8  -3995915.47745  23413872.314    23413877.2424
 01  7 19  3 44  0.0000000  0  9 27 13 28 22 01 08 10 31 03
  21130918.863   -15111192.923 9 -11756480.74747  21130918.550    21130921.5754
  20264201.921   -25366779.148 9 -19754112.34348  20264202.135    20264203.4764
  21179674.913   -16260028.249 9 -12657091.09147  21179674.447    21179676.9224
  24065027.308    -1940246.032 7  -1474931.80845  24065026.709    24065031.8424
  21826366.522   -11979893.996 8  -9318322.42547  21826366.081    21826370.0904
  22092433.226   -15651040.807 8 -12180230.73946  22092432.558    22092436.1444
  24443137.365    -4649800.924 7  -3613245.60145  24443136.200    24443141.7494
  23297893.575    -6684415.388 8  -5184232.31445  23297893.154    23297898.6764
  23409905.641    -5168402.238 8  -4012161.16145  23409905.059    23409909.6254
 01  7 19  3 44 30.0000000  0  9 27 13 28 22 01 08 10 31 03
  21124224.288   -15146372.420 9 -11783893.31847  21124224.014    21124227.1154
  20265416.398   -25360397.045 9 -19749139.26948  20265416.564    20265417.9484
  21167461.574   -16324209.666 9 -12707102.54547  21167461.172    21167463.5224
  24086078.068    -1829622.573 7  -1388731.58345  24086077.575    24086082.6544
  21839330.698   -11911766.771 8  -9265236.31747  21839330.296    21839334.3574
  22078908.464   -15722112.693 8 -12235611.39446  22078907.801    22078911.5084
  24427794.875    -4730423.877 7  -3676068.63545  24427794.110    24427799.6404
  23283102.371    -6762141.349 8  -5244797.88945  23283102.313    23283107.7034
  23406035.846    -5188738.685 8  -4028007.70445  23406035.229    23406039.8484
 01  7 19  3 45  0.0000000  0  9 27 13 28 22 01 08 10 31 03
  21117569.726   -15181342.846 9 -11811143.00047  21117569.401    21117572.4954
  20266713.582   -25353580.277 9 -19743827.50648  20266713.766    20266715.1464
  21155332.093   -16387949.927 9 -12756770.24947  21155331.699    21155334.1364
  24107155.438    -1718858.998 7  -1302422.38145  24107154.884    24107160.5464
  21852356.266   -11843318.241 8  -9211899.84247  21852355.758    21852359.8014
  22065421.921   -15792984.276 8 -12290835.95746  22065421.297    22065425.0384
  24412524.415    -4810672.020 7  -3738599.59345  24412523.502    24412528.7334
  23268368.153    -6839569.286 7  -5305131.21645  23268368.164    23268373.5154
  23402263.114    -5208561.067 7  -4043453.68645  23402262.870    23402267.7064
 01  7 19  3 45 30.0000000  0  9 27 13 28 22 01 08 10 31 03
  21110954.773   -15216104.662 9 -11838230.11647  21110954.440    21110957.5064
  20268093.631   -25346328.604 9 -19738176.84148  20268093.741    20268095.1164
  21143286.844   -16451248.041 9 -12806093.40747  21143286.487    21143288.8764
  24128259.364    -1607958.783 7  -1216006.66645  24128258.654    24128264.2954
  21865442.910   -11774549.303 8  -9158313.71547  21865442.189    21865446.0854
  22051973.546   -15863655.831 8 -12345904.67947  22051972.897    22051976.8164
  24397325.626    -4890543.111 7  -3800836.76845  24397324.663    24397330.1254
  23253691.020    -6916696.109 7  -5365229.91245  23253691.335    23253696.8394
  23398588.833    -5227868.265 8  -4058498.15845  23398588.953    23398593.4734
 01  7 19  3 46  0.0000000  0  9 27 13 28 22 01 08 10 31 03
  21104379.419   -15250658.002 9 -11865154.77747  21104379.112    21104382.1974
  20269556.492   -25338641.242 9 -19732186.68848  20269556.568    20269558.0544
  21131326.019   -16514102.694 9 -12855071.02447  21131325.578    21131327.9504
  24149388.147    -1496925.005 7  -1129486.77845  24149387.686    24149392.9394
  21878590.015   -11705460.668 8  -9104478.44147  21878589.348    21878593.2744
  22038563.318   -15934126.910 8 -12400817.14446  22038562.621    22038566.5724
  24382199.084    -4970034.720 7  -3862778.24045  24382197.896    24382203.4324
  23239071.881    -6993518.870 8  -5425091.67545  23239072.195    23239077.7184
  23395013.092    -5246659.169 8  -4073140.35545  23395013.030    23395017.8484
 01  7 19  3 46 30.0000000  0  9 27 13 28 22 01 08 10 31 03
  21097843.779   -15285003.296 9 -11891917.34947  21097843.447    21097846.5594
  20271102.238   -25330518.012 9 -19725856.89648  20271102.328    20271103.8574
  21119449.596   -16576513.060 9 -12903702.43247  21119449.140    21119451.6874
  24170542.442    -1385760.167 7  -1042864.85045  24170541.852    24170546.4074
  21891797.534   -11636053.378 8  -9050394.87047  21891797.034    21891801.0484
  22025191.052   -16004397.509 8 -12455573.46246  22025190.468    22025194.2844
  24367144.526    -5049144.931 7  -3924422.55645  24367143.538    24367149.3714
  23224511.460    -7070034.980 8  -5484714.50045  23224511.595    23224517.0944
  23391535.869    -5264933.056 8  -4087379.70146  23391535.607    23391540.4134
 01  7 19  3 47  0.0000000  0  9 27 13 28 22 01 08 10 31 03
  21091347.725   -15319139.868 9 -11918517.28447  21091347.454    21091350.5264
  20272731.281   -25321957.297 9 -19719186.20748  20272731.400    20272732.8814
  21107658.175   -16638477.008 9 -12951985.98747  21107657.743    21107660.4014
  24191721.112    -1274466.008 7   -956142.18645  24191720.520    24191725.1214
  21905065.827   -11566327.347 8  -8996062.90747  21905065.389    21905069.5384
  22011857.280   -16074466.858 8 -12510172.88846  22011856.639    22011860.5424
  24352163.181    -5127870.791 7  -3985767.39645  24352162.419    24352168.2814
  23210010.298    -7146240.439 8  -5544095.25345  23210010.274    23210015.5034
  23388157.682    -5282687.937 8  -4101214.61145  23388157.116    23388161.5504
 01  7 19  3 47 30.0000000  0  9 27 13 28 22 01 08 10 31 03
  21084891.377   -15353068.486 9 -11944955.16047  21084891.064    21084894.1234
  20274443.414   -25312959.676 9 -19712175.06948  20274443.585    20274445.0644
  21095951.855   -16699994.341 9 -12999921.52447  21095951.387    21095953.9684
  24212923.700    -1163046.096 7   -869321.53245  24212923.122    24212927.6874
  21918394.623   -11496284.168 8  -8941483.85947  21918394.220    21918398.2614
  21998561.669   -16144335.250 8 -12564615.77646  21998561.103    21998564.9984
  24337255.848    -5206211.204 7  -4046811.87945  24337254.869    24337260.3214
  23195568.517    -7222132.807 8  -5603232.06045  23195568.392    23195573.4284
  23384877.819    -5299923.217 8  -4114644.68045  23384877.226    23384881.8004
 01  7 19  3 48  0.0000000  0  9 27 13 28 22 01 08 10 31 03
  21078474.547   -15386788.903 9 -11971230.81147  21078474.256    21078477.2754
  20276238.916   -25303524.247 9 -19704822.78448  20276239.072    20276240.6154
  21084330.735   -16761063.439 9 -13047507.79547  21084330.322    21084332.8434
  24234149.545    -1051503.282 7   -782405.02745  24234148.848    24234153.5704
  21931784.036   -11425924.239 8  -8886657.98247  21931783.422    21931787.3274
  21985304.395   -16214002.489 8 -12618901.90246  21985303.781    21985307.7144
  24322422.231    -5284162.913 7  -4107553.46345  24322421.278    24322426.3824
  23181187.014    -7297708.660 8  -5662122.21245  23181186.679    23181191.6944
  23381697.297    -5316637.498 8  -4127668.73345  23381696.798    23381701.1034
 01  7 19  3 48 30.0000000  0  9 27 13 28 22 01 08 10 31 03
  21072097.586   -15420300.003 9 -11997343.34247  21072097.261    21072100.3514
  20278118.047   -25293649.082 9 -19697127.85248  20278118.231    20278119.7584
  21072795.370   -16821681.755 9 -13094742.82047  21072794.978    21072797.4904
  24255398.216     -939838.904 7   -695393.84645  24255397.677    24255402.9724
  21945233.513   -11355247.000 8  -8831584.83647  21945232.921    21945236.8724
  21972085.692   -16283466.773 8 -12673029.89246  21972085.152    21972089.0614
  24307663.105    -5361722.300 7  -4167989.32645  24307662.126    24307667.4894
  23166866.190    -7372963.828 7  -5720762.47645  23166865.904    23166871.0674
  23378616.115    -5332828.426 8  -4140284.97645  23378615.642    23378620.0004
 01  7 19  3 49  0.0000000  0  9 27 13 28 22 01 08 10 31 03
  21065760.557   -15453601.533 9 -12023292.59147  21065760.178    21065763.2884
  20280081.173   -25283333.069 9 -19689089.39848  20280081.352    20280082.8064
  21061346.073   -16881848.023 9 -13141625.58447  21061345.714    21061348.1784
  24276670.430     -828055.083 8   -608289.60745  24276669.460    24276674.3614
  21958743.141   -11284253.011 8  -8776264.86747  21958742.658    21958746.4994
  21958905.813   -16352727.481 8 -12726999.27146  21958905.236    21958909.0374
  24292978.794    -5438887.027 7  -4228117.66045  24292978.012    24292983.5584
  23152607.123    -7447894.883 8  -5779150.17945  23152606.824    23152612.1044
  23375634.208    -5348494.655 7  -4152492.39945  23375634.086    23375638.7814
 01  7 19  3 49 30.0000000  0  9 27 13 28 22 01 08 10 31 03
  21059463.228   -15486694.004 9 -12049078.91647  21059462.837    21059466.0284
  20282128.245   -25272576.063 9 -19680707.31548  20282128.345    20282129.7964
  21049982.869   -16941561.547 9 -13188155.57647  21049982.530    21049985.0744
  24297964.677     -716154.674 7   -521094.43445  24297963.700    24297968.1414
  21972312.941   -11212943.373 8  -8720698.94946  21972312.434    21972316.3174
  21945764.598   -16421785.117 8 -12780810.38747  21945764.084    21945767.9104
  24278370.062    -5515654.954 7  -4287936.79345  24278369.485    24278375.4334
  23138410.337    -7522499.058 8  -5837283.22945  23138410.113    23138415.3474
  23372752.668    -5363635.520 8  -4164290.42545  23372752.740    23372757.6824
 01  7 19  3 50  0.0000000  0  9 27 13 28 22 01 08 10 31 03
  21053205.601   -15519577.951 9 -12074702.77047  21053205.279    21053208.4094
  20284259.048   -25261378.339 9 -19671981.82148  20284259.180    20284260.5994
  21038706.143   -17000821.449 9 -13234332.07447  21038705.697    21038708.2184
  24319280.075     -604140.909 7   -433811.05945  24319279.123    24319284.1114
  21985942.559   -11141319.261 8  -8664887.99546  21985942.089    21985945.8064
  21932661.838   -16490640.013 8 -12834463.52246  21932661.315    21932665.2244
  24263837.458    -5592024.344 7  -4347445.38545  24263836.944    24263842.7534
  23124276.084    -7596773.934 8  -5895159.63045  23124275.957    23124281.0634
  23369971.439    -5378250.313 8  -4175678.57045  23369971.455    23369976.3924
 01  7 19  3 50 30.0000000  0  9 27 13 28 22 01 08 10 31 03
  21046987.578   -15552253.417 9 -12100164.16047  21046987.274    21046990.4714
  20286473.878   -25249739.265 9 -19662912.41648  20286474.046    20286475.4294
  21027515.882   -17059626.645 9 -13280154.26047  21027515.434    21027517.9174
  24340616.963     -492017.094 8   -346441.94345  24340615.912    24340620.9284
  21999631.808   -11069381.519 8  -8608832.63046  21999631.282    21999635.2574
  21919597.924   -16559291.657 8 -12887958.25746  21919597.299    21919601.3984
  24249381.396    -5667992.979 7  -4406641.67545  24249380.603    24249386.2914
  23110205.196    -7670716.298 8  -5952776.95145  23110205.079    23110210.1454
  23367291.172    -5392338.087 8  -4186655.99846  23367290.990    23367295.4674
 01  7 19  3 51  0.0000000  0  9 27 13 28 22 01 08 10 31 03
  21040809.583   -15584719.529 9 -12125462.42147  21040809.241    21040812.3814
  20288772.959   -25237657.455 9 -19653498.02348  20288773.155    20288774.5134
  21016412.520   -17117975.091 9 -13325620.54547  21016412.081    21016414.5864
  24361974.223     -379784.635 7   -258988.04145  24361973.027    24361977.7954
  22013380.498   -10997130.255 8  -8552532.98146  22013380.125    22013384.2554
  21906572.998   -16627738.861 8 -12941293.72847  21906572.425    21906576.2484
  24235001.653    -5743557.837 7  -4465523.33645  24235001.138    24235006.6774
  23096198.324    -7744322.117 8  -6010132.03145  23096198.265    23096203.3724
  23364711.305    -5405896.832 8  -4197221.21146  23364710.887    23364715.4604
 01  7 19  3 51 30.0000000  0  9 27 13 28 22 01 08 10 31 03
  21034671.229   -15616976.584 9 -12150597.78947  21034670.920    21034674.1054
  20291156.350   -25225132.592 9 -19643738.38748  20291156.555    20291157.8634
  21005396.267   -17175866.053 9 -13370730.36247  21005395.867    21005398.2014
  24383350.798     -267445.76917   -171451.28844  24383349.719    24383355.1724
  22027188.850   -10924566.357 8  -8495989.70646  22027188.574    22027192.8684
  21893586.704   -16695981.943 8 -12994470.12047  21893586.086    21893590.0024
  24220698.889    -5818717.004 7  -4524088.87045  24220698.530    24220704.1974
  23082256.411    -7817588.614 8  -6067222.70445  23082256.017    23082261.0524
  23362231.871    -5418925.568 8  -4207373.40645  23362231.584    23362236.1484
 01  7 19  3 52  0.0000000  0  8 27 13 28 01 08 10 31 03
  21028572.915   -15649023.342 9 -12175569.28147  21028572.602    21028575.7724
  20293624.490   -25212162.632 9 -19633631.93348  20293624.646    20293625.9134
  20994467.440   -17233297.213 9 -13415481.88647  20994467.033    20994469.3394
  22041057.074   -10851689.318 8  -8439202.45746  22041056.684    22041060.8974
  21880639.684   -16764018.852 8 -13047485.84546  21880639.089    21880643.0614
  24206474.675    -5893466.582 7  -4582335.24045  24206474.256    24206479.7604
  23068379.337    -7890511.361 8  -6124045.49145  23068379.164    23068384.2294
  23359853.463    -5431422.228 8  -4217110.97345  23359853.410    23359857.9094
 01  7 19  3 52 30.0000000  0  8 27 13 28 01 08 10 31 03
  21022514.396   -15680861.063 9 -12200377.88747  21022514.106    21022517.2324
  20296177.145   -25198748.372 9 -19623179.25948  20296177.269    20296178.6214
  20983626.156   -17290268.602 9 -13459875.12447  20983625.679    20983627.9754
  22054984.407   -10778501.193 8  -8382172.77346  22054983.962    22054988.1834
  21867731.498   -16831850.959 8 -13100341.99547  21867731.005    21867735.0154
  24192328.809    -5967805.655 7  -4640261.73445  24192328.079    24192333.6594
  23054568.228    -7963088.583 8  -6180599.06145  23054568.094    23054573.1314
  23357576.310    -5443387.206 8  -4226434.26645  23357576.356    23357581.1244
 01  7 19  3 53  0.0000000  0  8 27 13 28 01 08 10 31 03
  21016495.551   -15712490.452 9 -12225024.16647  21016495.253    21016498.3304
  20298814.207   -25184890.195 9 -19612380.67248  20298814.353    20298815.7254
  20972872.225   -17346779.924 9 -13503909.89147  20972871.833    20972874.2334
  22068970.788   -10705003.362 8  -8324901.76946  22068970.210    22068974.4414
  21854862.517   -16899478.492 8 -13153038.75247  21854861.964    21854866.0004
  24178261.308    -6041732.584 7  -4697867.06745  24178260.379    24178265.6674
  23040823.238    -8035318.058 8  -6236881.67245  23040823.110    23040828.3144
  23355401.002    -5454820.009 8  -4235342.88045  23355400.773    23355405.6544
 01  7 19  3 53 30.0000000  0  8 27 13 28 01 08 10 31 03
  21010516.553   -15743910.435 9 -12249507.26147  21010516.242    21010519.3294
  20301536.021   -25170586.595 9 -19601235.01948  20301536.199    20301537.5924
  20962206.366   -17402829.122 9 -13547584.54747  20962205.927    20962208.3584
  22083015.760   -10631195.719 8  -8267389.35546  22083015.366    22083019.5274
  21842032.558   -16966900.409 8 -13205575.25547  21842032.006    21842035.8804
  24164272.486    -6115244.126 7  -4755148.71845  24164271.553    24164277.0124
  23027145.460    -8107195.694 8  -6292890.11045  23027145.269    23027150.4404
  23353327.154    -5465718.674 8  -4243835.36245  23353326.808    23353331.6074
 01  7 19  3 54  0.0000000  0  8 27 13 28 01 08 10 31 03
  21004577.461   -15775120.630 9 -12273826.88947  21004577.164    21004580.1704
  20304342.847   -25155836.519 9 -19589741.44748  20304343.006    20304344.4814
  20951628.763   -17458414.685 9 -13590897.93247  20951628.359    20951630.8314
  22097119.558   -10557078.920 8  -8209636.04246  22097119.233    22097123.5414
  21829241.725   -17034115.935 8 -13257950.95047  21829241.191    21829245.2374
  24150363.063    -6188337.756 7  -4812104.71745  24150362.182    24150367.6114
  23013535.223    -8178718.066 8  -6348621.70545  23013535.002    23013539.9194
  23351355.079    -5476081.963 8  -4251910.59845  23351354.873    23351359.5004
 01  7 19  3 54 30.0000000  0  8 27 13 28 01 08 10 31 03
  20998678.238   -15806121.188 9 -12297983.15947  20998677.948    20998680.9624
  20307234.605   -25140639.854 9 -19577899.88748  20307234.784    20307236.3614
  20941139.652   -17513535.564 9 -13633849.23747  20941139.221    20941141.6934
  22111282.246   -10482653.491 8  -8151642.24646  22111281.948    22111286.1364
  21816490.474   -17101124.941 8 -13310165.72547  21816489.898    21816493.7184
  24136533.631    -6261011.243 7  -4868733.34345  24136532.786    24136538.1004
  22999993.324    -8249882.224 8  -6404074.21046  22999992.796    22999997.7484
  23349484.794    -5485909.018 8  -4259567.96246  23349484.698    23349489.4214
 01  7 19  3 55  0.0000000  0  8 27 13 28 01 08 10 31 03
  20992818.948   -15836911.914 9 -12321975.92147  20992818.664    20992821.6194
  20310211.487   -25124995.725 9 -19565709.66148  20310211.703    20310213.2854
  20930739.104   -17568190.750 9 -13676437.65347  20930738.642    20930741.0874
  22125503.603   -10407920.065 8  -8093408.44246  22125503.243    22125507.5524
  21803778.541   -17167926.942 8 -13362219.20647  21803777.949    21803781.7244
  24122784.544    -6333262.236 8  -4925032.77645  24122783.714    24122789.1194
  22986520.054    -8320684.923 8  -6459245.04446  22986519.364    22986524.4434
  23347717.173    -5495198.425 8  -4266806.43946  23347716.902    23347721.5504
 01  7 19  3 55 30.0000000  0  8 27 13 28 01 08 10 31 03
  20986999.532   -15867493.561 9 -12345805.76947  20986999.203    20987002.1504
  20313273.479   -25108904.571 9 -19553171.10248  20313273.723    20313275.3464
  20920427.094   -17622379.904 9 -13718662.93447  20920426.710    20920429.1534
  22139783.438   -10332880.468 8  -8034936.08746  22139782.956    22139787.0484
  21791105.707   -17234522.304 8 -13414111.64847  21791105.122    21791108.8844
  24109116.384    -6405089.383 7  -4981001.92245  24109115.307    24109120.5614
  22973115.917    -8391123.971 8  -6514132.51045  22973115.133    22973120.0784
  23346051.856    -5503950.681 8  -4273626.31846  23346051.405    23346055.9994
 01  7 19  3 56  0.0000000  0  8 27 13 28 01 08 10 31 03
  20981220.035   -15897864.711 9 -12369471.58647  20981219.734    20981222.6704
  20316420.905   -25092364.442 9 -19540282.69248  20316421.204    20316422.8084
  20910204.360   -17676100.650 9 -13760523.22747  20910203.957    20910206.4694
  22154121.773   -10257534.107 8  -7976224.69046  22154121.161    22154125.0304
  21778472.538   -17300909.508 8 -13465841.89247  21778471.978    21778475.8684
  24095529.252    -6476488.857 7  -5036637.81445  24095528.324    24095533.9744
  22959781.856    -8461194.896 8  -6568733.14546  22959781.024    22959785.9784
  23344489.141    -5512163.158 8  -4280025.60646  23344488.517    23344493.1534
 01  7 19  3 56 30.0000000  0  8 27 13 28 01 08 10 31 03
  20975480.529   -15928025.974 9 -12392973.85547  20975480.197    20975483.1614
  20319653.725   -25075375.754 9 -19527044.76048  20319654.046    20319655.6894
  20900070.838   -17729352.790 9 -13802018.36647  20900070.442    20900072.8864
  22168517.884   -10181882.497 8  -7917275.42946  22168517.215    22168521.1204
  21765879.058   -17367088.615 8 -13517409.99347  21765878.506    21765882.3794
  24082023.663    -6547459.128 7  -5091939.29445  24082022.883    24082028.5324
  22946518.337    -8530895.155 8  -6623044.93446  22946517.496    22946522.4494
  23343028.802    -5519835.777 8  -4286004.23845  23343028.517    23343033.0614
 01  7 19  3 57  0.0000000  0  8 27 13 28 01 08 10 31 03
  20969781.263   -15957975.973 9 -12416311.49447  20969780.943    20969783.9114
  20322972.278   -25057936.488 9 -19513455.71748  20322972.589    20322974.2734
  20890026.906   -17782133.921 9 -13843146.48247  20890026.486    20890028.8874
  22182972.122   -10105924.978 8  -7858087.79346  22182971.559    22182975.3714
  21753325.398   -17433058.391 8 -13568814.98447  21753324.867    21753328.7124
  24068600.612    -6617996.502 7  -5146903.42845  24068600.055    24068605.7364
  22933325.878    -8600220.270 8  -6677064.41646  22933325.340    22933330.1144
  23341671.601    -5526966.446 8  -4291560.53345  23341671.547    23341675.9774
